[[{"header":{"parameterUnit":"m.s-1","parameterCategory":1,"la1":30.6,"la2":28.766,"lo1":-90.7593,"lo2":-88.6598,"dy":0.0162,"dx":0.0183,"nx":116,"ny":114,"refTime":"2023-04-09T12:00:00:Z","depth":0,"parameterNumber":2,"parameterNumberName":"U-component_of_WINDS"},"data":[0.0,0.0,0.0,0.0,0.0,0.0,0.0,0.0,0.0,0.0,0.0,0.0,0.0,0.0,0.0,0.0,0.0,0.0,0.0,0.0,0.0,0.0,0.0,0.0,0.0,0.0,0.0,0.0,0.0,0.0,0.0,0.0,0.0,0.0,0.0,0.0,0.0,0.0,0.0,0.0,0.0,0.0,0.0,0.0,0.0,0.0,0.0,0.0,0.0,0.0,0.0,0.0,0.0,0.0,0.0,0.0,0.0,0.0,0.0,0.0,0.0,0.0,0.0,0.0,0.0,0.0,0.0,0.0,0.0,0.0,0.0,0.0,0.0,0.0,0.0,0.0,0.0,0.0,0.0,0.0,0.0,0.0,0.0,0.0,0.0,0.0,0.0,0.0,0.0,0.0,0.0,0.0,0.0,0.0,0.0,0.0,0.0,0.0,0.0,0.0,0.0,0.0,0.0,0.0,0.0,0.0,0.0,0.0,0.0,0.0,0.0,0.0,0.0,0.0,0.0,0.0,0.0,0.0,0.0,0.0,0.0,0.0,0.0,0.0,0.0,0.0,0.0,0.0,0.0,0.0,0.0,0.0,0.0,0.0,0.0,0.0,0.0,0.0,0.0,0.0,0.0,0.0,0.0,0.0,0.0,0.0,0.0,0.0,0.0,0.0,0.0,0.0,0.0,0.0,0.0,0.0,0.0,0.0,0.0,0.0,0.0,0.0,0.0,0.0,0.0,0.0,0.0,0.0,0.0,0.0,0.0,0.0,0.0,0.0,0.0,0.0,0.0,0.0,0.0,0.0,0.0,0.0,0.0,0.0,0.0,0.0,0.0,0.0,0.0,0.0,0.0,0.0,0.0,0.0,0.0,0.0,0.0,0.0,0.0,0.0,0.0,0.0,0.0,0.0,0.0,0.0,0.0,0.0,0.0,0.0,0.0,0.0,0.0,0.0,0.0,0.0,0.0,0.0,0.0,0.0,0.0,0.0,0.0,0.0,0.0,0.0,0.0,0.0,0.0,0.0,0.0,0.0,0.0,0.0,0.0,0.0,0.0,0.0,0.0,0.0,0.0,0.0,0.0,0.0,0.0,0.0,0.0,0.0,0.0,0.0,0.0,0.0,0.0,0.0,0.0,0.0,0.0,0.0,0.0,0.0,0.0,0.0,0.0,0.0,0.0,0.0,0.0,0.0,0.0,0.0,0.0,0.0,0.0,0.0,0.0,0.0,0.0,0.0,0.0,0.0,0.0,0.0,0.0,0.0,0.0,0.0,0.0,0.0,0.0,0.0,0.0,0.0,0.0,0.0,0.0,0.0,0.0,0.0,0.0,0.0,0.0,0.0,0.0,0.0,0.0,0.0,0.0,0.0,0.0,0.0,0.0,0.0,0.0,0.0,0.0,0.0,0.0,0.0,0.0,0.0,0.0,0.0,0.0,0.0,0.0,0.0,0.0,0.0,0.0,0.0,0.0,0.0,0.0,0.0,0.0,0.0,0.0,0.0,0.0,0.0,0.0,0.0,0.0,0.0,0.0,0.0,0.0,0.0,0.0,0.0,0.0,0.0,0.0,0.0,0.0,0.0,0.0,0.0,0.0,0.0,0.0,0.0,0.0,0.0,0.0,0.0,0.0,0.0,0.0,0.0,0.0,0.0,0.0,0.0,0.0,0.0,0.0,0.0,0.0,0.0,0.0,0.0,0.0,0.0,0.0,0.0,0.0,0.0,0.0,0.0,0.0,0.0,0.0,0.0,0.0,0.0,0.0,0.0,0.0,0.0,0.0,0.0,0.0,0.0,0.0,0.0,0.0,0.0,0.0,0.0,0.0,0.0,0.0,0.0,0.0,0.0,0.0,0.0,0.0,0.0,0.0,0.0,0.0,0.0,0.0,0.0,0.0,0.0,0.0,0.0,0.0,0.0,0.0,0.0,0.0,0.0,0.0,0.0,0.0,0.0,0.0,0.0,0.0,0.0,0.0,0.0,0.0,0.0,0.0,0.0,0.0,0.0,0.0,0.0,0.0,0.0,0.0,0.0,0.0,0.0,0.0,0.0,0.0,0.0,0.0,0.0,0.0,0.0,0.0,0.0,0.0,0.0,0.0,0.0,0.0,0.0,0.0,0.0,0.0,0.0,0.0,0.0,0.0,0.0,0.0,0.0,0.0,0.0,0.0,0.0,0.0,0.0,0.0,0.0,0.0,0.0,0.0,0.0,0.0,0.0,0.0,0.0,0.0,0.0,0.0,0.0,0.0,0.0,0.0,0.0,0.0,0.0,0.0,0.0,0.0,0.0,0.0,0.0,0.0,0.0,0.0,0.0,0.0,0.0,0.0,0.0,0.0,0.0,0.0,0.0,0.0,0.0,0.0,0.0,0.0,0.0,0.0,0.0,0.0,0.0,0.0,0.0,0.0,0.0,0.0,0.0,0.0,0.0,0.0,0.0,0.0,0.0,0.0,0.0,0.0,0.0,0.0,0.0,0.0,0.0,0.0,0.0,0.0,0.0,0.0,0.0,0.0,0.0,0.0,0.0,0.0,0.0,0.0,0.0,0.0,0.0,0.0,0.0,0.0,0.0,0.0,0.0,0.0,0.0,0.0,0.0,0.0,0.0,0.0,0.0,0.0,0.0,0.0,0.0,0.0,0.0,0.0,0.0,0.0,0.0,0.0,0.0,0.0,0.0,0.0,0.0,0.0,0.0,0.0,0.0,0.0,0.0,0.0,0.0,0.0,0.0,0.0,0.0,0.0,0.0,0.0,0.0,0.0,0.0,0.0,0.0,0.0,0.0,0.0,0.0,0.0,0.0,0.0,0.0,0.0,0.0,0.0,0.0,0.0,0.0,0.0,0.0,0.0,0.0,0.0,0.0,0.0,0.0,0.0,0.0,0.0,0.0,0.0,0.0,0.0,0.0,0.0,0.0,0.0,0.0,0.0,0.0,0.0,0.0,0.0,0.0,0.0,0.0,0.0,0.0,0.0,0.0,0.0,0.0,0.0,0.0,0.0,0.0,0.0,0.0,0.0,0.0,0.0,0.0,0.0,0.0,0.0,0.0,0.0,0.0,0.0,0.0,0.0,0.0,0.0,0.0,0.0,0.0,0.0,0.0,0.0,0.0,0.0,0.0,0.0,0.0,0.0,0.0,0.0,0.0,0.0,0.0,0.0,0.0,0.0,0.0,0.0,0.0,0.0,0.0,0.0,0.0,0.0,0.0,0.0,0.0,0.0,0.0,0.0,0.0,0.0,0.0,0.0,0.0,0.0,0.0,0.0,0.0,0.0,0.0,0.0,0.0,0.0,0.0,0.0,0.0,0.0,0.0,0.0,0.0,0.0,0.0,0.0,0.0,0.0,0.0,0.0,0.0,0.0,0.0,0.0,0.0,0.0,0.0,0.0,0.0,0.0,0.0,0.0,0.0,0.0,0.0,0.0,0.0,0.0,0.0,0.0,0.0,0.0,0.0,0.0,0.0,0.0,0.0,0.0,0.0,0.0,0.0,0.0,0.0,0.0,0.0,0.0,0.0,0.0,0.0,0.0,0.0,0.0,0.0,0.0,0.0,0.0,0.0,0.0,0.0,0.0,0.0,0.0,0.0,0.0,0.0,0.0,0.0,0.0,0.0,0.0,0.0,0.0,0.0,0.0,0.0,0.0,0.0,0.0,0.0,0.0,0.0,0.0,0.0,0.0,0.0,0.0,0.0,0.0,0.0,0.0,0.0,0.0,0.0,0.0,0.0,0.0,0.0,0.0,0.0,0.0,0.0,0.0,0.0,0.0,0.0,0.0,0.0,0.0,0.0,0.0,0.0,0.0,0.0,0.0,0.0,0.0,0.0,0.0,0.0,0.0,0.0,0.0,0.0,0.0,0.0,0.0,0.0,0.0,0.0,0.0,0.0,0.0,0.0,0.0,0.0,0.0,0.0,0.0,0.0,0.0,0.0,0.0,0.0,0.0,0.0,0.0,0.0,0.0,0.0,0.0,0.0,0.0,0.0,0.0,0.0,0.0,0.0,0.0,0.0,0.0,0.0,0.0,0.0,0.0,0.0,0.0,0.0,0.0,0.0,0.0,0.0,0.0,0.0,0.0,0.0,0.0,0.0,0.0,0.0,0.0,0.0,0.0,0.0,0.0,0.0,0.0,0.0,0.0,0.0,0.0,0.0,0.0,0.0,0.0,0.0,0.0,0.0,0.0,0.0,0.0,0.0,0.0,0.0,0.0,0.0,0.0,0.0,0.0,0.0,0.0,0.0,0.0,0.0,0.0,0.0,0.0,0.0,0.0,0.0,0.0,0.0,0.0,0.0,0.0,0.0,0.0,0.0,0.0,0.0,0.0,0.0,0.0,0.0,0.0,0.0,0.0,0.0,0.0,0.0,0.0,0.0,0.0,0.0,0.0,0.0,0.0,0.0,0.0,0.0,0.0,0.0,0.0,0.0,0.0,0.0,0.0,0.0,0.0,0.0,0.0,0.0,0.0,0.0,0.0,0.0,0.0,0.0,0.0,0.0,0.0,0.0,0.0,0.0,0.0,0.0,0.0,0.0,0.0,0.0,0.0,0.0,0.0,0.0,0.0,0.0,0.0,0.0,0.0,0.0,0.0,0.0,0.0,0.0,0.0,0.0,0.0,0.0,0.0,0.0,0.0,0.0,0.0,0.0,0.0,0.0,0.0,0.0,0.0,0.0,0.0,0.0,0.0,0.0,0.0,0.0,0.0,0.0,0.0,0.0,0.0,0.0,0.0,0.0,0.0,0.0,0.0,0.0,0.0,0.0,0.0,0.0,0.0,0.0,0.0,0.0,0.0,0.0,0.0,0.0,0.0,0.0,0.0,0.0,0.0,0.0,0.0,0.0,0.0,0.0,0.0,0.0,0.0,0.0,0.0,0.0,0.0,0.0,0.0,0.0,0.0,0.0,0.0,0.0,0.0,0.0,0.0,0.0,0.0,0.0,0.0,0.0,0.0,0.0,0.0,0.0,0.0,0.0,0.0,0.0,0.0,0.0,0.0,0.0,0.0,0.0,0.0,0.0,0.0,0.0,0.0,0.0,0.0,0.0,0.0,0.0,0.0,0.0,0.0,0.0,0.0,0.0,0.0,0.0,0.0,0.0,0.0,0.0,0.0,0.0,0.0,0.0,0.0,0.0,0.0,0.0,0.0,0.0,0.0,0.0,0.0,0.0,0.0,0.0,0.0,0.0,0.0,0.0,0.0,0.0,0.0,0.0,0.0,0.0,0.0,0.0,0.0,0.0,0.0,0.0,0.0,0.0,0.0,0.0,0.0,0.0,0.0,0.0,0.0,0.0,0.0,0.0,0.0,0.0,0.0,0.0,0.0,0.0,0.0,0.0,0.0,0.0,0.0,0.0,0.0,0.0,0.0,0.0,0.0,0.0,0.0,0.0,0.0,0.0,0.0,0.0,0.0,0.0,0.0,0.0,0.0,0.0,0.0,0.0,0.0,0.0,0.0,0.0,0.0,0.0,0.0,0.0,0.0,0.0,0.0,0.0,0.0,0.0,0.0,0.0,0.0,0.0,0.0,0.0,0.0,0.0,0.0,0.0,0.0,0.0,0.0,0.0,0.0,0.0,0.0,0.0,0.0,0.0,0.0,0.0,0.0,0.0,0.0,0.0,0.0,0.0,0.0,0.0,0.0,0.0,0.0,0.0,0.0,0.0,0.0,0.0,0.0,0.0,0.0,0.0,0.0,0.0,0.0,0.0,0.0,0.0,0.0,0.0,0.0,0.0,0.0,0.0,0.0,0.0,0.0,0.0,0.0,0.0,0.0,0.0,0.0,0.0,0.0,0.0,0.0,0.0,0.0,0.0,0.0,0.0,0.0,0.0,0.0,0.0,0.0,0.0,0.0,0.0,0.0,0.0,0.0,0.0,0.0,0.0,0.0,0.0,0.0,0.0,0.0,0.0,0.0,0.0,0.0,0.0,0.0,0.0,0.0,0.0,0.0,0.0,0.0,0.0,0.0,0.0,0.0,0.0,0.0,0.0,0.0,0.0,0.0,0.0,0.0,0.0,0.0,0.0,0.0,0.0,0.0,0.0,0.0,0.0,0.0,0.0,0.0,0.0,0.0,0.0,0.0,0.0,0.0,0.0,0.0,0.0,-1.0533,-1.0424,0.0,0.0,0.0,0.0,0.0,0.0,0.0,0.0,0.0,0.0,0.0,0.0,0.0,0.0,0.0,0.0,0.0,0.0,0.0,0.0,0.0,0.0,0.0,0.589,0.5038,0.4406,0.3608,0.2974,0.2639,0.2444,0.2198,0.1863,0.1851,0.179,0.1683,0.1648,0.1648,0.1683,0.0892,0.0382,0.021,0.021,0.0621,0.1379,0.0,0.0,0.0,0.0,0.0,0.0,0.0,0.0,0.0,0.0,0.0,0.0,0.0,0.0,0.0,0.0,0.0,0.0,0.0,0.0,0.0,0.0,0.0,0.0,0.0,0.0,0.0,0.0,0.0,0.0,0.0,0.0,0.0,0.0,0.0,0.0,0.0,0.0,0.0,0.0,0.0,0.0,0.0,0.0,0.0,0.0,0.0,0.0,0.0,0.0,0.0,0.0,0.0,0.0,0.0,0.0,0.0,0.0,0.0,0.0,0.0,0.0,0.0,0.0,0.0,0.0,0.0,0.0,0.0,0.0,-1.0798,-1.0592,0.0,0.0,0.0,0.0,0.0,0.0,0.0,0.0,0.0,0.0,0.0,0.0,0.0,0.0,0.0,0.0,0.0,0.0,0.0,0.0,0.0,0.677,0.6374,0.5262,0.4351,0.3906,0.3099,0.2591,0.2522,0.2225,0.1936,0.1722,0.1588,0.1421,0.122,0.1129,0.1028,0.0885,-0.0352,-0.1117,-0.1494,-0.1166,-0.0534,0.0375,0.0888,0.0,0.0,0.0,0.0,0.0,0.0,0.0,0.0,0.0,0.0,0.0,0.0,0.0,0.0,0.0,0.0,0.0,0.0,0.0,0.0,0.0,0.0,0.0,0.0,0.0,0.0,0.0,0.0,0.0,0.0,0.0,0.0,0.0,0.0,0.0,0.0,0.0,0.0,0.0,0.0,0.0,0.0,0.0,0.0,0.0,0.0,0.0,0.0,0.0,0.0,0.0,0.0,0.0,0.0,0.0,0.0,0.0,0.0,0.0,0.0,0.0,0.0,0.0,-1.1334,-1.1275,-1.1373,-1.1574,-1.1569,-1.1378,-1.1063,-1.0847,-1.0782,-1.0784,0.0,0.0,0.0,0.0,0.0,0.0,0.0,0.0,0.0,0.0,0.0,0.0,0.0,0.0,0.0,0.0,0.0,0.0,0.0,0.6656,0.5798,0.5095,0.4201,0.2993,0.2762,0.2559,0.2256,0.1949,0.1847,0.2125,0.1508,0.131,0.1604,0.1279,0.0729,-0.0035,-0.1226,-0.2001,-0.2333,-0.2296,-0.2359,-0.2451,0.0,0.0892,0.0593,0.0,0.0,0.0,0.0,0.0,0.0,0.0,0.0,0.0,0.0,0.0,0.0,0.0,0.0,0.0,0.0,0.0,0.0,0.0,0.0,0.0,0.0,0.0,0.0,0.0,0.0,0.0,0.0,0.0,0.0,0.0,0.0,0.0,0.0,0.0,0.0,0.0,0.0,0.0,0.0,0.0,-1.0637,-1.0539,0.0,0.0,0.0,0.0,0.0,0.0,0.0,0.0,0.0,0.0,0.0,0.0,0.0,-1.2353,-1.1674,-1.1894,-1.1853,-1.1522,-1.1663,-1.1732,-1.1748,-1.1781,-1.183,-1.1884,-1.1737,0.0,-1.121,-1.1341,0.0,0.0,0.0,0.0,0.0,0.0,0.0,0.0,0.0,0.0,0.0,0.0,0.0,0.0,0.0,0.0,0.0,0.0,0.0,0.0,0.0,0.3813,0.2924,0.2162,0.1488,0.1251,0.1564,0.1008,0.0869,0.1217,0.0939,0.0767,0.0736,-0.0641,-0.215,-0.3725,-0.325,-0.33,-0.3915,-0.3685,-0.3645,-0.3795,-0.2543,-0.197,-0.1826,-0.0711,0.0,0.0,0.0,0.0,0.0,0.0,0.0,0.0,0.0,0.0,0.0,0.0,0.0,0.0,0.0,0.0,0.0,0.0,0.0,0.0,0.0,0.0,0.0,0.0,0.0,0.0,0.0,0.0,0.0,0.0,0.0,0.0,0.0,0.0,0.0,0.0,0.0,0.0,0.0,-1.0291,-1.0353,-1.0297,-1.0152,-1.0103,0.0,0.0,0.0,0.0,0.0,0.0,0.0,0.0,0.0,-1.2035,-1.289,-1.3172,-1.2854,-1.2839,-1.2595,-1.217,-1.2276,-1.2266,-1.2123,-1.2123,-1.2183,-1.2286,-1.2172,-1.2069,-1.196,-1.1995,-1.1755,-1.1505,0.0,0.0,0.0,0.0,-1.3659,-1.4109,0.0,0.0,0.0,0.0,0.0,0.0,0.0,0.0,0.0,0.0,0.0,0.0,0.3836,0.27,0.1772,0.1248,0.042,0.0141,0.0631,0.0105,0.0,0.0489,0.0421,0.0211,-0.0141,-0.2377,-0.4381,-0.6132,-0.5107,-0.4894,-0.5492,-0.5293,-0.526,-0.5389,-0.5271,-0.4836,-0.404,-0.2765,-0.2347,-0.2436,0.0,0.0,0.0,0.0,0.0,0.0,0.0,0.0,0.0,0.0,0.0,0.0,0.0,0.0,0.0,0.0,0.0,0.0,0.0,0.0,0.0,0.0,0.0,0.0,0.0,0.0,0.0,0.0,0.0,0.0,0.0,0.0,0.0,0.0,0.0,0.0,0.0,-1.0196,-1.0396,-1.0368,-1.0326,-1.046,0.0,0.0,0.0,0.0,0.0,0.0,-1.1415,-1.2557,-1.31,-1.2886,-1.3572,-1.3932,-1.39,-1.3615,-1.3248,-1.2788,-1.2676,-1.2559,-1.2449,-1.2449,-1.2449,-1.2482,-1.2439,-1.2449,-1.2493,-1.2406,-1.2102,-1.1824,-1.2685,-1.3093,-1.3222,-1.3636,-1.4118,-1.4543,0.0,0.0,0.0,0.0,0.0,0.0,0.0,0.0,0.0,0.0,0.0,0.3806,0.3111,0.2211,0.1214,0.0178,0.0036,-0.0142,-0.0491,-0.0567,-0.0212,0.0551,0.0212,-0.0179,-0.0571,-0.3004,-0.454,-0.5074,-0.6196,-0.6779,-0.6826,-0.7174,-0.7609,-0.8088,-0.7691,-0.6562,-0.4936,-0.4858,-0.4607,-0.4175,-0.29,0.0,0.0,0.0,0.0,0.0,0.0,0.0,0.0,0.0,0.0,0.0,0.0,0.0,0.0,0.0,0.0,0.0,0.0,0.0,0.0,0.0,0.0,0.0,0.0,0.0,0.0,0.0,0.0,0.0,0.0,0.0,0.0,0.0,0.0,0.0,0.0,0.0,0.0,-1.1339,-1.0954,0.0,0.0,0.0,0.0,-1.2038,-1.2669,-1.3098,-1.3246,-1.3597,-1.3816,-1.3913,-1.4573,-1.4705,-1.4203,-1.3955,-1.3614,-1.3101,-1.2697,-1.2515,-1.2477,-1.2477,-1.2482,-1.2488,-1.2482,-1.2482,-1.2466,-1.2301,-1.2258,-1.2404,-1.2881,-1.3406,-1.3905,-1.4247,-1.4712,-1.514,0.0,0.0,0.0,0.0,0.0,0.7841,0.7597,0.7194,0.6557,0.5624,0.4441,0.3259,0.2148,0.135,0.046,-0.0679,-0.1189,-0.1661,-0.2047,-0.2309,-0.1982,-0.0928,-0.1512,-0.2889,-0.5052,-0.4864,-0.5842,-0.8107,-0.7275,-0.7232,-0.7941,-0.7996,-0.8454,-0.9271,-0.9111,-0.8845,-0.8382,-0.6708,-0.6084,-0.6021,-0.4739,-0.352,0.0,0.0,0.0,0.0,0.0,0.0,0.0,0.0,0.0,0.0,0.0,0.0,0.0,0.0,0.0,0.0,0.0,0.0,0.0,0.0,0.0,0.0,0.0,0.0,0.0,0.0,0.0,0.0,0.0,0.0,0.0,0.0,0.0,0.0,0.0,0.0,0.0,-1.1315,-1.1208,0.0,-1.1466,-1.1845,-1.2231,-1.2539,-1.2965,-1.3272,-1.3328,-1.3544,-1.382,-1.4198,-1.4656,-1.459,-1.4021,-1.4391,-1.3994,-1.2873,-1.3099,-1.3101,-1.2879,-1.2879,-1.2922,-1.2932,-1.2912,-1.2922,-1.2921,-1.2732,-1.2569,-1.2568,-1.3336,-1.3819,-1.4096,-1.4479,-1.4993,-1.5479,0.0,0.0,0.0,0.0,0.8055,0.776,0.7341,0.6791,0.5967,0.4687,0.3528,0.2406,0.1294,0.067,-0.0252,-0.1656,-0.223,-0.2789,-0.3439,-0.365,-0.332,-0.234,-0.3117,-0.4638,-0.6957,-0.6273,-0.704,-0.937,-0.8353,-0.8234,-0.8926,-0.8976,-0.9402,-1.0068,-1.0068,-1.0216,-1.0376,-0.8707,-0.8002,-0.7914,-0.6787,-0.5458,-0.4152,0.0,0.0,0.0,0.0,0.0,0.0,0.0,0.0,0.0,0.0,0.0,0.0,0.0,0.0,0.0,0.0,0.0,0.0,0.0,0.0,0.0,0.0,0.0,0.0,0.0,0.0,0.0,0.0,0.0,0.0,0.0,0.0,0.0,0.0,-1.0498,-1.102,-1.1346,-1.1368,-1.15,-1.1855,-1.2106,-1.2444,-1.2762,-1.3236,-1.3474,-1.3474,-1.3647,-1.3969,-1.4442,-1.4758,-1.4789,-1.4591,-1.4779,-1.4372,-1.3372,-1.3452,-1.3351,-1.3129,-1.3129,-1.3167,-1.3181,-1.3162,-1.3194,-1.3235,-1.3134,-1.3077,-1.3173,-1.3725,-1.4084,-1.4385,-1.4934,-1.544,-1.5884,0.0,0.0,0.0,0.7964,0.7903,0.7695,0.7063,0.6141,0.5033,0.3743,0.237,0.126,0.056,0.0216,-0.0766,-0.2695,-0.2945,-0.3462,-0.452,-0.4358,-0.4056,-0.3588,-0.4354,-0.5152,-0.5874,-0.706,-0.794,-0.8527,-0.937,-0.9814,-0.9819,-1.0228,-1.0495,-1.0604,-1.0604,-1.0628,-1.0695,-1.0695,-1.0354,-0.9728,-0.8894,-0.7671,-0.6242,0.0,0.0,0.0,0.0,0.0,0.0,0.0,0.0,0.0,0.0,0.0,0.0,0.0,0.0,0.0,0.0,0.0,0.0,0.0,0.0,0.0,0.0,0.0,0.0,0.0,0.0,0.0,0.0,0.0,0.0,0.0,0.0,0.0,-1.0007,-1.0763,-1.1335,-1.1465,-1.154,-1.1665,-1.1789,-1.2254,-1.2575,-1.2708,-1.3459,-1.389,-1.3836,-1.397,-1.4285,-1.4825,-1.5015,-1.5339,-1.5872,-1.5119,-1.4702,-1.4652,-1.3712,-1.3208,-1.3208,-1.3208,-1.3208,-1.3208,-1.3208,-1.3278,-1.3439,-1.3439,-1.3752,-1.4302,-1.3984,-1.4235,-1.4759,-1.5456,-1.6019,-1.6503,0.0,0.0,0.0,0.7964,0.7903,0.7603,0.6755,0.5984,0.4954,0.3426,0.2235,0.1243,0.0568,0.0217,-0.0586,-0.1993,-0.2639,-0.3343,-0.4192,-0.477,-0.5136,-0.5302,-0.517,-0.599,-0.7916,-0.8445,-0.8943,-0.9529,-0.9688,-0.9856,-1.0019,-1.0388,-1.0574,-1.0688,-1.0688,-1.0663,-1.0695,-1.0695,-1.045,-1.0009,-1.0014,-0.9186,-0.7814,0.0,0.0,0.0,0.0,0.0,0.0,0.0,0.0,0.0,0.0,0.0,0.0,0.0,0.0,0.0,0.0,0.0,0.0,0.0,0.0,0.0,0.0,0.0,0.0,0.0,0.0,0.0,0.0,0.0,0.0,0.0,-0.9024,-0.9377,-0.9552,-1.0091,-1.0725,-1.1501,-1.1569,-1.181,-1.239,-1.2944,-1.3237,-1.3364,-1.3499,-1.3731,-1.4073,-1.356,-1.3828,-1.5114,-1.5051,-1.5025,-1.5177,-1.5087,-1.4649,-1.3873,-1.3821,-1.376,-1.376,-1.376,-1.376,-1.376,-1.376,-1.3776,-1.3862,-1.3862,-1.4184,-1.4583,-1.3815,-1.4094,-1.4888,-1.5027,-1.5705,-1.6503,0.0,0.0,0.0,0.803,0.7979,0.763,0.6587,0.5838,0.4748,0.2971,0.1924,0.1051,0.036,0.011,-0.0483,-0.1647,-0.2381,-0.3096,-0.379,-0.4826,-0.5683,-0.6342,-0.6242,-0.6866,-0.8375,-0.8729,-0.9166,-0.9684,-0.9866,-1.0066,-1.0362,-1.0542,-1.0666,-1.0695,-1.0529,-1.0445,-1.0445,-1.0237,-1.0028,-0.9815,-0.9998,-0.9468,-0.8438,-0.8035,-0.6789,-0.5293,-0.5167,-0.4795,-0.434,-0.4278,0.0,0.0,0.0,0.0,0.0,0.0,0.0,0.0,0.0,0.0,0.0,0.0,0.0,0.0,0.0,0.0,0.0,0.0,0.0,0.0,0.0,0.0,0.0,0.0,-0.9308,-0.9451,-0.9389,-0.9929,-1.0606,-1.123,-1.1357,-1.1549,-1.2016,-1.2625,-1.2984,-1.3005,-1.3446,-1.3759,-1.3861,-1.3582,-1.3876,-1.4784,-1.4789,-1.4852,-1.4999,-1.5056,-1.4708,-1.4074,-1.4052,-1.4009,-1.4009,-1.4009,-1.4037,-1.4031,-1.4031,-1.4097,-1.4239,-1.4124,-1.4485,-1.4905,0.0,0.0,0.0,0.0,-1.6236,-1.6775,0.0,0.0,0.8385,0.8151,0.8104,0.7706,0.6488,0.5686,0.4486,0.2468,0.1565,0.0815,0.0073,0.0,-0.0416,-0.1479,-0.2087,-0.2776,-0.3617,-0.4662,-0.5723,-0.6854,-0.7283,-0.7645,-0.7971,-0.8436,-0.8939,-0.9407,-0.982,-1.0237,-1.0612,-1.0612,-1.0612,-1.0612,-1.032,-1.0112,-0.9986,-0.9616,-0.9407,-0.9323,-0.9365,-0.9086,-0.8567,-0.82,-0.7431,-0.6411,-0.5753,-0.5456,-0.5364,-0.535,0.0,0.0,0.0,0.0,0.0,0.0,0.0,0.0,0.0,0.0,0.0,0.0,0.0,0.0,0.0,0.0,0.0,0.0,0.0,0.0,0.0,0.0,0.0,0.0,-0.9475,-0.9612,-0.9436,-1.0113,-1.0687,-1.0864,-1.0954,-1.1111,-1.1239,-1.1836,-1.2257,-1.2298,-1.334,-1.3801,-1.3455,-1.3884,0.0,0.0,0.0,-1.4809,-1.5167,-1.4938,-1.479,-1.4736,-1.4265,-1.4053,-1.4053,-1.4064,-1.408,-1.4123,-1.4139,-1.432,-1.4515,-1.4407,-1.4692,-1.5214,-1.4986,-1.5458,-1.6363,-1.6816,-1.7054,-1.7175,0.0,0.8854,0.8615,0.8262,0.8166,0.7767,0.6496,0.5686,0.447,0.2465,0.1575,0.0818,0.0074,0.0,-0.0226,-0.0767,-0.1568,-0.2774,-0.4522,-0.434,-0.4986,-0.6822,-0.7175,-0.7672,-0.8469,-0.8957,-0.93,-0.9407,-0.949,-0.9783,-1.0237,-1.0237,-1.0237,-1.0237,-1.0487,-1.0195,-0.9574,-0.9824,-0.9532,-0.8863,-0.924,-0.9341,-0.9179,-0.8744,-0.8007,-0.7211,-0.7327,-0.6929,-0.6326,-0.6287,-0.6248,-0.6114,-0.5406,-0.496,0.0,0.0,0.0,0.0,0.0,0.0,0.0,0.0,0.0,0.0,0.0,0.0,0.0,0.0,0.0,0.0,0.0,0.0,0.0,-0.9057,-0.9297,-0.9472,-0.9497,-0.9794,-1.0206,-1.0601,-1.0661,-1.0977,-1.1711,-1.2199,-1.2634,-1.2905,-1.3418,-1.3691,-1.3711,-1.3823,-1.4089,-1.4503,-1.4652,-1.4775,-1.486,-1.4902,-1.471,-1.4261,-1.4266,0.0,-1.4249,-1.4347,-1.4407,-1.4434,-1.4532,-1.4602,-1.4646,-1.4619,-1.4892,-1.5374,-1.5463,-1.5626,-1.5925,-1.6485,-1.6975,-1.7331,0.0,0.0,0.8956,0.8603,0.8426,0.7847,0.6535,0.5885,0.48,0.2729,0.1989,0.1282,0.037,0.0298,0.015,-0.0269,-0.1448,-0.2927,-0.4578,-0.4986,-0.5813,-0.7324,-0.7534,-0.783,-0.8327,-0.8624,-0.8859,-0.9031,-0.9031,-0.9281,-0.9741,-0.9741,-0.9741,-0.9741,-0.9694,-0.9449,-0.9072,-0.9068,-0.8817,-0.8399,-0.865,-0.8733,-0.8733,-0.8696,-0.8319,-0.7763,-0.7932,-0.7708,-0.7361,-0.7319,-0.7319,-0.7215,-0.6808,-0.636,-0.5838,0.0,0.0,0.0,0.0,0.0,0.0,0.0,0.0,0.0,0.0,0.0,0.0,0.0,0.0,-0.8029,-0.8729,0.0,-0.8936,-0.9439,-0.9583,-0.9673,-0.9801,-1.0036,-1.0207,-1.0325,-1.0402,-1.063,-1.1134,-1.1646,-1.2,-1.2211,-1.2933,-1.3401,-1.3468,-1.3798,-1.4069,-1.4334,-1.4457,-1.454,-1.4429,-1.4558,-1.4503,-1.4183,-1.4347,-1.4417,-1.4417,-1.4532,-1.4619,-1.4689,-1.4744,-1.4798,-1.4852,-1.4787,-1.4917,-1.5078,-1.55,-1.5728,-1.5888,-1.6087,-1.6432,-1.673,0.0,0.0,0.0,0.8988,0.8645,0.7987,0.6706,0.618,0.517,0.3095,0.247,0.1814,0.0741,0.0632,0.045,0.0038,-0.1524,-0.3024,-0.4293,-0.5664,-0.6847,-0.7843,-0.7909,-0.7991,-0.8102,-0.8102,-0.8273,-0.8571,-0.8571,-0.8822,-0.9281,-0.9281,-0.9281,-0.924,-0.8947,-0.8738,-0.8571,-0.8315,-0.819,-0.8102,-0.8102,-0.8102,-0.8148,-0.8441,-0.8399,-0.8102,-0.8102,-0.8102,-0.8102,-0.8102,-0.8102,-0.8102,-0.8102,-0.7803,-0.7275,-0.632,-0.5357,0.0,0.0,0.0,0.0,0.0,0.0,0.0,0.0,-0.6158,-0.6253,-0.6935,-0.7223,-0.7651,-0.8583,-0.8728,-0.8937,-0.9881,-0.9953,-0.9955,-1.0208,-1.0322,-1.0392,-1.0224,-1.0245,-1.0334,-1.0498,-1.0988,-1.1328,-1.1385,-1.251,-1.3216,-1.3293,-1.3885,-1.415,-1.415,-1.4309,-1.4309,-1.415,-1.4336,-1.439,-1.439,-1.4488,-1.4532,-1.4548,-1.4657,-1.4817,-1.4915,-1.4885,-1.4956,-1.4963,-1.4912,-1.4855,-1.4757,-1.5253,-1.5581,-1.5803,-1.5893,-1.6077,-1.6311,0.0,0.0,0.0,0.9193,0.8801,0.8207,0.7116,0.6347,0.5258,0.3484,0.2625,0.1921,0.1184,0.0818,0.0447,0.0037,-0.152,-0.2925,-0.3895,-0.5566,-0.6922,-0.7847,-0.8007,-0.8094,-0.8102,-0.8102,-0.8102,-0.8148,-0.8148,-0.8357,-0.878,-0.878,-0.878,-0.878,-0.9156,-0.8901,-0.819,-0.8487,-0.8441,-0.8102,-0.8102,-0.8102,-0.8102,-0.8148,-0.8148,-0.8102,-0.8102,-0.8102,-0.8102,-0.8102,-0.8102,-0.8102,-0.8102,-0.8056,-0.7807,-0.6744,-0.5857,-0.5105,-0.4547,-0.4646,-0.5032,-0.5561,-0.5783,-0.6091,0.0,-0.6731,-0.6546,-0.7498,-0.8188,-0.868,-0.9001,-0.9524,-0.9894,-0.9827,-0.9978,-1.0118,-1.0363,-1.0416,-1.0577,-1.0712,-1.0551,-1.0498,-1.0596,-1.1031,-1.1407,-1.1723,-1.2776,-1.3425,-1.3633,-1.4172,-1.4461,-1.4461,-1.4477,-1.4477,-1.4461,-1.4575,-1.4686,-1.4686,-1.4646,-1.4657,-1.4657,-1.4844,-1.4899,-1.4915,-1.4967,-1.4963,-1.4963,-1.4912,-1.4899,-1.4883,-1.4831,-1.4888,-1.512,-1.6083,-1.679,-1.716,0.0,0.0,0.0,0.9489,0.9156,0.8451,0.7183,0.6748,0.5904,0.41,0.3642,0.304,0.192,0.1289,0.0778,0.0368,-0.1211,-0.2473,-0.3152,-0.4791,-0.6187,-0.7172,-0.7247,-0.7558,-0.8102,-0.8102,-0.8102,-0.8102,-0.8102,-0.819,-0.8357,-0.8357,-0.8357,-0.8357,-0.8566,-0.8441,-0.806,-0.7684,-0.7432,-0.7265,-0.7265,-0.7265,-0.7349,-0.7893,-0.8102,-0.8064,-0.7813,-0.7687,0.0,-0.7687,-0.7687,-0.7729,-0.8018,-0.7736,-0.7094,-0.6082,-0.5005,-0.4024,-0.3539,-0.3955,-0.4753,-0.5479,-0.5565,-0.5775,-0.7023,-0.6847,-0.664,-0.7478,-0.7382,-0.7191,-0.7333,-0.7132,-0.6938,-0.6874,-0.7644,-0.8422,-0.8899,-0.9649,-1.0286,-1.0743,-1.0745,-1.0677,-1.0763,-1.0966,-1.1158,-1.1277,-1.2033,-1.2701,-1.3134,-1.3721,-1.42,-1.4602,-1.4532,-1.4532,-1.4602,-1.4586,-1.4602,-1.4673,-1.4801,-1.4844,-1.4844,-1.4912,-1.4967,-1.4967,-1.501,-1.4979,-1.4979,-1.4983,-1.4967,-1.4956,-1.4912,-1.4912,-1.4997,-1.54,-1.575,-1.591,0.0,0.0,0.0,0.0,0.0,0.8651,0.7355,0.7054,0.6426,0.4802,0.4592,0.4052,0.2689,0.1936,0.1326,0.0949,-0.0639,-0.1849,-0.2301,-0.3793,-0.5127,-0.6103,-0.6163,-0.6633,-0.7684,-0.7725,-0.7851,-0.8102,-0.8102,-0.8102,-0.8102,-0.8102,-0.8102,-0.8102,-0.8102,-0.8102,-0.806,-0.7391,-0.7097,-0.7056,-0.6804,-0.6721,-0.6762,-0.7181,-0.7265,-0.7139,-0.7056,-0.7014,-0.6972,-0.6595,-0.6472,-0.6511,-0.6846,-0.6516,-0.5802,-0.4997,-0.4123,-0.3346,-0.2857,-0.3639,-0.4803,-0.5391,-0.5587,-0.5814,-0.6642,-0.6486,-0.6204,-0.6389,-0.5913,-0.5425,-0.5467,-0.5117,-0.482,-0.4847,-0.6056,-0.713,-0.764,-0.8822,-0.9802,-1.0256,-1.0392,-1.0528,-1.062,-1.0765,-1.091,-1.0963,-1.1592,-1.2218,-1.2882,-1.3431,-1.4088,-1.4727,-1.4646,-1.4646,-1.4727,-1.4673,-1.4689,-1.4771,-1.4869,-1.4912,-1.4912,-1.4994,-1.4979,-1.4979,-1.4979,-1.4979,-1.4979,-1.4979,-1.4979,-1.4979,-1.4979,-1.4979,-1.4979,-1.4983,-1.5072,-1.5251,0.0,0.0,0.0,0.0,0.0,0.8717,0.766,0.7221,0.6614,0.5515,0.514,0.4599,0.3556,0.2733,0.2115,0.1713,0.0186,-0.0951,-0.1424,-0.263,-0.3758,-0.4714,-0.4762,-0.5376,-0.6721,-0.6762,-0.7181,-0.8102,-0.8102,-0.8102,-0.8102,-0.8102,-0.8102,-0.8102,-0.8102,-0.8102,-0.8102,-0.806,-0.806,-0.7976,-0.7056,-0.6721,-0.6595,-0.5795,-0.5208,-0.4912,-0.5751,-0.6044,-0.5834,-0.4537,-0.412,-0.412,-0.412,-0.4117,-0.3981,-0.3523,-0.361,-0.3713,-0.2932,-0.4332,-0.597,-0.575,-0.641,-0.689,-0.6035,-0.5532,-0.4947,-0.3998,-0.3897,-0.3984,-0.3973,-0.4551,-0.5015,-0.5098,-0.6189,-0.7027,-0.7203,-0.8293,-0.9023,-0.9023,-0.9458,-0.9772,-0.9917,-1.0495,-1.0963,-1.1201,-1.1725,-1.2406,-1.3149,-1.3643,-1.4208,-1.4858,-1.4899,-1.4899,-1.4915,-1.4967,-1.4963,-1.4963,-1.5021,-1.4979,-1.4979,-1.4979,-1.4979,-1.4979,-1.4979,-1.4979,-1.4979,-1.4979,-1.4979,-1.4979,-1.4979,-1.4979,-1.4995,-1.5162,-1.5554,-1.5961,0.0,0.0,0.0,0.0,0.0,0.0,0.0,0.0,0.706,0.6305,0.5566,0.0,0.0,0.0,0.0,0.0,0.1529,0.0608,-0.0077,-0.1076,-0.2043,-0.2934,-0.3216,-0.3866,-0.4873,-0.4915,-0.5083,-0.5376,-0.6256,-0.6717,-0.6717,-0.7684,-0.8102,-0.8102,-0.8102,-0.7767,-0.7139,-0.655,-0.5803,-0.4974,-0.4945,-0.4748,-0.4546,-0.4816,-0.4831,-0.4577,0.0,-0.374,-0.4195,-0.3749,-0.3592,-0.3656,-0.391,-0.3555,-0.2909,-0.2195,-0.2544,-0.3247,-0.358,-0.4801,-0.6076,-0.6569,-0.6302,-0.5777,-0.5466,-0.4596,-0.3691,-0.3352,-0.2777,-0.2302,-0.2324,-0.1952,-0.1684,-0.1689,-0.2739,-0.3988,-0.5249,-0.6444,-0.7658,-0.8785,-0.9465,-0.9832,-0.9917,-1.0444,-1.0877,-1.1057,-1.1353,-1.1781,-1.251,-1.3125,-1.3693,-1.4333,-1.4722,-1.4896,-1.4983,-1.4939,-1.4956,-1.4979,-1.4979,-1.4979,-1.4979,-1.4979,-1.4979,-1.4979,-1.4979,-1.4979,-1.4979,-1.4979,-1.4979,-1.4979,-1.4979,-1.4979,-1.4995,-1.5179,-1.5384,-1.5623,0.0,0.0,0.0,0.0,0.0,0.0,0.0,0.0,0.0,0.0,0.0,0.0,0.0,0.0,0.0,0.0,0.0,0.2154,0.1225,0.0671,-0.0081,-0.1103,-0.1362,-0.1997,-0.3049,-0.3218,-0.3475,-0.3782,-0.4787,-0.5373,-0.5583,-0.6801,-0.7265,-0.7139,-0.7474,-0.7097,-0.6173,-0.546,-0.4639,-0.3857,-0.3604,-0.3365,-0.3164,-0.3389,-0.3404,0.0,-0.1967,-0.1803,-0.2184,-0.2168,-0.2173,-0.2229,-0.2481,-0.2177,-0.1625,-0.1423,-0.2036,-0.3064,-0.4028,-0.4814,-0.5485,-0.6106,-0.5336,-0.4332,-0.3947,-0.3169,-0.2416,-0.2071,-0.142,-0.0976,-0.0985,-0.0445,0.0,0.0,-0.1002,-0.2367,-0.3929,-0.5219,-0.6547,-0.8085,-0.8812,-0.9229,-0.9205,-0.9813,-1.0422,-1.1057,-1.1151,-1.152,-1.2164,-1.2582,-1.3221,-1.4039,-1.4433,-1.4729,-1.4979,-1.4956,-1.4956,-1.4979,-1.4979,-1.4979,-1.4979,-1.4979,-1.4979,-1.4979,-1.4979,-1.4979,-1.4979,-1.4979,-1.4979,-1.4979,-1.4979,-1.5006,-1.5065,-1.5233,-1.5363,-1.5461,0.0,0.0,0.0,0.0,0.0,0.0,0.0,0.0,0.0,0.0,0.0,0.0,0.0,0.0,0.0,0.0,0.0,0.0,0.2535,0.244,0.1895,0.0759,0.0647,0.0041,-0.1237,-0.1694,-0.2326,-0.3145,-0.3612,-0.4076,-0.4535,-0.5415,-0.5667,-0.5334,-0.6173,-0.6092,-0.525,-0.4789,-0.4552,-0.4377,-0.3137,-0.2597,-0.2513,-0.1612,-0.1052,-0.0715,-0.0665,-0.0375,0.0,0.0,0.0,0.0,0.0,0.0,-0.0169,-0.1068,-0.2029,-0.3019,-0.3977,-0.4274,-0.4336,-0.4425,-0.3728,-0.2751,-0.172,-0.1436,-0.1147,-0.0199,0.0,0.0,0.0,0.0,0.0,0.0,-0.0981,-0.2158,-0.3433,-0.4598,-0.5762,-0.6971,-0.7643,-0.7995,-0.7987,-0.8605,-0.9611,-1.0977,-1.1178,-1.1516,-1.2105,-1.2168,-1.2749,-1.3981,-1.4039,-1.4337,-1.4979,-1.4979,-1.4995,-1.4995,-1.4995,-1.4995,-1.4995,-1.4995,-1.5037,-1.4979,-1.4979,-1.4979,-1.4979,-1.4979,-1.4979,-1.4979,-1.5037,-1.5065,-1.5233,-1.5363,-1.5472,-1.557,0.0,0.0,0.0,0.0,0.0,0.0,0.0,0.0,0.0,0.0,0.0,0.0,0.0,0.0,0.0,0.0,0.0,0.0,0.3325,0.2728,0.2268,0.2036,0.1456,0.0978,0.0613,0.0494,0.0332,0.0083,-0.1004,-0.1596,-0.1764,-0.3316,-0.3988,-0.3946,-0.4453,-0.4201,-0.336,-0.3276,-0.2639,-0.1735,-0.1654,-0.1491,-0.1171,-0.0934,-0.08,-0.0674,-0.0294,-0.0084,0.0,0.0,0.0,0.0,0.0,0.0,-0.0043,-0.0306,-0.1065,-0.1896,-0.215,-0.2816,-0.3457,-0.3466,-0.2654,-0.1854,-0.1553,-0.0909,-0.0304,-0.005,0.0,0.0,0.0,0.0,0.0,0.0,-0.0262,-0.1188,-0.3329,-0.3845,-0.484,-0.6874,-0.7737,-0.8122,-0.8051,-0.8783,-0.9372,-0.9758,-1.0243,-1.0813,-1.1516,-1.1988,-1.2344,-1.2641,-1.3163,-1.3742,-1.4337,-1.4895,-1.5179,-1.5179,-1.526,-1.5249,-1.5179,-1.5179,-1.5065,-1.4979,-1.4979,-1.4979,-1.4979,-1.4979,-1.4979,-1.4995,-1.5135,-1.5189,-1.5249,-1.5445,-1.5543,-1.5586,0.0,0.0,0.0,0.0,0.0,0.0,0.0,0.0,0.0,0.0,0.0,0.0,0.0,0.0,0.0,0.0,0.0,0.0,0.0,0.3543,0.3172,0.3088,0.2434,0.2088,0.2139,0.1747,0.1598,0.1613,0.0666,0.0084,-0.0126,-0.1554,-0.2099,-0.1932,-0.2562,-0.2312,-0.1513,-0.1303,-0.0767,0.0,0.0,-0.0043,0.0173,0.017,0.0168,0.0168,0.0295,0.0168,0.0042,0.0251,0.0169,0.0086,0.0474,0.0479,0.0309,0.0089,-0.0362,-0.092,-0.1354,-0.158,-0.1764,-0.1968,-0.1255,-0.0509,-0.0805,-0.0404,0.0,0.0,0.0,0.0,0.0,0.0,0.0,0.0,0.0,-0.0644,-0.2542,-0.3274,-0.4274,-0.612,-0.721,-0.7763,-0.7725,-0.8157,-0.8608,-0.8892,-0.9503,-1.0147,-1.0935,-1.1252,-1.1654,-1.2293,-1.2642,-1.3307,-1.4246,-1.4899,-1.5293,-1.5293,-1.5363,-1.5363,-1.5293,-1.5249,-1.5179,-1.5108,-1.5006,-1.4979,-1.4979,-1.4979,-1.4979,-1.4995,-1.5179,-1.5249,-1.532,-1.5499,-1.5663,-1.5718,0.0,0.0,0.0,0.0,0.0,0.0,0.0,0.0,0.0,0.0,0.7921,0.7415,0.7123,0.7027,0.0,0.0,0.0,0.0,0.0,0.0,0.4094,0.3881,0.3454,0.3193,0.3188,0.244,0.2063,0.2063,0.1698,0.1292,0.0967,0.0084,-0.0126,0.021,-0.0588,-0.0546,0.021,0.0589,0.0765,0.0821,0.1145,0.1319,0.1296,0.0,0.1304,0.1262,0.0924,0.0504,0.0252,0.0715,0.0513,0.0261,0.1134,0.1152,0.0813,0.0411,0.0277,0.0047,-0.0761,-0.0342,0.02,-0.0252,0.0307,0.0876,0.0351,0.0201,0.02,0.0193,0.019,0.0188,0.0094,0.0095,0.0097,0.0,0.0,-0.0423,-0.1641,-0.2857,-0.4035,-0.5281,-0.652,-0.7286,-0.7286,-0.739,-0.763,-0.8214,-0.8791,-0.9558,-1.0457,-1.0448,-1.0974,-1.2254,-1.2373,-1.2952,-1.411,-1.4902,-1.5266,-1.5266,-1.5418,-1.5434,-1.5401,-1.5293,-1.5233,-1.5163,-1.5033,-1.4979,-1.4979,-1.4995,-1.5006,-1.5022,-1.5206,-1.5331,-1.5434,-1.5559,-1.5673,-1.5816,0.0,0.0,0.0,0.0,0.0,0.0,0.0,0.0,0.0,0.0,0.8483,0.8046,0.0,0.0,0.0,0.0,0.0,0.0,0.0,0.0,0.0,0.4275,0.3885,0.3497,0.3109,0.301,0.2803,0.2487,0.2452,0.2435,0.2356,0.1808,0.1556,0.164,0.1093,0.0925,0.1093,0.1178,0.118,0.1184,0.1264,0.1307,0.1311,0.1306,0.1304,0.0,0.1208,0.1163,0.1164,0.1636,0.1288,0.075,0.1291,0.1449,0.1387,0.1365,0.1326,0.1286,0.1117,0.124,0.1411,0.1312,0.1433,0.1497,0.1367,0.1304,0.124,0.1261,0.1237,0.113,0.0712,0.0676,0.0494,0.0051,0.0,-0.0434,-0.1629,-0.2877,-0.4131,-0.5316,-0.6633,-0.7354,-0.7354,-0.7424,-0.7523,-0.7643,-0.7766,-0.8601,-1.0312,-1.0418,-1.0746,-1.1543,-1.2131,-1.2505,-1.2755,-1.4026,-1.4673,-1.4673,-1.5416,-1.5641,-1.5532,-1.5418,-1.5304,-1.5163,-1.5033,-1.4979,-1.4995,-1.5093,-1.5189,-1.5206,-1.5429,-1.5532,-1.5559,-1.5745,-1.5805,-1.5816,0.0,0.0,0.0,0.0,0.0,0.0,0.0,0.8963,0.8812,0.8903,0.8833,0.8621,0.8203,0.7638,0.724,0.0,0.0,0.0,0.0,0.0,0.0,0.4665,0.4305,0.4003,0.3768,0.3634,0.3476,0.3293,0.0,0.3012,0.3071,0.2566,0.2356,0.2356,0.2146,0.2018,0.2018,0.2018,0.2018,0.2018,0.2018,0.2018,0.2018,0.2018,0.1892,0.0,0.1662,0.1496,0.1379,0.1889,0.164,0.1207,0.169,0.1905,0.1936,0.1974,0.217,0.2364,0.2411,0.2457,0.2447,0.2162,0.2129,0.2021,0.1655,0.1537,0.1518,0.1513,0.1263,0.1122,0.1133,0.0721,0.0393,0.0405,0.0157,-0.0216,-0.0773,-0.191,-0.3184,-0.4395,-0.5639,-0.6657,-0.7331,-0.7416,-0.7446,-0.7478,-0.7478,-0.8092,-0.9466,-1.0127,-1.0795,-1.1498,-1.2395,-1.2805,-1.2603,-1.4275,-1.4918,-1.4673,-1.5451,-1.5789,-1.5718,-1.5543,-1.5461,-1.5401,-1.5276,-1.5222,-1.5222,-1.5293,-1.5304,-1.532,-1.5499,-1.557,-1.5647,-1.5772,-1.5816,-1.5816,0.0,0.0,0.0,0.0,0.0,0.0,0.0,0.9103,0.8851,0.8941,0.906,0.9061,0.8863,0.8218,0.7783,0.0,0.0,0.0,0.0,0.0,0.0,0.0,0.4797,0.452,0.4532,0.0,0.0,0.3919,0.3593,0.0,0.0,0.0,0.0,0.0,0.2903,0.2861,0.2861,0.2734,0.2692,0.0,0.0,0.2692,0.2692,0.0,0.0,0.0,0.0,0.2122,0.1803,0.2312,0.2289,0.2017,0.2358,0.2353,0.2289,0.2427,0.2771,0.3114,0.3187,0.3245,0.3195,0.2776,0.2678,0.2541,0.2034,0.186,0.1832,0.1847,0.1473,0.1301,0.1599,0.1004,0.0584,0.0745,0.0463,0.0106,0.0,-0.1054,-0.2319,-0.3542,-0.4827,-0.6013,-0.7286,-0.7411,-0.7429,-0.7473,-0.75,-0.7848,-0.8649,-0.9925,-1.0855,-1.1412,-1.2512,-1.3007,-1.2771,-1.4502,-1.5168,-1.4791,-1.5417,-1.5789,-1.5816,-1.5603,-1.5543,-1.557,-1.5445,-1.5391,-1.5391,-1.5418,-1.5434,-1.5445,-1.5619,-1.5613,-1.569,-1.5772,-1.5816,-1.5816,0.0,0.0,0.0,0.0,0.0,0.0,0.0,0.889,0.8946,0.9065,0.9184,0.9255,0.923,0.8874,0.844,0.0,0.0,0.0,0.0,0.0,0.0,0.0,0.0,0.0,0.0,0.0,0.0,0.4007,0.3967,0.0,0.0,0.0,0.0,0.0,0.0,0.3325,0.3325,0.2861,0.0,0.0,0.0,0.0,0.0,0.0,0.0,0.0,0.0,0.3519,0.3195,0.3645,0.3845,0.3769,0.3395,0.2779,0.231,0.286,0.3078,0.3122,0.3236,0.3292,0.3325,0.3305,0.3293,0.3189,0.3022,0.2955,0.2946,0.2879,0.2821,0.2653,0.2277,0.2162,0.1802,0.0943,0.0755,0.057,0.0055,-0.1102,-0.2346,-0.362,-0.4902,-0.6175,-0.7347,-0.7473,-0.7473,-0.7478,-0.7635,-0.7978,-0.8588,-0.99,-1.064,-1.0768,-1.1957,-1.2627,-1.2682,-1.396,-1.4631,-1.4613,-1.5289,-1.5701,-1.5805,-1.5516,-1.5472,-1.557,-1.5445,-1.5391,-1.5401,-1.5516,-1.5559,-1.557,-1.5745,-1.5805,-1.5805,-1.5816,-1.5816,-1.5816,0.0,0.0,0.0,0.0,0.0,0.0,0.9087,0.8976,0.8962,0.9082,0.9231,0.9302,0.9302,0.9157,0.891,0.8512,0.0,0.0,0.0,0.0,0.0,0.0,0.0,0.0,0.0,0.0,0.5558,0.5209,0.4976,0.0,0.0,0.0,0.0,0.0,0.0,0.3743,0.3743,0.3574,0.0,0.0,0.0,0.0,0.0,0.0,0.0,0.0,0.0,0.0,0.3762,0.3946,0.3839,0.3693,0.3736,0.3365,0.2917,0.2974,0.3204,0.3434,0.3266,0.3284,0.3333,0.3381,0.3356,0.3295,0.3193,0.3123,0.3062,0.3001,0.2755,0.2579,0.2759,0.2248,0.1779,0.1696,0.1433,0.1063,0.0575,0.0053,-0.1149,-0.3529,-0.4237,-0.5308,-0.7289,-0.7478,-0.7492,-0.7527,-0.7665,-0.7821,-0.8038,-0.8968,-0.9659,-1.0052,-1.1176,-1.1886,-1.2043,-1.3676,-1.454,-1.4603,-1.5348,-1.5772,-1.5816,-1.5718,-1.5641,-1.5745,-1.569,-1.5613,-1.5613,-1.5718,-1.5745,-1.5745,-1.5805,-1.5816,-1.5816,-1.5816,-1.5816,-1.5816,0.0,0.0,0.0,0.0,0.0,0.8996,0.912,0.901,0.8962,0.9082,0.9231,0.9302,0.9302,0.9302,0.9193,0.891,0.862,0.0,0.0,0.0,0.0,0.0,0.0,0.0,0.0,0.0,0.6129,0.5787,0.5688,0.5382,0.0,0.0,0.4749,0.4623,0.0,0.0,0.0,0.0,0.0,0.0,0.0,0.0,0.0,0.0,0.0,0.0,0.0,0.0,0.0,0.0,0.0,0.4419,0.4689,0.4528,0.4088,0.3511,0.3631,0.3882,0.3744,0.3735,0.3803,0.3873,0.3726,0.3543,0.3457,0.3281,0.3069,0.3017,0.2677,0.2592,0.2999,0.2486,0.2057,0.2242,0.1999,0.1594,0.1059,0.088,-0.016,-0.2706,-0.3464,-0.4592,-0.674,-0.7289,-0.7521,-0.757,-0.7698,-0.7733,-0.7714,-0.8135,-0.8803,-0.9581,-1.0698,-1.1523,-1.1863,-1.3568,-1.4504,-1.4607,-1.5262,-1.569,-1.5761,-1.5718,-1.5673,-1.5761,-1.5805,-1.5805,-1.5761,-1.5805,-1.5816,-1.5816,-1.5816,-1.5816,-1.5816,-1.5816,-1.5816,-1.5816,0.0,0.0,0.0,0.0,0.0,0.0,0.8787,0.8872,0.8962,0.9082,0.9231,0.9302,0.9302,0.9302,0.9302,0.9302,0.9302,0.0,0.0,0.0,0.0,0.0,0.0,0.0,0.0,0.0,0.5643,0.5294,0.5852,0.5843,0.5426,0.6266,0.6476,0.6095,0.0,0.0,0.0,0.0,0.0,0.0,0.0,0.0,0.5421,0.0,0.0,0.0,0.0,0.0,0.0,0.0,0.0,0.0,0.0,0.6392,0.5854,0.4655,0.4404,0.4557,0.4736,0.4859,0.5001,0.5093,0.4595,0.4076,0.3999,0.3506,0.3092,0.3013,0.3006,0.3016,0.3094,0.3077,0.2894,0.2388,0.2327,0.2176,0.1562,0.1069,0.0312,-0.0968,-0.2611,-0.4142,-0.5553,-0.6843,-0.757,-0.763,-0.7733,-0.7777,-0.7714,-0.7714,-0.8319,-0.9581,-1.0755,-1.1767,-1.2463,-1.3674,-1.4381,-1.4489,-1.4975,-1.5347,-1.557,-1.5445,-1.5461,-1.5586,-1.5761,-1.5745,-1.5586,-1.5761,-1.5816,-1.5816,-1.5816,-1.5816,-1.5816,-1.5816,-1.5816,-1.5816,0.0,0.0,0.0,0.0,0.0,0.0,0.0,0.8872,0.8962,0.9082,0.9231,0.9302,0.9302,0.9302,0.9302,0.9302,0.9302,0.0,0.0,0.0,0.0,0.0,0.0,0.0,0.0,0.7348,0.6985,0.6653,0.6895,0.6766,0.6308,0.656,0.6476,0.6095,0.6389,0.6263,0.0,0.0,0.0,0.0,0.6011,0.6137,0.6305,0.0,0.0,0.0,0.0,0.0,0.0,0.0,0.0,0.0,0.0,0.0,0.0,0.5739,0.5154,0.4729,0.4571,0.4582,0.4664,0.4724,0.4606,0.4413,0.4406,0.4266,0.4128,0.4088,0.3796,0.3564,0.3575,0.33,0.3022,0.2888,0.2857,0.2685,0.2127,0.1642,0.0745,-0.093,-0.2682,-0.4559,-0.6694,-0.6589,-0.6711,-0.7511,-0.7741,-0.7763,-0.7665,-0.7657,-0.7836,-0.8251,-0.9015,-0.9933,-1.0966,-1.195,-1.2874,-1.3674,-1.4445,-1.4785,-1.4851,-1.5222,-1.5461,-1.557,-1.5613,-1.5718,-1.5761,-1.5805,-1.5816,-1.5816,-1.5816,-1.5816,-1.5816,-1.5816,-1.5816,-1.5816,0.0,0.0,0.0,0.0,0.0,0.0,0.0,0.8807,0.8892,0.9017,0.913,0.9258,0.9302,0.9302,0.9323,0.9367,0.9372,0.0,0.0,0.0,0.0,0.0,0.0,0.0,0.8002,0.7689,0.7377,0.698,0.7255,0.7143,0.6727,0.7063,0.7017,0.6598,0.7017,0.6975,0.0,0.0,0.0,0.0,0.7021,0.7063,0.7227,0.0,0.0,0.0,0.0,0.0,0.0,0.0,0.0,0.0,0.0,0.0,0.0,0.0,0.5879,0.529,0.5036,0.5022,0.5115,0.5233,0.5027,0.4851,0.4889,0.4712,0.459,0.4577,0.4337,0.4053,0.3817,0.3588,0.3359,0.3128,0.311,0.295,0.239,0.1872,0.0866,-0.1114,-0.2386,-0.3859,-0.5841,-0.5876,-0.605,-0.6851,-0.7411,-0.7728,-0.7575,-0.763,-0.7616,-0.7535,-0.8225,-0.8973,-0.9938,-1.1013,-1.1878,-1.2556,-1.3565,-1.4041,-1.4075,-1.4725,-1.5087,-1.5209,-1.5493,-1.5674,0.0,-1.5805,-1.5816,-1.5816,-1.5816,-1.5816,-1.5816,-1.5816,-1.5843,-1.5809,0.0,0.0,0.0,0.0,0.0,0.0,0.0,0.8727,0.8812,0.8903,0.9022,0.9141,0.9291,0.9302,0.9351,0.9465,0.0,0.0,0.0,0.0,0.0,0.0,0.0,0.0,0.7603,0.7293,0.6974,0.6573,0.7139,0.7219,0.6804,0.7684,0.7855,0.7436,0.7897,0.7855,0.7436,0.0,0.0,0.0,0.7646,0.7729,0.0,0.0,0.0,0.0,0.0,0.0,0.0,0.0,0.0,0.0,0.0,0.0,0.0,0.0,0.0,0.0,0.0,0.5976,0.6093,0.6207,0.5774,0.5335,0.5433,0.4993,0.0,0.4703,0.4668,0.448,0.4006,0.389,0.371,0.325,0.3178,0.3006,0.2399,0.1906,0.0824,-0.1305,-0.1628,-0.2168,-0.3457,-0.4756,-0.5599,-0.5712,-0.6955,-0.7684,-0.757,-0.7621,-0.7535,-0.7478,-0.8189,-0.8785,-0.9355,-1.0608,-1.1262,-1.1227,-1.2533,-1.3175,-1.3261,-1.3911,-1.4337,-1.4564,-1.5209,-1.557,-1.5603,-1.5772,-1.5816,-1.5816,-1.5816,-1.5816,-1.5816,-1.5816,-1.5825,-1.5862,0.0,0.0,0.0,0.0,0.0,0.0,0.0,0.0,0.0,0.0,0.9022,0.9141,0.9291,0.9302,0.9313,0.0,0.0,0.0,0.0,0.0,0.0,0.0,0.0,0.0,0.8505,0.7873,0.7493,0.7413,0.7672,0.7718,0.7635,0.7948,0.7855,0.7436,0.7897,0.8022,0.7935,0.7813,0.0,0.0,0.798,0.8018,0.0,0.0,0.0,0.0,0.7939,0.7939,0.0,0.0,0.0,0.0,0.0,0.0,0.0,0.0,0.6615,0.6404,0.5764,0.0,0.5808,0.5835,0.5756,0.5669,0.0,0.5688,0.5641,0.5654,0.5405,0.5101,0.4958,0.4347,0.3786,0.3708,0.3367,0.2933,0.2397,0.1956,0.1142,-0.0291,-0.0059,-0.0654,-0.2847,-0.3831,-0.4694,-0.5612,-0.6898,-0.7621,-0.7508,-0.75,-0.7492,-0.7478,-0.7713,-0.813,-0.8712,-0.9551,-1.0198,-1.0645,-1.2026,-1.2659,-1.2614,-1.3261,-1.3907,-1.4562,-1.4741,-1.5115,-1.5772,-1.5805,-1.5816,-1.5816,-1.5816,-1.5816,-1.5816,-1.5816,-1.5825,-1.5907,0.0,0.0,0.0,0.0,0.0,0.0,0.0,0.0,0.0,0.0,0.0,0.9082,0.9285,0.9302,0.0,0.0,0.0,0.0,0.0,0.0,0.0,0.0,0.0,0.8817,0.8817,0.8089,0.7704,0.7704,0.7803,0.7852,0.7896,0.7983,0.7902,0.7729,0.798,0.8081,0.8007,0.8257,0.8357,0.8399,0.8608,0.0,0.0,0.0,0.0,0.0,0.8441,0.8357,0.0,0.8148,0.8102,0.8102,0.0,0.0,0.0,0.0,0.6685,0.6527,0.5679,0.5544,0.5619,0.5646,0.5723,0.5755,0.5737,0.5815,0.5946,0.6003,0.5803,0.5548,0.5335,0.4673,0.4108,0.3889,0.3246,0.2546,0.2083,0.185,0.1452,0.0823,0.0834,0.0358,-0.0996,-0.2241,-0.3489,-0.4711,-0.6032,-0.6979,-0.7478,-0.7478,-0.7478,-0.7478,-0.7513,-0.769,-0.801,-0.9015,-0.9662,-0.9945,-1.1314,-1.1988,-1.1898,-1.2637,-1.3338,-1.4105,-1.4401,-1.5031,-1.5816,-1.5816,-1.5816,-1.5816,-1.5816,-1.5816,-1.5816,-1.5816,-1.5869,-1.5978,0.0,0.0,0.0,0.0,0.0,0.0,0.0,0.0,0.0,0.0,0.0,0.0,0.0,0.0,0.0,0.0,0.0,0.0,0.0,0.0,0.0,0.0,0.9143,0.8686,0.87,0.7958,0.7564,0.7564,0.7746,0.784,0.7872,0.79,0.8036,0.819,0.8273,0.8232,0.8164,0.8619,0.8822,0.8822,0.924,0.0,0.0,0.0,0.0,0.0,0.0,0.0,0.0,0.8311,0.819,0.819,0.8102,0.0,0.0,0.0,0.0,0.0,0.572,0.5407,0.5305,0.5542,0.5643,0.5706,0.5714,0.5737,0.5815,0.5965,0.6,0.5889,0.5463,0.4952,0.4434,0.4015,0.3046,0.2269,0.2019,0.1899,0.1928,0.2053,0.1539,0.1127,0.1059,-0.0647,-0.2238,-0.3415,-0.4882,-0.6121,-0.7184,-0.7419,-0.7478,-0.7478,-0.7478,-0.7478,-0.7478,-0.8828,-0.9475,-0.9413,-1.0785,-1.1384,-1.1318,-1.2018,-1.2716,-1.3446,-1.4144,-1.4912,-1.5633,-1.5755,-1.5816,-1.5816,-1.5816,-1.5816,-1.5816,-1.5816,-1.5896,-1.6048,0.0,0.0,0.0,0.0,0.0,0.0,0.0,0.0,0.0,0.0,0.0,0.0,0.0,0.0,0.0,0.0,0.0,0.0,0.0,0.0,0.0,0.9823,0.8722,0.8186,0.8301,0.7463,0.704,0.704,0.7557,0.7807,0.7823,0.7974,0.8261,0.8612,0.9031,0.9188,0.9175,0.9272,0.9281,0.9281,0.9365,0.0,0.0,0.0,0.0,0.0,0.0,0.0,0.0,0.8707,0.8612,0.8529,0.819,0.0,0.0,0.0,0.0,0.0,0.6137,0.5148,0.4427,0.5308,0.5613,0.5698,0.5706,0.5749,0.5791,0.581,0.5943,0.597,0.5884,0.5166,0.4588,0.4482,0.3331,0.2648,0.3159,0.2873,0.281,0.3354,0.2865,0.2296,0.1693,0.0,-0.1355,-0.2121,-0.4358,-0.5768,-0.5945,-0.6946,-0.7478,-0.7478,-0.7478,-0.7478,-0.7478,-0.878,-0.9424,-0.9413,-1.0785,-1.1412,-1.1404,-1.163,-1.215,-1.2833,-1.3569,-1.4233,-1.5021,-1.5566,-1.5816,-1.5816,-1.5816,-1.5816,-1.5816,-1.5816,-1.5842,-1.5967,0.0,0.0,0.0,0.0,0.0,0.0,0.0,0.0,0.0,0.0,0.0,0.0,0.0,0.0,0.0,0.0,0.0,0.0,0.0,0.0,0.9462,0.9185,0.843,0.8168,0.8501,0.7681,0.7354,0.7638,0.7724,0.8057,0.8607,0.875,0.8874,0.9031,0.9295,0.9373,0.9367,0.967,0.9783,0.9778,0.0,0.0,0.0,0.0,0.0,0.0,0.0,0.0,0.0,0.0,0.8652,0.8612,0.8232,0.0,0.0,0.0,0.0,0.0,0.6221,0.5463,0.4901,0.548,0.4857,0.4124,0.415,0.4162,0.4405,0.4995,0.5169,0.5392,0.6014,0.5314,0.4409,0.3628,0.3233,0.2986,0.3038,0.3112,0.3298,0.3677,0.3125,0.2622,0.2342,0.0941,-0.0353,-0.1296,-0.2766,-0.3945,-0.4652,-0.5827,-0.6535,-0.6535,-0.7184,-0.7657,-0.8063,-0.8941,-0.9413,-0.9413,-1.0785,-1.1425,-1.1425,-1.1572,-1.2024,-1.273,-1.3083,-1.38,-1.4832,-1.5143,-1.5444,-1.5816,-1.5816,-1.5816,-1.5832,-1.5825,-1.588,-1.5951,0.0,0.0,0.0,0.0,0.0,0.0,0.0,0.0,0.0,0.0,0.0,0.0,0.0,0.0,0.0,0.0,0.0,0.0,0.0,0.9443,0.9292,0.8878,0.8445,0.8238,0.8345,0.7799,0.7727,0.8177,0.8079,0.8473,0.9329,0.9494,0.9525,0.9494,0.966,0.9692,0.9659,1.0076,1.0237,1.0278,0.0,0.0,0.0,0.0,0.0,0.0,0.0,0.0,0.0,0.0,0.0,0.0,0.0,0.0,0.0,0.7687,0.7227,0.6769,0.6347,0.5761,0.5241,0.533,0.4402,0.3509,0.3572,0.3617,0.3893,0.4758,0.4724,0.4874,0.6003,0.5375,0.4295,0.2984,0.3151,0.3345,0.2982,0.3275,0.3589,0.3692,0.3297,0.2905,0.2825,0.1767,0.0707,-0.0412,-0.1355,-0.2297,-0.3297,-0.4824,-0.5709,-0.5709,-0.6888,-0.7834,-0.8477,-0.9117,-0.9472,-0.9652,-1.0825,-1.1404,-1.1437,-1.1592,-1.1985,-1.2496,-1.271,-1.3476,-1.4582,-1.471,-1.521,-1.5816,-1.5816,-1.5816,-1.5832,-1.588,-1.5923,-1.5951,0.0,0.0,0.0,0.0,0.0,0.0,0.0,0.0,0.0,0.0,0.0,0.0,0.0,0.0,0.0,0.0,0.0,0.0,0.0,0.9318,0.939,0.9596,0.9128,0.8285,0.7056,0.733,0.757,0.7739,0.8585,0.9142,0.9392,0.9861,1.0065,1.006,1.044,1.0607,1.0601,1.0648,1.0654,1.0654,1.0695,0.0,0.0,0.0,0.0,0.0,0.0,0.0,0.0,0.0,0.0,0.0,0.0,0.0,0.8102,0.8064,0.7729,0.7227,0.6769,0.5718,0.4644,0.4299,0.4865,0.5536,0.58,0.5866,0.595,0.6153,0.5367,0.4989,0.6024,0.5433,0.4478,0.3525,0.3491,0.3611,0.365,0.3657,0.3723,0.3761,0.3764,0.3474,0.2887,0.2238,0.1532,0.0825,-0.0884,-0.1944,-0.2003,-0.4358,-0.5709,-0.5709,-0.6888,-0.7834,-0.8477,-0.9117,-0.971,-1.0352,-1.1001,-1.1339,-1.1425,-1.1531,-1.1677,-1.182,-1.2526,-1.3178,-1.3914,-1.4521,-1.521,-1.5816,-1.5816,-1.5816,-1.5832,-1.588,-1.5923,-1.5967,0.0,0.0,0.0,0.0,0.0,0.0,0.0,0.0,0.0,0.0,0.0,0.0,0.0,0.0,0.0,0.0,0.0,0.0,0.0,0.8899,0.8639,0.8535,0.8149,0.7633,0.69,0.7511,0.7933,0.8188,0.9483,1.0107,1.0195,1.0404,1.0487,1.0487,1.0612,1.0695,1.0695,1.0695,1.0695,1.0695,1.0695,1.0695,0.0,0.0,0.0,0.0,0.0,0.0,0.0,0.0,0.9059,0.9031,0.8315,0.8102,0.8102,0.8102,0.7562,0.6937,0.6727,0.5486,0.4404,0.497,0.4991,0.479,0.4348,0.4288,0.4475,0.5235,0.5087,0.4953,0.5327,0.4565,0.3803,0.3525,0.354,0.3628,0.3739,0.3705,0.3688,0.3737,0.3744,0.3627,0.3393,0.2468,0.1767,0.1532,0.0118,-0.0707,-0.0707,-0.2356,-0.3709,-0.4476,-0.5709,-0.7235,-0.9058,-0.9296,-0.9938,-1.0934,-1.1169,-1.1363,-1.151,-1.1599,-1.1645,-1.1784,-1.2062,-1.2806,-1.3852,-1.4097,-1.4832,-1.5816,-1.5816,-1.586,-1.5869,-1.5907,-1.6021,-1.6163,0.0,0.0,0.0,0.0,0.0,0.0,0.0,0.0,0.0,0.0,0.0,0.0,0.0,0.0,0.0,0.0,0.0,0.0,0.8904,0.8394,0.7929,0.7622,0.7536,0.7285,0.6863,0.762,0.8228,0.8684,1.004,1.0674,1.0683,1.0679,1.0695,1.0695,1.0695,1.0695,1.0695,1.0695,1.0695,1.0695,1.0695,1.0695,0.0,0.0,0.0,0.0,0.0,0.0,0.0,0.0,0.9096,0.9072,0.8315,0.8102,0.8102,0.8102,0.752,0.6895,0.6727,0.5685,0.4765,0.5087,0.5026,0.4627,0.3839,0.3976,0.4478,0.5261,0.542,0.522,0.456,0.4145,0.3807,0.3568,0.3565,0.3636,0.373,0.3853,0.3825,0.3705,0.3886,0.389,0.3726,0.2807,0.2174,0.2179,0.1001,0.0295,0.0295,-0.1119,-0.2475,-0.3768,-0.5237,-0.7059,-0.9355,-0.9593,-1.0231,-1.129,-1.1318,-1.1416,-1.1623,-1.1623,-1.1666,-1.1772,-1.1772,-1.257,-1.3791,-1.3791,-1.4587,-1.5816,-1.5816,-1.5825,-1.5923,-1.5967,-1.6108,-1.6288,0.0,0.0,0.0,0.0,0.0,0.0,0.0,0.0,0.0,0.0,0.0,0.0,0.0,0.0,0.0,0.0,0.0,0.0,0.8104,0.7783,0.746,0.7224,0.749,0.7394,0.6815,0.7586,0.8349,0.9083,1.0164,1.0672,1.0599,1.0677,1.0695,1.0695,1.0695,1.0695,1.0695,1.0695,1.0695,1.0695,1.0695,1.0695,1.0695,0.0,0.0,0.0,0.0,0.0,0.0,0.0,0.8696,0.8654,0.8232,0.8102,0.8102,0.8102,0.7771,0.7311,0.6811,0.6392,0.5781,0.444,0.4975,0.5618,0.4968,0.5702,0.6512,0.669,0.6583,0.5834,0.3766,0.4263,0.4651,0.3667,0.3558,0.3645,0.3677,0.4167,0.4273,0.3734,0.4252,0.4384,0.3781,0.3144,0.2805,0.2766,0.159,0.0884,0.0884,-0.0884,-0.2475,-0.3768,-0.559,-0.7473,-0.9355,-1.0055,-1.0708,-1.129,-1.1384,-1.1478,-1.1623,-1.1623,-1.1666,-1.1772,-1.1772,-1.257,-1.3791,-1.3791,-1.4587,-1.5816,-1.5816,-1.5825,-1.594,-1.6065,-1.619,-1.6304,0.0,0.0,0.0,0.0,0.0,0.0,0.0,0.0,0.0,0.0,0.0,0.0,0.0,0.0,0.0,0.0,0.0,0.0,0.825,0.7055,0.6443,0.6707,0.6362,0.6215,0.6358,0.7322,0.8335,0.9462,0.988,1.0264,1.0599,1.0631,1.0655,1.0695,1.0695,1.0695,1.0695,1.0695,1.0695,1.0695,1.0695,1.0695,1.0695,0.0,0.0,0.0,0.0,0.0,0.0,0.0,0.0,0.0,0.8315,0.8102,0.8102,0.8102,0.752,0.6895,0.6727,0.5722,0.476,0.514,0.51,0.5122,0.5703,0.6198,0.6411,0.617,0.5446,0.4714,0.4088,0.3596,0.3332,0.3463,0.352,0.3548,0.3699,0.382,0.3802,0.3705,0.3868,0.3922,0.3723,0.3161,0.2644,0.2179,0.1355,0.0707,0.0295,-0.0236,-0.1532,-0.3709,-0.4765,-0.6587,-0.9355,-1.0055,-1.0708,-1.129,-1.1384,-1.1478,-1.1623,-1.1625,-1.1719,-1.1772,-1.1772,-1.257,-1.3852,-1.4832,-1.5444,-1.5832,-1.5842,-1.5951,-1.6065,-1.619,-1.6315,-1.6429,0.0,0.0,0.0,0.0,0.0,0.0,0.0,0.0,0.0,0.0,0.941,0.9503,0.0,0.0,0.0,0.0,0.0,0.0,0.7325,0.6217,0.5643,0.5823,0.5787,0.5911,0.6245,0.7005,0.7848,0.8751,0.9457,0.9966,1.0283,1.049,1.0623,1.0695,1.0695,1.0695,1.0695,1.0695,1.0695,1.0695,1.0695,1.0695,1.0695,0.0,0.0,0.0,0.0,0.0,0.0,0.0,0.0,0.0,0.8357,0.8102,0.8064,0.7897,0.7291,0.6691,0.6551,0.5621,0.4832,0.5127,0.5211,0.5403,0.5988,0.6195,0.6154,0.5685,0.5035,0.4503,0.432,0.3746,0.33,0.3495,0.3531,0.3594,0.3677,0.4041,0.42,0.3759,0.4095,0.4211,0.3723,0.3393,0.2935,0.2297,0.1649,0.1001,0.0412,0.0118,-0.1296,-0.4062,-0.4694,-0.657,-0.9769,-1.0381,-1.0903,-1.129,-1.1384,-1.1478,-1.1623,-1.1657,-1.1751,-1.1833,-1.2381,-1.3056,-1.3914,-1.5271,-1.5816,-1.5832,-1.588,-1.5994,-1.6119,-1.6244,-1.6375,-1.6472,0.0,0.0,0.0,0.0,0.0,0.0,0.0,0.0,0.0,0.0,0.9385,0.9509,0.0,0.0,0.0,0.0,0.0,0.0,0.0,0.5405,0.5064,0.4826,0.5569,0.6055,0.6232,0.6591,0.7021,0.7447,0.8924,0.9713,0.9814,1.0283,1.0606,1.0695,1.0654,1.0654,1.0695,1.0654,1.0654,1.0695,1.0695,1.0695,1.0695,1.0695,0.0,0.0,0.0,0.0,0.0,0.0,0.0,0.0,0.8357,0.8102,0.8018,0.7604,0.7155,0.6722,0.6367,0.6007,0.5557,0.4798,0.5387,0.6101,0.5813,0.5755,0.5618,0.5209,0.5069,0.4895,0.4401,0.4291,0.4066,0.3596,0.3625,0.3657,0.3688,0.4711,0.5072,0.3911,0.478,0.4965,0.3842,0.373,0.3447,0.2764,0.2238,0.1589,0.0882,0.0294,-0.147,-0.458,-0.5188,-0.7053,-1.0333,-1.0909,-1.1204,-1.1278,-1.1372,-1.1478,-1.1623,-1.1657,-1.1751,-1.1898,-1.3178,-1.3725,-1.3914,-1.5204,-1.5755,-1.5843,-1.5896,-1.6021,-1.6135,-1.626,-1.6375,-1.6472,0.0,0.0,0.0,0.0,0.0,0.0,0.0,0.0,0.0,0.0,0.0,0.0,0.0,0.0,0.0,0.0,0.0,0.0,0.0,0.5317,0.4852,0.4792,0.5048,0.5376,0.5805,0.5926,0.6317,0.7021,0.8041,0.897,0.9809,0.9915,1.0244,1.0695,1.0362,1.0404,1.0695,1.0362,1.0404,1.0695,1.0695,1.0695,1.0695,1.0695,1.0695,0.0,0.0,0.0,0.0,0.0,0.0,0.0,0.8357,0.8102,0.806,0.798,0.7408,0.6807,0.6752,0.6292,0.574,0.5712,0.5766,0.5699,0.5265,0.4908,0.4621,0.4458,0.4462,0.435,0.3802,0.3747,0.3676,0.3549,0.3959,0.4333,0.4314,0.4995,0.5253,0.452,0.4699,0.46,0.3875,0.3761,0.3284,0.216,0.1996,0.1406,0.0231,0.0058,-0.1395,-0.4509,-0.5189,-0.7031,-1.0157,-1.085,-1.1229,-1.1192,-1.1351,-1.1478,-1.1623,-1.1657,-1.1751,-1.1833,-1.2683,-1.3292,-1.3852,-1.471,-1.5374,-1.5896,-1.6021,-1.6146,-1.626,-1.6385,-1.6509,-1.6472,0.0,0.0,0.0,0.0,0.0,0.0,0.0,0.0,0.0,0.0,0.0,0.0,0.0,0.0,0.0,0.0,0.0,0.0,0.0,0.5069,0.4819,0.4839,0.4957,0.5114,0.5421,0.5618,0.5898,0.6332,0.72,0.8141,0.9169,0.937,0.9687,1.007,0.9861,0.9861,1.007,0.9861,0.9903,1.0112,1.032,1.0404,1.0445,1.0612,1.0695,1.0654,1.0487,0.0,0.0,0.0,0.0,0.0,0.0,0.0,0.8064,0.7813,0.745,0.7081,0.6754,0.6431,0.6207,0.6217,0.6011,0.5635,0.5136,0.4621,0.423,0.3947,0.3932,0.3864,0.355,0.3538,0.3569,0.3565,0.4083,0.4502,0.4484,0.5337,0.5711,0.5169,0.512,0.4897,0.4274,0.3996,0.3401,0.2375,0.2041,0.1456,0.046,0.0173,-0.1271,-0.408,-0.4977,-0.6805,-0.9647,-1.0575,-1.1078,-1.1221,-1.1257,-1.1392,-1.1623,-1.1698,-1.1792,-1.1837,-1.2867,-1.348,-1.3852,-1.4888,-1.5566,-1.594,-1.6119,-1.6233,-1.6304,-1.6429,-1.6472,-1.6472,0.0,0.0,0.0,0.0,0.0,0.0,0.0,0.0,0.0,0.0,0.0,0.0,0.0,0.0,0.0,0.0,0.0,0.0,0.0,0.0,0.0,0.4907,0.5004,0.5095,0.5095,0.5416,0.5655,0.5814,0.6543,0.7389,0.8406,0.8824,0.9139,0.9407,0.9323,0.9323,0.9407,0.9323,0.9323,0.9449,0.982,0.9986,1.0028,1.0362,1.0487,1.0445,1.0112,0.9986,0.9866,0.8989,0.0,0.0,0.0,0.0,0.8018,0.7646,0.7496,0.7356,0.67,0.6528,0.6518,0.6528,0.6142,0.567,0.5153,0.4636,0.4151,0.3625,0.352,0.3482,0.3478,0.3489,0.35,0.3587,0.4208,0.4665,0.4646,0.573,0.6334,0.5788,0.5745,0.5459,0.4763,0.4208,0.3616,0.2758,0.2197,0.1619,0.0916,0.0344,-0.1147,-0.3606,-0.4773,-0.6589,-0.9151,-1.0348,-1.0971,-1.1143,-1.1262,-1.141,-1.1572,-1.1751,-1.1772,-1.1898,-1.3117,-1.3664,-1.3923,-1.5191,-1.5811,-1.5978,-1.6206,-1.6304,-1.6331,-1.6429,-1.6472,-1.6472,0.0,0.0,0.0,0.0,0.0,0.0,0.0,0.0,0.0,0.0,0.6861,0.6732,0.0,0.0,0.0,0.0,0.0,0.0,0.0,0.0,0.0,0.4967,0.4985,0.5033,0.5033,0.5072,0.5465,0.621,0.6396,0.6948,0.792,0.8408,0.8921,0.9365,0.8989,0.9031,0.9365,0.8947,0.9031,0.9407,0.949,0.949,0.949,0.9574,0.9569,0.9569,0.9532,0.949,0.9407,0.8863,0.8696,0.0,0.0,0.0,0.8102,0.8018,0.775,0.7431,0.7034,0.6592,0.6299,0.6459,0.6142,0.5679,0.5192,0.4689,0.4128,0.3595,0.3495,0.3506,0.3482,0.3489,0.35,0.3587,0.4544,0.5275,0.5281,0.6388,0.693,0.6265,0.625,0.5875,0.4722,0.4553,0.4023,0.2788,0.2121,0.1545,0.0958,0.034,-0.1135,-0.3544,-0.4774,-0.6569,-0.8995,-1.029,-1.0943,-1.1045,-1.1363,-1.1591,-1.1572,-1.1751,-1.1772,-1.1833,-1.2618,-1.324,-1.3862,-1.4703,-1.5425,-1.6092,-1.6233,-1.6358,-1.6509,-1.6472,-1.6472,-1.6472,0.0,0.0,0.0,0.0,0.0,0.0,0.0,0.0,0.0,0.0,0.0,0.5692,0.0,0.0,0.0,0.0,0.0,0.0,0.0,0.0,0.0,0.498,0.5055,0.5071,0.5071,0.5272,0.5588,0.5983,0.6571,0.707,0.7475,0.7777,0.8194,0.865,0.8441,0.8483,0.865,0.8441,0.8483,0.8692,0.8692,0.8345,0.7961,0.8709,0.8722,0.834,0.8839,0.8989,0.8947,0.8524,0.8357,0.8315,0.8148,0.0,0.0,0.0,0.7963,0.7738,0.7297,0.6693,0.624,0.6458,0.6165,0.5675,0.5167,0.4636,0.4148,0.3602,0.3502,0.3509,0.3485,0.3489,0.35,0.3587,0.4597,0.5383,0.5383,0.6469,0.7173,0.6868,0.655,0.5996,0.5196,0.4814,0.4232,0.3275,0.233,0.1705,0.1405,0.0507,-0.0789,-0.2523,-0.3736,-0.5519,-0.7961,-0.9184,-1.021,-1.1024,-1.1339,-1.151,-1.1623,-1.2067,-1.209,-1.1837,-1.2929,-1.3541,-1.3862,-1.5083,-1.581,-1.6119,-1.6315,-1.6429,-1.6472,-1.6472,-1.6472,-1.6472,0.0,0.0,0.0,0.0,0.0,0.0,0.0,0.0,0.0,0.0,0.0,0.0,0.0,0.0,0.0,0.0,0.0,0.0,0.0,0.0,0.0,0.4709,0.4947,0.5011,0.4931,0.5328,0.5655,0.5872,0.6663,0.7074,0.7222,0.7327,0.7615,0.7929,0.7947,0.7951,0.7971,0.8072,0.8035,0.7929,0.7673,0.7088,0.6469,0.7493,0.7469,0.7017,0.7895,0.8294,0.8349,0.803,0.7993,0.8135,0.811,0.8102,0.0,0.0,0.0,0.7851,0.7459,0.6845,0.6254,0.6167,0.6078,0.5795,0.4993,0.4636,0.4368,0.381,0.3605,0.3509,0.3485,0.3489,0.35,0.3587,0.4597,0.5383,0.5383,0.6444,0.7244,0.7294,0.6665,0.6042,0.5543,0.4887,0.4257,0.365,0.2482,0.1807,0.1796,0.0672,-0.0504,-0.1516,-0.283,-0.4603,-0.6951,-0.8612,-0.9985,-1.1024,-1.1318,-1.1498,-1.1623,-1.24,-1.25,-1.2136,-1.3489,-1.3989,-1.3962,-1.5467,-1.6119,-1.6173,-1.6385,-1.6472,-1.6472,-1.6472,-1.6472,-1.6472,0.0,0.0,0.0,0.0,0.0,0.0,0.0,0.0,0.0,0.0,0.0,0.0,0.4323,0.4008,0.372,0.3675,0.371,0.0,0.0,0.0,0.0,0.3885,0.4593,0.0,0.4441,0.4831,0.5488,0.6347,0.6462,0.6781,0.7308,0.7353,0.7439,0.751,0.7474,0.7481,0.7549,0.7933,0.7861,0.7429,0.6482,0.5839,0.5461,0.5528,0.5544,0.5626,0.6483,0.7109,0.7545,0.7463,0.7784,0.8174,0.8131,0.8102,0.8102,0.0,0.0,0.0,0.7555,0.7047,0.6288,0.5488,0.5884,0.607,0.4648,0.4687,0.4918,0.4366,0.3862,0.3509,0.3485,0.3489,0.35,0.3587,0.4597,0.5383,0.5383,0.6444,0.7175,0.7183,0.663,0.6009,0.5439,0.4793,0.4174,0.3643,0.247,0.1796,0.1796,0.0668,-0.0278,-0.0954,-0.2595,-0.441,-0.6333,-0.9384,-1.0955,-1.1024,-1.1384,-1.1563,-1.1632,-1.2409,-1.2806,-1.2806,-1.4164,-1.4463,-1.4072,-1.5493,-1.6173,-1.6288,-1.6418,-1.6472,-1.6472,-1.6472,-1.6472,-1.6472,0.0,0.0,0.0,0.0,0.0,0.0,0.0,0.0,0.0,0.0,0.0,0.0,0.0,0.386,0.3737,0.3721,0.3735,0.0,0.0,0.0,0.0,0.3811,0.4088,0.4168,0.4011,0.4723,0.5249,0.555,0.618,0.6622,0.6862,0.6648,0.657,0.6638,0.7212,0.7661,0.7944,0.7785,0.7589,0.7317,0.5796,0.4752,0.4164,0.4769,0.4671,0.4421,0.6188,0.6939,0.7085,0.7357,0.7542,0.7726,0.803,0.8102,0.8102,0.8102,0.783,0.7509,0.7643,0.7331,0.6849,0.6345,0.6044,0.5714,0.5241,0.4526,0.4026,0.423,0.3828,0.3482,0.3513,0.3549,0.3576,0.3587,0.4597,0.5383,0.5383,0.6444,0.7175,0.7175,0.6959,0.6388,0.5489,0.5118,0.4612,0.3643,0.2861,0.2183,0.1838,0.0999,0.0111,-0.0883,-0.1856,-0.3762,-0.678,-0.9577,-1.0943,-1.0943,-1.1298,-1.1708,-1.2141,-1.2992,-1.342,-1.3541,-1.4832,-1.5088,-1.464,-1.568,-1.6179,-1.6304,-1.6429,-1.6472,-1.6472,-1.6472,-1.6472,-1.6472,0.0,0.0,0.0,0.0,0.0,0.0,0.0,0.0,0.4092,0.4149,0.0,0.0,0.0,0.0,0.3398,0.3398,0.3398,0.3392,0.3377,0.3507,0.3527,0.3396,0.3691,0.3779,0.3617,0.4443,0.4973,0.5172,0.5922,0.6349,0.6445,0.6199,0.6107,0.6174,0.66,0.7021,0.7302,0.7131,0.6988,0.6672,0.48,0.3689,0.3253,0.3879,0.3782,0.3569,0.5728,0.6373,0.6239,0.6522,0.6499,0.6421,0.6989,0.752,0.7897,0.8064,0.7895,0.7715,0.7827,0.7589,0.7235,0.6736,0.6253,0.5839,0.5661,0.4723,0.3976,0.4402,0.3962,0.3518,0.3483,0.3527,0.3562,0.3572,0.4424,0.5157,0.5383,0.6281,0.6951,0.7175,0.6959,0.6499,0.5771,0.5284,0.4668,0.3979,0.3141,0.2458,0.1829,0.1215,0.0274,-0.1139,-0.2277,-0.4238,-0.7047,-0.9605,-1.0877,-1.0943,-1.1237,-1.1751,-1.2445,-1.3298,-1.385,-1.4161,-1.5306,-1.5478,-1.5057,-1.5758,-1.6206,-1.6358,-1.6445,-1.6472,-1.6472,-1.6472,-1.6472,-1.6472,0.0,0.0,0.0,0.0,0.0,0.0,0.0,0.0,0.3719,0.3764,0.0,0.0,0.0,0.0,0.0,0.2602,0.2602,0.2588,0.2519,0.294,0.3,0.2602,0.3397,0.3663,0.3173,0.3984,0.4693,0.5253,0.5686,0.5965,0.6095,0.6095,0.6129,0.6151,0.5682,0.5544,0.5599,0.5995,0.5987,0.5478,0.3482,0.2708,0.2821,0.2795,0.2818,0.3134,0.5005,0.5373,0.4955,0.4951,0.465,0.4387,0.5173,0.6331,0.7482,0.7939,0.8106,0.8106,0.0,0.0,0.0,0.6538,0.652,0.6484,0.5796,0.5211,0.4832,0.4971,0.421,0.3508,0.351,0.348,0.3509,0.3482,0.4071,0.4709,0.5327,0.5943,0.6505,0.7119,0.6623,0.6219,0.6274,0.5123,0.4393,0.4485,0.3365,0.2458,0.1829,0.1208,0.0054,-0.1653,-0.4003,-0.5839,-0.7101,-0.955,-1.0837,-1.1024,-1.1204,-1.1688,-1.2432,-1.3349,-1.4048,-1.4663,-1.5451,-1.5521,-1.5165,-1.5853,-1.6244,-1.6472,-1.6472,-1.6472,-1.6472,-1.6472,-1.6472,-1.6472,0.0,0.0,0.0,0.0,0.0,0.3934,0.3962,0.3562,0.3294,0.0,0.0,0.0,0.2748,0.2671,0.259,0.259,0.259,0.2586,0.2578,0.2706,0.2722,0.2622,0.2837,0.2882,0.2759,0.3611,0.4153,0.4344,0.5113,0.5515,0.5594,0.5594,0.5603,0.5623,0.554,0.5311,0.5027,0.5196,0.5181,0.4898,0.3029,0.2484,0.2781,0.2473,0.2394,0.2587,0.4171,0.4633,0.4598,0.5253,0.5578,0.5809,0.6271,0.6879,0.7473,0.7581,0.7857,0.8162,0.8162,0.0,0.0,0.0,0.0,0.0,0.6375,0.5439,0.4704,0.4853,0.4428,0.3876,0.3474,0.3449,0.3526,0.348,0.4019,0.468,0.5321,0.5943,0.6505,0.7119,0.6623,0.6053,0.5659,0.4899,0.4227,0.3867,0.3533,0.2899,0.1867,0.0812,-0.0536,-0.2292,-0.4173,-0.5933,-0.7649,-0.9661,-1.0743,-1.0931,-1.1567,-1.2286,-1.3034,-1.3907,-1.4646,-1.5339,-1.5634,-1.5775,-1.5724,-1.6002,-1.6206,-1.6347,-1.6445,-1.6472,-1.6472,-1.6472,-1.6472,-1.6472,0.0,0.0,0.4084,0.3846,0.3666,0.3559,0.3559,0.3176,0.2915,0.0,0.0,0.0,0.2617,0.2632,0.2634,0.2622,0.262,0.2615,0.2602,0.2613,0.2587,0.2605,0.2618,0.2624,0.2624,0.3317,0.369,0.3751,0.4395,0.4867,0.509,0.509,0.5143,0.5126,0.499,0.4684,0.4249,0.4104,0.4245,0.4387,0.2566,0.2242,0.2818,0.238,0.1972,0.179,0.3049,0.3216,0.2917,0.3479,0.4292,0.5179,0.5374,0.6131,0.7049,0.7386,0.7704,0.7999,0.817,0.8362,0.8437,0.8204,0.0,0.0,0.6474,0.5605,0.4819,0.4583,0.4164,0.3811,0.3763,0.3375,0.3187,0.3457,0.3812,0.4239,0.4899,0.5317,0.5775,0.6388,0.6083,0.5742,0.5439,0.4802,0.4298,0.3983,0.3692,0.3052,0.1862,0.0646,-0.0801,-0.2519,-0.4215,-0.6012,-0.7867,-0.9964,-1.1116,-1.1344,-1.2125,-1.2889,-1.3577,-1.4163,-1.4842,-1.5499,-1.569,-1.5738,-1.5869,-1.6037,-1.6179,-1.6304,-1.6429,-1.6472,-1.6472,-1.6472,-1.6472,-1.6472,0.0,0.0,0.3731,0.3658,0.3373,0.3118,0.3122,0.2827,0.2602,0.0,0.2609,0.2622,0.2607,0.2676,0.2682,0.2613,0.261,0.2599,0.2613,0.2595,0.261,0.261,0.2677,0.2692,0.2692,0.3083,0.3333,0.3409,0.3749,0.4165,0.4626,0.4626,0.4654,0.4703,0.4274,0.3891,0.3527,0.3091,0.336,0.3948,0.2198,0.2101,0.2925,0.224,0.1441,0.0821,0.1531,0.1246,0.0578,0.0716,0.187,0.3294,0.3459,0.4604,0.6086,0.7136,0.7403,0.7505,0.8094,0.8336,0.8477,0.8603,0.7956,0.0,0.6393,0.581,0.5222,0.4376,0.3854,0.3686,0.4188,0.3496,0.2999,0.3485,0.3548,0.374,0.4304,0.4454,0.47,0.5321,0.5321,0.5265,0.5327,0.4712,0.432,0.4376,0.3729,0.2871,0.186,0.0539,-0.0964,-0.2645,-0.4387,-0.6173,-0.7976,-1.0395,-1.1746,-1.1997,-1.2767,-1.3449,-1.4098,-1.4338,-1.4748,-1.5391,-1.5516,-1.5701,-1.5798,-1.5994,-1.6163,-1.6288,-1.6418,-1.6472,-1.6472,-1.6472,-1.6472,-1.6472,0.348,0.329,0.315,0.2863,0.2754,0.2727,0.2712,0.2639,0.2611,0.2594,0.266,0.2677,0.2683,0.2688,0.269,0.2684,0.2684,0.2682,0.2675,0.268,0.2684,0.2684,0.269,0.2692,0.2692,0.3149,0.34,0.3409,0.3778,0.4027,0.412,0.412,0.4187,0.4231,0.4146,0.4048,0.3969,0.352,0.3462,0.3544,0.2452,0.2462,0.289,0.1118,0.0292,0.0048,-0.0627,-0.096,-0.0954,0.0283,0.1225,0.2019,0.3133,0.3734,0.4358,0.5984,0.6236,0.629,0.7552,0.7981,0.8193,0.857,0.8311,0.0,0.7204,0.673,0.6157,0.5165,0.4965,0.4856,0.462,0.4442,0.4211,0.3936,0.3963,0.4107,0.437,0.4393,0.4626,0.5268,0.4886,0.4621,0.4653,0.3702,0.3253,0.3758,0.2782,0.2042,0.1805,-0.0217,-0.194,-0.3185,-0.5347,-0.7137,-0.863,-1.0502,-1.1632,-1.1997,-1.3101,-1.3784,-1.4098,-1.4745,-1.5169,-1.5391,-1.5516,-1.57,-1.5907,-1.594,-1.6037,-1.6163,-1.6385,-1.6472,-1.6472,-1.6472,-1.6472,-1.6472,0.3178,0.2944,0.276,0.2635,0.2611,0.259,0.262,0.2637,0.2653,0.2668,0.2683,0.2692,0.2692,0.2692,0.2692,0.2692,0.2692,0.2692,0.2692,0.2692,0.2692,0.2692,0.2692,0.2692,0.2692,0.2945,0.3071,0.3071,0.3239,0.349,0.3701,0.3701,0.3468,0.3122,0.3612,0.3427,0.2806,0.3103,0.3074,0.2732,0.1497,0.1378,0.1695,-0.0393,-0.1526,-0.2011,-0.2549,-0.2777,-0.2609,-0.1305,0.0145,0.1435,0.1602,0.2551,0.3881,0.5206,0.5437,0.5615,0.7121,0.7768,0.8065,0.8335,0.8026,0.0,0.0,0.643,0.6047,0.5117,0.4889,0.4936,0.5035,0.4632,0.4261,0.4362,0.4193,0.4067,0.4175,0.4046,0.4054,0.4346,0.4129,0.3862,0.36,0.2993,0.2656,0.2697,0.1879,0.1377,0.136,-0.0595,-0.238,-0.3855,-0.5813,-0.7617,-0.9291,-1.1137,-1.22,-1.2463,-1.3759,-1.4454,-1.4575,-1.4927,-1.5222,-1.5391,-1.5461,-1.5613,-1.5853,-1.5967,-1.6048,-1.6119,-1.6304,-1.6418,-1.6472,-1.6472,-1.6472,-1.6472,0.2983,0.2709,0.2526,0.2602,0.2586,0.2613,0.2609,0.2676,0.2692,0.2692,0.2482,0.2273,0.2151,0.1898,0.1816,0.1988,0.2032,0.2199,0.2532,0.2574,0.2614,0.2692,0.2692,0.2692,0.2692,0.2692,0.2692,0.2692,0.2692,0.2903,0.3283,0.3283,0.2881,0.2275,0.2946,0.2672,0.1819,0.2471,0.2534,0.2045,0.0475,0.024,0.0635,-0.1587,-0.2894,-0.3688,-0.4179,-0.4255,-0.3985,-0.3015,-0.1032,0.0877,0.0293,0.1514,0.3357,0.4545,0.4762,0.4948,0.6577,0.7411,0.7801,0.7959,0.7615,0.7026,0.0,0.0,0.0,0.5112,0.4847,0.4893,0.54,0.4774,0.4315,0.4644,0.4365,0.4062,0.3861,0.3629,0.3456,0.3475,0.3373,0.316,0.2673,0.2515,0.2235,0.1676,0.1153,0.0825,0.0541,-0.1081,-0.2874,-0.4633,-0.6332,-0.8038,-0.9763,-1.1781,-1.2791,-1.2915,-1.4323,-1.501,-1.4979,-1.5006,-1.5189,-1.5391,-1.5418,-1.557,-1.5842,-1.601,-1.6108,-1.619,-1.6288,-1.6385,-1.6472,-1.6472,-1.6472,-1.6472,0.2553,0.2514,0.2532,0.2587,0.26,0.262,0.2679,0.269,0.2692,0.2692,0.1682,0.076,0.0256,-0.0895,-0.1327,-0.0476,-0.0389,0.0302,0.1965,0.2092,0.2252,0.2694,0.2692,0.2692,0.2692,0.2692,0.2692,0.2692,0.2692,0.2734,0.2777,0.2777,0.2766,0.2692,0.239,0.2419,0.2738,0.2424,0.2231,0.2076,0.0537,0.0547,0.1207,-0.141,-0.2469,-0.2868,-0.5241,-0.5471,-0.4512,-0.3951,-0.2266,-0.025,0.0918,0.1231,0.1561,0.3818,0.3875,0.3633,0.5554,0.6508,0.702,0.7447,0.7259,0.7008,0.7246,0.0,0.6088,0.6386,0.0,0.5731,0.5884,0.0,0.0,0.4731,0.4627,0.4291,0.3355,0.3217,0.3291,0.3373,0.298,0.2681,0.2594,0.2179,0.1636,0.1027,0.0933,0.044,-0.0649,-0.2283,-0.4027,-0.5782,-0.7554,-0.8884,-0.9622,-1.1619,-1.2714,-1.2915,-1.4239,-1.4939,-1.4979,-1.5093,-1.526,-1.5391,-1.5505,-1.5738,-1.6065,-1.5978,-1.6135,-1.6429,-1.6445,-1.652,-1.6472,-1.6472,-1.6472,-1.6472,0.2514,0.2514,0.2533,0.2592,0.2601,0.2622,0.2683,0.2692,0.2692,0.2692,0.223,0.177,0.1565,0.0511,-0.0214,-0.0387,-0.0908,-0.065,0.0691,0.0772,0.1365,0.2635,0.2702,0.2692,0.2692,0.2692,0.2692,0.2692,0.2692,0.2692,0.2692,0.2692,0.2461,0.1982,0.2052,0.1598,0.0771,0.1758,0.1323,-0.0048,-0.0148,-0.0402,-0.1018,-0.3001,-0.4207,-0.4944,-0.6029,-0.574,-0.4845,-0.5279,-0.356,-0.1319,-0.1947,-0.0803,0.0959,0.1898,0.2565,0.3386,0.5033,0.5475,0.5723,0.6876,0.6535,0.6125,0.6923,0.6497,0.6011,0.6252,0.0,0.0,0.0,0.0,0.0,0.0,0.4756,0.438,0.365,0.33,0.3156,0.3279,0.2835,0.2292,0.1699,0.1082,0.0654,0.0378,0.0382,-0.0164,-0.1351,-0.3032,-0.4721,-0.652,-0.8312,-0.9567,-1.0301,-1.1938,-1.2853,-1.2944,-1.4323,-1.4983,-1.4979,-1.5162,-1.5276,-1.5391,-1.5516,-1.5738,-1.6005,-1.6021,-1.6163,-1.6375,-1.6445,-1.6472,-1.6472,-1.6472,-1.6472,-1.6472,0.2517,0.2514,0.2533,0.2592,0.2601,0.2622,0.2683,0.2692,0.2692,0.2692,0.2398,0.2106,0.1942,0.0513,-0.0647,-0.1082,-0.2235,-0.2423,-0.1183,-0.0609,0.0302,0.1675,0.2337,0.262,0.2493,0.2654,0.2692,0.2692,0.2692,0.2692,0.2692,0.2692,0.2374,0.1806,0.201,0.1297,0.0046,0.1409,0.0626,-0.1435,-0.0703,-0.1528,-0.3298,-0.442,-0.5515,-0.6485,-0.6485,-0.5748,-0.4902,-0.5755,-0.4155,-0.2096,-0.3661,-0.2283,-0.005,-0.005,0.0785,0.2095,0.3726,0.4121,0.4488,0.6089,0.5953,0.5708,0.6621,0.6389,0.605,0.6221,0.6096,0.0,0.0,0.0,0.5784,0.5138,0.0,0.4384,0.3758,0.3338,0.303,0.2988,0.2402,0.167,0.0726,0.0265,0.0,0.0,-0.027,-0.0975,-0.2153,-0.3888,-0.5638,-0.7402,-0.891,-1.0085,-1.0992,-1.2286,-1.3011,-1.3246,-1.4433,-1.4995,-1.5033,-1.5206,-1.5331,-1.5445,-1.557,-1.5738,-1.5934,-1.6021,-1.6135,-1.6244,-1.6375,-1.6482,-1.6429,-1.652,-1.6472,-1.6472,0.2521,0.2514,0.2533,0.2592,0.2601,0.2622,0.2683,0.2692,0.2692,0.2692,0.1556,0.0549,0.0043,-0.2913,-0.4555,-0.3755,-0.5422,-0.5713,-0.3811,-0.1925,-0.0798,-0.0695,0.1504,0.248,0.2052,0.2454,0.2692,0.2692,0.2692,0.2692,0.2692,0.2692,0.2725,0.2738,0.2305,0.2105,0.2068,0.1678,0.054,-0.1011,-0.0935,-0.252,-0.4932,-0.4992,-0.5619,-0.6497,-0.6497,-0.5782,-0.4794,-0.4856,-0.3729,-0.2398,-0.2454,-0.237,-0.2191,-0.175,-0.1601,-0.1103,0.1033,0.2334,0.343,0.5029,0.5761,0.6196,0.6764,0.6525,0.6308,0.6776,0.6476,0.6093,0.6096,0.6052,0.5703,0.0,0.4623,0.0,0.0,0.3076,0.2844,0.2465,0.1514,0.0644,0.0101,0.0,0.0,0.0,-0.1009,-0.2133,-0.3303,-0.5035,-0.6856,-0.858,-0.9371,-1.0337,-1.1497,-1.241,-1.3191,-1.3772,-1.4628,-1.5092,-1.5222,-1.5331,-1.5445,-1.557,-1.5761,-1.5809,-1.5923,-1.5872,-1.6005,-1.6119,-1.6244,-1.6288,-1.6304,-1.6429,-1.6472,-1.6472,0.2517,0.253,0.2556,0.2594,0.2601,0.2628,0.271,0.2705,0.2594,0.232,0.1878,0.1364,0.0862,-0.1694,-0.3506,-0.3821,-0.5973,-0.6746,-0.5406,-0.4058,-0.2707,-0.1434,0.0661,0.1699,0.1557,0.231,0.2713,0.2692,0.2692,0.2703,0.268,0.268,0.2755,0.2771,0.2364,0.1564,0.0671,0.1272,-0.0451,-0.3701,-0.4381,-0.5302,-0.6095,-0.5291,-0.5672,-0.6556,-0.6556,-0.5856,-0.5038,-0.5714,-0.4855,-0.3705,-0.4799,-0.4118,-0.301,-0.3238,-0.253,-0.1485,-0.0445,0.0149,0.0949,0.3186,0.3933,0.4524,0.6038,0.6288,0.6231,0.6404,0.6302,0.6158,0.6158,0.5823,0.5318,0.0,0.0,0.3806,0.0,0.2435,0.182,0.1315,0.1013,0.0592,0.005,0.0,0.0,0.0,-0.0369,-0.1593,-0.3863,-0.4888,-0.663,-0.9241,-0.9898,-1.0693,-1.1543,-1.2447,-1.323,-1.3879,-1.4613,-1.5049,-1.5222,-1.5331,-1.5461,-1.563,-1.5761,-1.5825,-1.5923,-1.6005,-1.6119,-1.6233,-1.6358,-1.6418,-1.6418,-1.6456,-1.6472,-1.6472,0.2518,0.2547,0.2581,0.2598,0.2619,0.2654,0.2713,0.2085,0.1549,0.1244,0.0535,-0.0045,-0.0372,-0.2488,-0.4161,-0.4757,-0.6907,-0.7934,-0.7215,-0.5934,-0.4487,-0.302,-0.0904,0.0402,0.0796,0.1701,0.2286,0.2483,0.2645,0.2735,0.2754,0.2754,0.2738,0.2786,0.2566,0.1677,0.0438,0.1241,-0.0866,-0.4918,-0.6605,-0.7185,-0.7014,-0.6428,-0.6395,-0.6638,-0.6867,-0.647,-0.5954,-0.6402,-0.582,-0.5151,-0.6162,-0.5558,-0.4523,-0.4873,-0.4211,-0.3256,-0.2368,-0.1981,-0.112,0.1699,0.2605,0.3255,0.5164,0.5658,0.5641,0.5426,0.5554,0.5546,0.5173,0.5062,0.4772,0.0,0.0,0.3279,0.0,0.1776,0.1117,0.0745,0.0571,0.0389,0.0049,0.0,-0.0153,-0.0518,-0.0572,-0.1939,-0.4939,-0.5496,-0.705,-0.9821,-1.03,-1.1006,-1.1972,-1.2598,-1.3369,-1.4281,-1.4745,-1.5124,-1.5276,-1.5363,-1.5472,-1.5701,-1.5789,-1.5921,-1.6182,-1.6361,-1.6558,-1.6807,-1.7028,-1.6958,-1.667,-1.6573,-1.6472,-1.6472,0.2527,0.2563,0.2604,0.2605,0.2656,0.2695,0.2697,0.0987,-0.0349,-0.0398,-0.2208,-0.3482,-0.3569,-0.5334,-0.6493,-0.6496,-0.8253,-0.9294,-0.9032,-0.741,-0.6064,-0.5243,-0.3056,-0.1338,-0.0183,0.0806,0.1549,0.2079,0.2538,0.2785,0.2785,0.2785,0.2801,0.2787,0.2864,0.2324,0.1325,0.1401,-0.0824,-0.4625,-0.7385,-0.8101,-0.7588,-0.8299,-0.7789,-0.6856,-0.7441,-0.7582,-0.7478,-0.6902,-0.6657,-0.661,-0.6556,-0.6556,-0.6556,-0.6505,-0.6543,-0.6273,-0.4721,-0.3969,-0.2815,0.046,0.1626,0.2417,0.4144,0.4566,0.4486,0.3947,0.4258,0.4291,0.3281,0.3846,0.3974,0.0,0.0,0.0,0.1599,0.1081,0.0752,0.0658,0.0282,0.0,0.0,0.0,-0.0392,-0.1359,-0.1628,-0.3132,-0.6423,-0.6854,-0.8061,-1.0477,-1.0618,-1.1317,-1.2696,-1.2863,-1.3588,-1.4915,-1.4983,-1.5162,-1.5391,-1.5391,-1.5592,-1.5816,-1.5816,-1.6177,-1.6799,-1.7,-1.7346,-1.777,-1.8167,-1.7857,-1.7091,-1.6645,-1.6472,-1.6472,0.259,0.2596,0.2601,0.2665,0.2701,0.2733,0.2757,0.0965,-0.0495,-0.0791,-0.2691,-0.4093,-0.442,-0.5672,-0.6478,-0.6525,-0.797,-0.8701,-0.8222,-0.7394,-0.6475,-0.5462,-0.3454,-0.1999,-0.132,0.0416,0.1361,0.152,0.2389,0.2816,0.2816,0.2816,0.2833,0.2864,0.2962,0.1961,0.0289,0.0343,-0.181,-0.5525,-0.7489,-0.7969,-0.7621,-0.8646,-0.8619,-0.8068,-0.8196,-0.8266,-0.819,-0.8029,-0.7948,-0.7821,-0.7408,-0.7238,-0.7132,-0.6719,-0.6572,-0.6542,-0.6168,-0.5334,-0.422,-0.2688,-0.1546,-0.0307,0.1715,0.2227,0.2449,0.318,0.3074,0.2904,0.3073,0.2634,0.225,0.2305,0.2088,0.1696,0.1081,0.0846,0.0611,0.0235,0.0095,0.0,0.0,0.0,-0.0098,-0.0349,-0.1512,-0.3374,-0.6009,-0.7414,-0.9079,-1.1025,-1.1659,-1.2205,-1.2696,-1.3256,-1.4041,-1.4915,-1.5064,-1.5249,-1.5391,-1.5488,-1.5911,-1.6488,-1.6488,-1.6895,-1.7616,-1.7754,-1.7915,-1.8027,-1.8326,-1.8309,-1.8031,-1.6897,-1.6472,-1.6472,0.2618,0.2615,0.2615,0.2687,0.2546,0.2285,0.1839,0.0222,-0.1319,-0.2226,-0.4208,-0.5631,-0.5878,-0.6724,-0.7251,-0.726,-0.8002,-0.8328,-0.7917,-0.7652,-0.7024,-0.5889,-0.4555,-0.3363,-0.2366,-0.0805,0.0326,0.1008,0.1805,0.2413,0.2848,0.2848,0.2857,0.2921,0.2921,0.219,0.0812,-0.0545,-0.2732,-0.5475,-0.752,-0.8273,0.0,-0.9303,-0.9465,-0.9247,-0.9246,-0.9102,-0.8833,-0.8523,-0.8436,-0.8347,-0.7993,-0.7876,-0.7824,-0.7509,-0.7426,-0.7459,-0.7495,-0.703,-0.6183,-0.4695,-0.4006,-0.3103,-0.0677,-0.0261,-0.0262,0.0369,0.0261,0.0,-0.0103,0.0152,0.0642,0.1493,0.119,0.0757,0.0473,0.0237,-0.0143,-0.0615,-0.0859,-0.1102,-0.1336,-0.091,-0.1112,-0.2209,-0.2787,-0.4389,-0.7428,-0.8156,-0.9489,-1.156,-1.2137,-1.2668,-1.316,-1.3668,-1.4265,-1.501,-1.5151,-1.5304,-1.5472,-1.5543,-1.5999,-1.6721,-1.6721,-1.7318,-1.8261,-1.8455,-1.8691,-1.8852,-1.8875,-1.8893,-1.8828,-1.775,-1.7175,-1.6914,0.2608,0.2591,0.262,0.2688,0.2375,0.1674,0.0401,-0.099,-0.244,-0.3997,-0.6031,-0.7358,-0.7408,-0.7837,-0.8098,-0.8086,-0.8079,-0.7975,-0.7748,-0.7898,-0.7474,-0.627,-0.5812,-0.4918,-0.3453,-0.2373,-0.1096,0.0377,0.1016,0.1863,0.2919,0.2919,0.2921,0.2881,0.2909,0.251,0.1585,-0.1614,-0.3799,-0.5228,-0.7613,-0.8832,-0.931,-0.994,-1.0216,-1.0216,-1.0216,-0.9898,-0.9424,-0.8893,-0.8689,-0.8633,-0.8528,-0.8528,-0.8528,-0.8423,-0.847,-0.8521,-0.8532,-0.8535,-0.8072,-0.6146,-0.5996,-0.567,-0.3133,-0.2917,-0.3241,-0.3138,-0.3188,-0.3514,-0.4301,-0.2825,-0.1189,-0.0146,-0.0242,-0.0481,-0.0625,-0.1064,-0.1502,-0.192,-0.2515,0.0,-0.3494,-0.2481,-0.2728,-0.4935,-0.4622,-0.5866,-0.9342,-0.9075,-0.9899,-1.2136,-1.251,-1.3045,-1.3813,-1.3994,-1.4507,-1.5222,-1.5297,-1.5483,-1.5696,-1.5834,-1.6264,-1.6988,-1.6988,-1.769,-1.8903,-1.9156,-1.9555,-1.9914,-1.9595,-1.9526,-1.9528,-1.8892,-1.8254,-1.768,0.2598,0.2664,0.2686,0.2691,0.2317,0.1356,-0.0549,-0.2093,-0.3419,-0.4586,-0.665,-0.8022,-0.7971,-0.769,-0.7533,-0.7521,-0.7518,-0.7305,-0.6775,-0.7241,-0.7032,-0.5842,-0.5707,-0.5349,-0.462,-0.354,-0.2244,-0.0713,0.0282,0.1475,0.2919,0.2919,0.2886,0.2911,0.2941,0.1744,-0.0586,-0.3747,-0.5516,-0.6349,-0.829,-0.9184,-0.9337,-0.9964,-1.0216,-1.0216,-1.0216,-1.0163,-1.0057,-0.9951,-0.9886,-0.9821,-0.9349,-0.9243,-0.9137,-0.8607,-0.8511,-0.8535,-0.8647,-0.8664,-0.8573,-0.8268,-0.7849,-0.7359,-0.6377,-0.5887,-0.5464,-0.5057,-0.5321,-0.5547,-0.5127,-0.4696,-0.4319,-0.4104,-0.3351,-0.3148,-0.4094,-0.4297,-0.4336,-0.4399,-0.537,-0.596,-0.5812,-0.4328,-0.3599,-0.4102,-0.5639,-0.7321,-0.9184,-1.0518,-1.1724,-1.2885,-1.3607,-1.3908,-1.3813,-1.4448,-1.4919,-1.5222,-1.5849,-1.6212,-1.6361,-1.7004,-1.7739,-1.8483,-1.8483,-1.9117,-2.0033,-2.008,-2.0217,-2.0354,-2.0174,-2.0221,-2.0215,-1.9592,-1.9267,-1.8955,0.2671,0.2683,0.2632,0.2359,0.1712,0.0605,-0.1204,-0.249,-0.3693,-0.4738,-0.6146,-0.6994,-0.6962,-0.7046,-0.7092,-0.7058,-0.7055,-0.6888,-0.6597,-0.68,-0.6748,-0.6183,-0.5901,-0.5631,-0.5322,-0.4544,-0.3215,-0.1345,-0.0571,0.0746,0.2535,0.2805,0.2902,0.2872,0.2408,0.0711,-0.19,-0.3708,-0.5647,-0.758,-0.8466,-0.9218,-0.9786,-1.0094,-1.0216,-1.0216,-1.0216,-1.0216,-1.0216,-1.0216,-1.0216,-1.0163,-0.9898,-0.9792,-0.9739,-0.9474,-0.9367,-0.9386,-0.9522,-0.9598,-0.9521,-0.9317,-0.9291,-0.9085,-0.8297,-0.8085,-0.7981,-0.7398,-0.771,-0.7737,-0.6735,-0.6533,-0.6424,-0.6134,-0.5649,-0.5683,-0.6791,-0.7223,-0.7208,-0.6764,-0.743,-0.7748,-0.7221,-0.6903,-0.6791,-0.6805,-0.7776,-0.8975,-1.0193,-1.1583,-1.2565,-1.305,-1.394,-1.433,-1.4264,-1.4737,-1.5064,-1.5304,-1.6079,-1.6455,-1.6634,-1.7362,-1.8149,-1.889,-1.889,-1.9338,-2.0098,-2.0173,-2.0349,-2.0476,-2.0408,-2.0422,-2.0476,-2.0165,-2.0037,-1.984,0.243,0.2389,0.2211,0.1638,0.0796,-0.0289,-0.1601,-0.2672,-0.3681,-0.4786,-0.5357,-0.5772,-0.5863,-0.6315,-0.6621,-0.6678,-0.6675,-0.6654,-0.6608,-0.6602,-0.6602,-0.6602,-0.6177,-0.595,-0.5918,-0.545,-0.4249,-0.2238,-0.1443,-0.0094,0.1875,0.256,0.2658,0.221,0.1221,-0.0671,-0.3186,-0.3966,-0.5894,-0.8455,-0.8748,-0.9432,-1.022,-1.0261,-1.0261,-1.0249,-1.0269,-1.0273,-1.0273,-1.0273,-1.0261,-1.0245,-1.0245,-1.0257,-1.0273,-1.0273,-1.0273,-1.0294,-1.0383,-1.0462,-1.034,-1.0002,-1.0199,-1.0278,-0.9568,-0.9634,-0.9813,-0.9492,-0.9709,-0.9642,-0.8563,-0.8359,-0.8229,-0.7785,-0.7521,-0.7738,-0.8848,-0.9363,-0.951,-0.9104,-0.9396,-0.943,-0.9065,-0.9428,-0.9858,-1.0201,-1.0074,-1.0427,-1.1529,-1.232,-1.2904,-1.3176,-1.4028,-1.4548,-1.4716,-1.4956,-1.5254,-1.5663,-1.6332,-1.682,-1.7189,-1.7849,-1.8523,-1.9182,-1.9182,-1.9469,-2.001,-2.0119,-2.0246,-2.0476,-2.0476,-2.0476,-2.0476,-2.0476,-2.0476,-2.0349,0.1601,0.1428,0.1128,0.0093,-0.0532,-0.1091,-0.1694,-0.2691,-0.375,-0.4771,-0.5009,-0.5287,-0.5764,-0.5914,-0.6158,-0.6675,-0.6675,-0.6672,-0.6667,-0.6667,-0.6667,-0.6667,-0.6561,-0.6556,-0.6604,-0.6445,-0.5567,-0.3968,-0.2386,-0.0856,0.0693,0.2264,0.1959,0.0047,-0.1017,-0.2728,-0.4986,-0.6583,-0.7782,-0.8604,-0.9763,-1.0236,-1.0232,-1.04,-1.0412,-1.0404,-1.0432,-1.0465,-1.0465,-1.0465,-1.0408,-1.0396,-1.0396,-1.0396,-1.0465,-1.0465,-1.0465,-1.0481,-1.0563,-1.0596,-1.0616,-1.0654,-1.0348,-1.0077,-1.0528,-1.0256,-1.0048,-1.0628,-1.0692,-1.0599,-1.0372,-1.0288,-1.0204,-1.0112,-0.9178,-0.8826,-0.9923,-1.0122,-1.0458,-1.1351,-1.1498,-1.1827,-1.2525,-1.1256,-1.1004,-1.2453,-1.1714,-1.1549,-1.2419,-1.2578,-1.3011,-1.3874,-1.4195,-1.4504,-1.4899,-1.5081,-1.5563,-1.6393,-1.7055,-1.786,-1.8686,-1.9291,-1.9691,-2.0016,-2.0016,-2.0178,-2.0471,-2.0349,-2.0397,-2.0476,-2.0476,-2.0476,-2.0476,-2.0476,-2.0476,-2.0476,0.0411,0.0322,0.0094,-0.0585,-0.1138,-0.1662,-0.2187,-0.2895,-0.3541,-0.3955,-0.4601,-0.5133,-0.538,-0.5712,-0.6044,-0.6253,-0.6571,-0.6782,-0.6782,-0.6782,-0.6782,-0.6782,-0.6758,-0.6739,-0.6675,-0.6629,-0.5962,-0.4614,-0.302,-0.1599,-0.033,0.0983,0.0472,-0.1683,-0.3088,-0.4819,-0.67,-0.7709,-0.864,-0.9583,-1.0153,-1.0384,-1.031,-1.0441,-1.0465,-1.0441,-1.0477,-1.049,-1.049,-1.049,-1.0465,-1.0436,-1.0436,-1.0461,-1.049,-1.049,-1.049,-1.0522,-1.0657,-1.0698,-1.073,-1.0877,-1.0708,-1.0571,-1.0841,-1.0708,-1.0583,-1.0894,-1.0898,-1.0796,-1.0649,-1.0583,-1.0774,-1.15,-1.1214,-1.1256,-1.2359,-1.2512,-1.235,-1.1916,-1.2047,-1.2138,-1.2019,-1.1658,-1.1914,-1.2932,-1.2275,-1.2125,-1.2841,-1.3535,-1.3859,-1.3906,-1.4631,-1.5038,-1.4915,-1.5092,-1.5639,-1.653,-1.7284,-1.8081,-1.8897,-1.9607,-1.9997,-2.0098,-2.0098,-2.0227,-2.0397,-2.0261,-2.0329,-2.0476,-2.0476,-2.0476,-2.0476,-2.0476,-2.0476,-2.0476,-0.0661,-0.0761,-0.0921,-0.1572,-0.2034,-0.2413,-0.278,-0.3141,-0.339,-0.3422,-0.412,-0.4702,-0.4849,-0.5221,-0.5543,-0.5703,-0.6235,-0.6552,-0.6552,-0.6711,-0.6818,-0.6818,-0.6818,-0.6799,-0.6755,-0.6736,-0.6298,-0.5413,-0.4025,-0.2917,-0.2132,-0.1247,-0.1882,-0.3885,-0.5195,-0.6775,-0.8431,-0.8845,-0.9443,-1.0228,-1.0371,-1.0454,-1.0421,-1.0565,-1.0551,-1.053,-1.0551,-1.0563,-1.0563,-1.0563,-1.0563,-1.0563,-1.053,-1.0543,-1.0563,-1.0563,-1.0563,-1.0596,-1.0807,-1.0852,-1.0881,-1.0984,-1.0971,-1.0943,-1.1016,-1.0971,-1.0951,-1.1016,-1.0992,-1.091,-1.073,-1.0698,-1.0959,-1.1731,-1.1887,-1.2143,-1.2937,-1.3005,-1.2766,-1.2239,-1.2029,-1.2097,-1.2399,-1.2454,-1.2784,-1.3616,-1.321,-1.3109,-1.3478,-1.4073,-1.4293,-1.4104,-1.4848,-1.5179,-1.4912,-1.5151,-1.5814,-1.6944,-1.7471,-1.8292,-1.9329,-1.9892,-2.0119,-2.0173,-2.0064,-2.0173,-2.032,-2.0227,-2.0315,-2.0476,-2.0476,-2.0476,-2.0476,-2.0476,-2.0476,-2.0476,-0.1584,-0.1792,-0.2115,-0.3187,-0.3365,-0.3375,-0.3407,-0.3412,-0.3422,-0.3507,-0.351,-0.3714,-0.4265,-0.4315,-0.4528,-0.5062,-0.565,-0.6022,-0.6022,-0.6501,-0.6818,-0.6818,-0.6818,-0.6818,-0.6818,-0.6758,-0.6672,-0.667,-0.5517,-0.5038,-0.5135,-0.4589,-0.5215,-0.6792,-0.7375,-0.8535,-1.0089,-1.0269,-1.0298,-1.024,-1.0506,-1.051,-1.0437,-1.0704,-1.069,-1.0624,-1.0778,-1.0807,-1.0807,-1.0807,-1.0807,-1.0786,-1.0649,-1.0677,-1.0807,-1.0807,-1.0807,-1.0831,-1.0857,-1.089,-1.091,-1.1004,-1.1024,-1.1024,-1.1024,-1.1024,-1.1024,-1.1024,-1.1098,-1.1156,-1.0922,-1.089,-1.0824,-1.0649,-1.0616,-1.0583,-1.0556,-1.0466,-1.1049,-1.2701,-1.1714,-1.201,-1.4776,-1.3979,-1.3802,-1.4977,-1.4959,-1.4743,-1.4376,-1.3866,-1.3982,-1.4761,-1.4592,-1.4673,-1.4979,-1.526,-1.6234,-1.7898,-1.7898,-1.8728,-2.0246,-2.0173,-2.0187,-2.0246,-2.001,-2.0119,-2.0462,-2.032,-2.0354,-2.0476,-2.0476,-2.0476,-2.0476,-2.0476,-2.0476,-2.0476,-0.2757,-0.2883,-0.301,-0.3359,-0.3384,-0.34,-0.3411,-0.3412,-0.3423,-0.3507,-0.3511,-0.3561,-0.3712,-0.4086,-0.4344,-0.4531,-0.5062,-0.5543,-0.5969,-0.6182,-0.6395,-0.6764,-0.6818,-0.6818,-0.6818,-0.6799,-0.6769,-0.6675,-0.5593,-0.4902,-0.4541,-0.5517,-0.6475,-0.7381,-0.8334,-0.9248,-1.0175,-1.0236,-1.024,-1.0232,-1.0445,-1.0498,-1.0461,-1.0604,-1.0677,-1.0757,-1.0669,-1.0698,-1.0807,-1.0807,-1.0807,-1.0807,-1.0778,-1.0786,-1.0819,-1.0824,-1.0849,-1.0877,-1.1037,-1.1078,-1.1098,-1.1184,-1.1163,-1.1131,-1.1192,-1.1204,-1.1184,-1.1131,-1.1143,-1.1176,-1.1004,-1.0984,-1.0943,-1.0824,-1.0857,-1.0949,-1.1184,-1.1252,-1.1486,-1.2253,-1.2273,-1.2704,-1.3804,-1.367,-1.3818,-1.4546,-1.4163,-1.4215,-1.5014,-1.4951,-1.4909,-1.4943,-1.5162,-1.5194,-1.5162,-1.579,-1.6711,-1.7898,-1.8485,-1.9253,-2.0329,-2.0275,-2.0227,-2.0153,-1.9963,-2.0064,-2.032,-2.0241,-2.0315,-2.0476,-2.0476,-2.0476,-2.0476,-2.0476,-2.0476,-2.0476,-0.3332,-0.3354,-0.3423,-0.3381,-0.3399,-0.3412,-0.3412,-0.3422,-0.3435,-0.3508,-0.3521,-0.3524,-0.3513,-0.378,-0.3981,-0.3945,-0.4474,-0.5062,-0.565,-0.5862,-0.6235,-0.6764,-0.6818,-0.6818,-0.6818,-0.6818,-0.6799,-0.676,-0.6512,-0.62,-0.5822,-0.7302,-0.8123,-0.8326,-0.9161,-0.9794,-1.0216,-1.0253,-1.0269,-1.0281,-1.0428,-1.051,-1.0543,-1.0563,-1.0649,-1.0798,-1.0649,-1.0677,-1.0807,-1.0807,-1.0807,-1.0807,-1.0807,-1.0831,-1.0872,-1.0869,-1.091,-1.0971,-1.1176,-1.1502,-1.1876,-1.1967,-1.2299,-1.2617,-1.2677,-1.2686,-1.256,-1.204,-1.1968,-1.176,-1.1205,-1.1078,-1.1045,-1.0951,-1.1155,-1.1435,-1.1667,-1.1801,-1.2075,-1.2482,-1.2761,-1.3103,-1.3582,-1.3946,-1.4237,-1.4612,-1.4471,-1.4749,-1.5636,-1.5195,-1.5007,-1.5101,-1.5254,-1.5323,-1.5276,-1.6013,-1.6898,-1.7898,-1.9028,-1.9789,-2.0329,-2.0329,-2.0241,-2.0098,-2.0064,-2.0153,-2.0329,-2.0275,-2.032,-2.0476,-2.0476,-2.0349,-2.0101,-2.0101,-1.9967,-1.977,-0.3363,-0.3423,-0.3378,-0.3407,-0.3412,-0.3412,-0.3412,-0.3435,-0.351,-0.3514,-0.3484,-0.3493,-0.3521,-0.3515,-0.3448,-0.3418,-0.3892,-0.4474,-0.5062,-0.5652,-0.6184,-0.6764,-0.6826,-0.6828,-0.6823,-0.6828,-0.6831,-0.6831,-0.7896,-0.8429,-0.8429,-0.9546,-0.9811,-0.9386,-0.991,-1.0171,-1.0232,-1.0363,-1.0396,-1.0404,-1.0449,-1.053,-1.0596,-1.0522,-1.0604,-1.0798,-1.0649,-1.0677,-1.0807,-1.0807,-1.0807,-1.0819,-1.0819,-1.0881,-1.091,-1.0898,-1.0963,-1.1057,-1.1143,-1.209,-1.3039,-1.3197,-1.4088,-1.5021,-1.5021,-1.5021,-1.4682,-1.3626,-1.328,-1.2842,-1.1594,-1.135,-1.1259,-1.1106,-1.1662,-1.2031,-1.192,-1.2242,-1.2667,-1.3202,-1.3088,-1.3281,-1.3972,-1.4583,-1.4992,-1.4954,-1.5537,-1.5935,-1.6009,-1.4793,-1.4448,-1.5281,-1.5035,-1.5096,-1.5391,-1.6118,-1.6976,-1.8089,-1.9549,-2.0246,-2.0295,-2.0246,-2.0241,-2.0098,-2.0261,-2.0329,-2.0349,-2.0471,-2.0462,-2.0476,-2.0476,-2.0101,-1.9528,-1.9528,-1.907,-1.8497,-0.3395,-0.3401,-0.3403,-0.3411,-0.3412,-0.3412,-0.3412,-0.3418,-0.344,-0.3486,-0.3499,-0.3509,-0.3524,-0.3506,-0.3479,-0.3503,-0.3585,-0.405,-0.5062,-0.5308,-0.5795,-0.6767,-0.6908,-0.6935,-0.6888,-0.6932,-0.6957,-0.6957,-0.7608,-0.777,-0.7391,-0.8526,-0.9013,-0.8901,-0.9437,-0.9947,-1.0372,-1.0269,-1.0249,-1.0261,-1.0424,-1.0502,-1.0522,-1.0575,-1.0657,-1.0798,-1.0649,-1.0677,-1.0807,-1.0807,-1.0852,-1.0857,-1.0857,-1.0963,-1.109,-1.1016,-1.1057,-1.1151,-1.1237,-1.2191,-1.3183,-1.3207,-1.4088,-1.5021,-1.5021,-1.5021,-1.5085,-1.5307,-1.4204,-1.327,-1.3363,-1.2595,-1.1932,-1.1832,-1.2334,-1.2848,-1.312,-1.3276,-1.3455,-1.3832,-1.4028,-1.4137,-1.4238,-1.4464,-1.4674,-1.4763,-1.4747,-1.4792,-1.5033,-1.4789,-1.4976,-1.5486,-1.5251,-1.5222,-1.5391,-1.6624,-1.7969,-1.9444,-1.994,-2.0098,-1.9976,-2.0098,-2.0139,-2.0098,-2.0139,-2.0275,-2.0422,-2.0354,-2.0438,-2.0476,-2.0476,-2.0101,-1.9528,-1.9528,-1.907,-1.8497,-0.3302,-0.3412,-0.3412,-0.3412,-0.3412,-0.3412,-0.3412,-0.3423,-0.344,-0.3459,-0.3486,-0.3499,-0.3484,-0.3483,-0.3469,-0.344,-0.3422,-0.3784,-0.4687,-0.4782,-0.5269,-0.6397,-0.653,-0.6659,-0.6869,-0.6927,-0.6987,-0.7041,-0.7555,-0.7555,-0.7096,-0.8207,-0.8685,-0.8736,-0.9258,-0.9817,-1.04,-1.0257,-1.024,-1.0289,-1.0387,-1.0473,-1.0551,-1.0551,-1.0637,-1.0798,-1.0649,-1.0677,-1.0807,-1.0807,-1.0816,-1.089,-1.089,-1.1016,-1.1209,-1.1098,-1.1151,-1.1225,-1.1278,-1.2227,-1.3338,-1.3864,-1.4963,-1.5959,-1.6244,-1.6703,-1.7181,-1.7226,-1.6005,-1.4788,-1.456,-1.3504,-1.2604,-1.2557,-1.3001,-1.3456,-1.3567,-1.3777,-1.3994,-1.4264,-1.4379,-1.4461,-1.4559,-1.4673,-1.4754,-1.4817,-1.4744,-1.4744,-1.4817,-1.5025,-1.5218,-1.5397,-1.5344,-1.5499,-1.5976,-1.7381,-1.852,-1.953,-1.994,-2.0098,-2.0085,-2.0241,-2.0227,-2.0098,-2.0241,-2.03,-2.0438,-2.0374,-2.0408,-2.0476,-2.0165,-1.9656,-1.9019,-1.8694,-1.8191,-1.7616,-0.3198,-0.3412,-0.3412,-0.3412,-0.3412,-0.3412,-0.3412,-0.3434,-0.3442,-0.3422,-0.3464,-0.3478,-0.343,-0.3445,-0.35,-0.342,-0.3415,-0.3677,-0.4261,-0.4307,-0.4801,-0.5983,-0.6043,-0.6271,-0.6861,-0.691,-0.6992,-0.7104,-0.7483,-0.7483,-0.7159,-0.8145,-0.8609,-0.8609,-0.9186,-0.969,-1.0172,-1.0026,-1.0034,-1.016,-1.0172,-1.0201,-1.0317,-1.0277,-1.0392,-1.0508,-1.0376,-1.0464,-1.0639,-1.0639,-1.0768,-1.091,-1.091,-1.1037,-1.1242,-1.1242,-1.1237,-1.129,-1.129,-1.2227,-1.3518,-1.4682,-1.5959,-1.7077,-1.7646,-1.88,-1.9567,-1.9205,-1.7923,-1.6587,-1.5604,-1.4263,-1.3304,-1.3131,-1.3611,-1.3927,-1.3742,-1.4066,-1.4379,-1.4515,-1.445,-1.4532,-1.4858,-1.4983,-1.501,-1.4997,-1.5108,-1.5151,-1.5025,-1.5308,-1.5374,-1.5276,-1.5391,-1.5839,-1.666,-1.8007,-1.8793,-1.9026,-1.9747,-2.0139,-2.0261,-2.0374,-2.0363,-2.0153,-2.0417,-2.0471,-2.0363,-2.0422,-2.0476,-2.0412,-1.9776,-1.907,-1.8433,-1.7744,-1.7106,-1.6472,-0.3198,-0.3412,-0.3412,-0.3412,-0.3412,-0.3412,-0.3412,-0.3415,-0.3426,-0.3502,-0.3513,-0.3471,-0.3487,-0.3469,-0.351,-0.3504,-0.3426,-0.3677,-0.4261,-0.4357,-0.4877,-0.6036,-0.6219,-0.6499,-0.7049,-0.7055,-0.7098,-0.7161,-0.7215,-0.7215,-0.7217,-0.7884,-0.8212,-0.8203,-0.8686,-0.8986,-0.9031,-0.8954,-0.8929,-0.8947,-0.9013,-0.9013,-0.8985,-0.917,-0.9243,-0.9208,-0.9212,-0.9568,-1.0029,-1.0029,-1.047,-1.1004,-1.1004,-1.1131,-1.1265,-1.1265,-1.1278,-1.129,-1.129,-1.2227,-1.3518,-1.4682,-1.5959,-1.7077,-1.7646,-1.88,-1.998,-2.0905,-1.8865,-1.7,-1.7284,-1.5487,-1.3941,-1.3777,-1.4119,-1.4373,-1.4346,-1.4351,-1.4407,-1.4619,-1.4774,-1.4841,-1.4994,-1.4963,-1.5108,-1.5293,-1.5249,-1.5293,-1.5505,-1.5516,-1.5532,-1.5516,-1.569,-1.6022,-1.666,-1.8007,-1.869,-1.8742,-1.954,-1.9922,-1.9963,-2.0241,-2.0329,-2.0246,-2.0408,-2.0462,-2.0442,-2.0462,-2.0476,-2.0412,-1.9776,-1.907,-1.8433,-1.7744,-1.7106,-1.6472,-0.2239,-0.2985,-0.3412,-0.3412,-0.3412,-0.3412,-0.3412,-0.3412,-0.3416,-0.3431,-0.3502,-0.351,-0.3454,-0.3456,-0.3504,-0.3434,-0.3435,-0.3536,-0.3785,-0.3861,-0.427,-0.5075,-0.5509,-0.6171,-0.709,-0.709,-0.7117,-0.7175,-0.7147,-0.7147,-0.7231,-0.7513,-0.7793,-0.8132,-0.8227,-0.8521,-0.879,-0.8719,-0.8661,-0.8634,-0.8756,-0.8756,-0.8756,-0.9298,-0.9449,-0.9476,-0.985,-1.0141,-1.0356,-1.0356,-1.062,-1.0951,-1.0951,-1.1078,-1.1225,-1.1225,-1.1257,-1.129,-1.129,-1.1704,-1.2285,-1.2866,-1.3981,-1.5323,-1.6942,-1.7762,-1.8922,-2.1483,-1.9284,-1.7361,-1.9025,-1.6722,-1.4761,-1.5325,-1.4934,-1.4575,-1.4515,-1.4461,-1.4477,-1.4657,-1.4841,-1.5026,-1.5206,-1.5293,-1.5374,-1.5472,-1.5445,-1.5461,-1.557,-1.557,-1.5603,-1.5734,-1.6088,-1.6238,-1.6238,-1.752,-1.8222,-1.8303,-1.9052,-1.9727,-2.0119,-2.0349,-2.0438,-2.0388,-2.0068,-2.0165,-2.0412,-1.9706,-1.9643,-1.9904,-1.9204,-1.8567,-1.793,-1.7616,-1.7106,-1.6472,-0.1066,-0.2239,-0.2985,-0.2985,-0.2878,-0.2931,-0.3359,-0.3091,-0.2985,-0.3359,-0.3433,-0.3438,-0.3414,-0.3433,-0.3437,-0.3414,-0.3433,-0.3437,-0.3414,-0.3463,-0.3752,-0.4319,-0.5102,-0.6041,-0.7112,-0.7098,-0.7117,-0.7175,-0.7161,-0.7161,-0.7175,-0.7175,-0.7454,-0.7905,-0.7795,-0.7996,-0.8433,-0.8375,-0.8316,-0.8281,-0.8559,-0.8504,-0.8397,-0.9194,-0.9456,-0.9505,-1.0018,-1.0356,-1.0584,-1.0584,-1.0704,-1.089,-1.089,-1.1016,-1.1221,-1.1221,-1.1225,-1.129,-1.129,-1.129,-1.129,-1.129,-1.2285,-1.3742,-1.5959,-1.6703,-1.7884,-2.1406,-1.9537,-1.802,-2.0299,-1.8072,-1.6081,-1.6698,-1.59,-1.5048,-1.4615,-1.4586,-1.4673,-1.4787,-1.4994,-1.5206,-1.5418,-1.5516,-1.557,-1.557,-1.5603,-1.5674,-1.5674,-1.5674,-1.5718,-1.5816,-1.6366,-1.6427,-1.5816,-1.7038,-1.777,-1.7898,-1.8536,-1.9305,-2.0091,-2.0035,-2.0101,-2.0235,-1.9528,-1.9662,-2.0165,-1.9007,-1.8828,-1.9204,-1.8497,-1.793,-1.7483,-1.7292,-1.6914,-1.6472,0.0107,-0.1066,-0.1812,-0.1812,-0.1438,-0.1598,-0.3144,-0.2077,-0.1651,-0.3198,-0.3414,-0.3414,-0.3412,-0.3414,-0.3414,-0.3412,-0.3414,-0.3414,-0.3412,-0.3442,-0.3783,-0.4373,-0.5488,-0.6444,-0.7166,-0.7117,-0.7117,-0.7175,-0.7125,-0.7125,-0.7175,-0.7175,-0.7231,-0.7286,-0.7281,-0.7281,-0.7337,-0.7328,-0.7328,-0.7379,-0.7946,-0.7804,-0.7314,-0.7995,-0.8203,-0.8156,-0.8274,-0.9023,-0.9973,-0.9973,-1.0363,-1.089,-1.089,-1.1016,-1.1221,-1.1221,-1.1225,-1.129,-1.129,-1.129,-1.129,-1.129,-1.2285,-1.3567,-1.4846,-1.6064,-1.7678,-2.0452,-1.9717,-1.9056,-2.0768,-1.9754,-1.832,-1.7181,-1.6866,-1.6358,-1.4917,-1.4852,-1.5037,-1.5162,-1.5293,-1.5418,-1.5543,-1.557,-1.557,-1.557,-1.5734,-1.5805,-1.5805,-1.5805,-1.5805,-1.5816,-1.6366,-1.6427,-1.5816,-1.7038,-1.777,-1.7898,-1.8101,-1.8617,-1.9379,-1.8893,-1.9007,-1.9528,-1.8892,-1.8955,-1.9528,-1.8828,-1.8497,-1.8497,-1.786,-1.7553,-1.7419,-1.6781,-1.6536,-1.6472,0.1704,0.0107,-0.1225,-0.1225,-0.1917,-0.2291,-0.1917,-0.1331,-0.1118,-0.1758,-0.1864,-0.2238,-0.3306,-0.3412,-0.3412,-0.3412,-0.3412,-0.3412,-0.3412,-0.3423,-0.3723,-0.4384,-0.5213,-0.5976,-0.662,-0.6985,-0.7153,-0.7175,-0.7153,-0.7153,-0.7175,-0.7175,-0.7175,-0.7175,-0.7175,-0.7175,-0.7175,-0.7175,-0.7153,-0.7181,-0.744,-0.7365,-0.7154,-0.7828,-0.834,-0.8652,-0.9072,-0.9746,-1.0472,-1.0472,-1.0604,-1.0872,-1.0869,-1.0971,-1.1098,-1.1204,-1.1265,-1.129,-1.129,-1.129,-1.129,-1.129,-1.2032,-1.314,-1.4729,-1.5254,-1.6503,-2.0275,-1.8713,-1.7821,-2.1603,-1.9925,-1.8005,-1.8215,-1.7528,-1.6481,-1.5033,-1.4923,-1.4995,-1.5049,-1.5347,-1.5516,-1.557,-1.5701,-1.5745,-1.5745,-1.5789,-1.5816,-1.5816,-1.5816,-1.5816,-1.5816,-1.6005,-1.6049,-1.5816,-1.6299,-1.6796,-1.7282,-1.7417,-1.7923,-1.8698,-1.8563,-1.8631,-1.8828,-1.8191,-1.8206,-1.8647,-1.7651,-1.7443,-1.7754,-1.7587,-1.7239,-1.6914,-1.7042,-1.685,-1.6472,0.3355,0.181,0.0266,-0.0266,-0.1172,-0.1598,-0.1012,-0.0426,-0.0106,-0.0106,-0.0106,-0.0532,-0.1651,-0.1812,-0.2025,-0.2557,-0.2611,-0.2825,-0.3359,-0.342,-0.3723,-0.4393,-0.4862,-0.5381,-0.5953,-0.658,-0.6866,-0.6866,-0.6887,-0.6895,-0.6895,-0.6895,-0.6895,-0.6951,-0.7119,-0.7175,-0.7175,-0.7175,-0.7153,-0.7176,-0.7384,-0.7323,-0.7176,-0.7834,-0.8356,-0.88,-0.9418,-1.0029,-1.0528,-1.0751,-1.0831,-1.086,-1.0869,-1.0971,-1.1098,-1.1245,-1.129,-1.129,-1.129,-1.131,-1.1331,-1.1331,-1.1852,-1.2792,-1.4312,-1.4557,-1.551,-1.9191,-1.7829,-1.7144,-2.1168,-1.9748,-1.8054,-1.8477,-1.7821,-1.6726,-1.5276,-1.5162,-1.5249,-1.5206,-1.5461,-1.569,-1.569,-1.5761,-1.5816,-1.5816,-1.5816,-1.5816,-1.5816,-1.5816,-1.5816,-1.5816,-1.5816,-1.5816,-1.5816,-1.5816,-1.6188,-1.6917,-1.6756,-1.7114,-1.7938,-1.7821,-1.7869,-1.8001,-1.7368,-1.7385,-1.7813,-1.6769,-1.6637,-1.6983,-1.7028,-1.6842,-1.6536,-1.6997,-1.6886,-1.6472,0.5009,0.4208,0.2876,0.1225,0.1331,0.1118,-0.0586,0.0586,0.1704,0.1704,0.1704,0.1704,0.1704,0.1704,0.1012,-0.0745,-0.0905,-0.1598,-0.3251,-0.344,-0.3726,-0.4372,-0.4373,-0.4663,-0.5307,-0.5901,-0.6203,-0.6203,-0.6257,-0.6281,-0.6281,-0.6281,-0.6281,-0.6337,-0.6951,-0.7175,-0.7175,-0.7175,-0.7175,-0.7231,-0.7849,-0.7737,-0.7286,-0.7849,-0.8076,-0.8188,-0.88,-0.9362,-0.9973,-1.0584,-1.0816,-1.089,-1.089,-1.1016,-1.1184,-1.1265,-1.129,-1.129,-1.129,-1.1351,-1.1425,-1.1425,-1.1903,-1.2577,-1.3334,-1.4016,-1.5064,-1.7115,-1.7281,-1.7622,-1.926,-1.9393,-1.884,-1.7657,-1.7611,-1.7174,-1.5603,-1.5603,-1.5772,-1.5647,-1.5745,-1.5816,-1.5816,-1.5816,-1.5816,-1.5816,-1.5816,-1.5816,-1.5816,-1.5816,-1.5816,-1.5816,-1.5816,-1.5816,-1.5816,-1.5816,-1.6188,-1.6855,-1.6238,-1.631,-1.7051,-1.6426,-1.6489,-1.7051,-1.6364,-1.6489,-1.7045,-1.6364,-1.6179,-1.6277,-1.6146,-1.626,-1.6456,-1.6331,-1.6358,-1.6472,0.5596,0.4474,0.3355,0.3302,0.2396,0.1917,0.2662,0.3195,0.3515,0.3515,0.3515,0.3036,0.181,0.1704,0.1491,0.0958,0.0905,0.0532,-0.0319,-0.0801,-0.1498,-0.2461,-0.3702,-0.4511,-0.469,-0.5284,-0.5641,-0.5641,-0.5659,-0.5663,-0.5663,-0.5663,-0.5887,-0.6281,-0.6505,-0.678,-0.7175,-0.7175,-0.7175,-0.7231,-0.7398,-0.7342,-0.7231,-0.7398,-0.7737,-0.8188,-0.88,-0.9362,-0.9973,-1.0584,-1.0816,-1.091,-1.1094,-1.1163,-1.1257,-1.1278,-1.129,-1.1298,-1.1363,-1.1404,-1.1425,-1.1425,-1.2005,-1.2775,-1.3456,-1.4184,-1.5287,-1.7271,-1.6854,-1.6897,-1.9185,-1.8782,-1.7985,-1.7561,-1.7532,-1.7067,-1.5586,-1.5532,-1.5613,-1.557,-1.5745,-1.5816,-1.5816,-1.5816,-1.5816,-1.5816,-1.5816,-1.5816,-1.5816,-1.5816,-1.5816,-1.5816,-1.5816,-1.5816,-1.5816,-1.5816,-1.5937,-1.6176,-1.6001,-1.6056,-1.6364,-1.6171,-1.6233,-1.6364,-1.6171,-1.6189,-1.6248,-1.6143,-1.6076,-1.6037,-1.6092,-1.6146,-1.6217,-1.6277,-1.6315,-1.6358,0.6182,0.5485,0.4634,0.4368,0.3408,0.3089,0.4155,0.4315,0.4528,0.5219,0.5273,0.49,0.3832,0.3726,0.346,0.2769,0.2076,0.1491,0.0958,0.0533,-0.0053,-0.1012,-0.2063,-0.3065,-0.3984,-0.4676,-0.5027,-0.5027,-0.5006,-0.501,-0.4997,-0.5016,-0.529,-0.5887,-0.6127,-0.6587,-0.7139,-0.7166,-0.7175,-0.7175,-0.7175,-0.7175,-0.7175,-0.7175,-0.7569,-0.8188,-0.88,-0.9362,-0.9973,-1.0584,-1.0837,-1.0971,-1.1151,-1.1245,-1.129,-1.129,-1.129,-1.131,-1.1404,-1.1457,-1.1537,-1.178,-1.2399,-1.3113,-1.3616,-1.4446,-1.5451,-1.6709,-1.6321,-1.6182,-1.7818,-1.7411,-1.6883,-1.6805,-1.6854,-1.6528,-1.5669,-1.5603,-1.5701,-1.5701,-1.5772,-1.5816,-1.5816,-1.5816,-1.5816,-1.5816,-1.5816,-1.5816,-1.5816,-1.5816,-1.5816,-1.5816,-1.5816,-1.5816,-1.5816,-1.5816,-1.5843,-1.5853,-1.5869,-1.5896,-1.5967,-1.5967,-1.5967,-1.5967,-1.5967,-1.5923,-1.5869,-1.594,-1.5951,-1.5923,-1.5951,-1.6021,-1.6108,-1.6135,-1.6179,-1.6233,0.6711,0.6764,0.6286,0.4794,0.4528,0.4528,0.4528,0.4528,0.506,0.6605,0.6818,0.6818,0.6818,0.6818,0.6179,0.4634,0.3036,0.1863,0.1331,0.1225,0.0905,0.0213,0.0161,-0.0861,-0.3043,-0.3712,-0.4054,-0.4166,-0.4176,-0.4244,-0.4324,-0.4304,-0.4635,-0.5157,-0.5857,-0.6487,-0.7048,-0.7153,-0.7175,-0.7175,-0.7175,-0.7175,-0.7166,-0.7175,-0.7569,-0.8178,-0.88,-0.9362,-0.9973,-1.0592,-1.089,-1.1065,-1.1225,-1.1278,-1.129,-1.129,-1.1298,-1.1318,-1.1404,-1.149,-1.1743,-1.2339,-1.2998,-1.3529,-1.3776,-1.473,-1.5537,-1.5711,-1.5718,-1.569,-1.5805,-1.5673,-1.569,-1.5805,-1.5816,-1.5816,-1.5816,-1.5816,-1.5816,-1.5816,-1.5816,-1.5816,-1.5816,-1.5816,-1.5816,-1.5816,-1.5816,-1.5816,-1.5816,-1.5816,-1.5816,-1.5816,-1.5816,-1.5816,-1.5816,-1.5816,-1.5816,-1.5816,-1.5816,-1.5816,-1.5816,-1.5816,-1.5816,-1.5816,-1.5816,-1.5816,-1.5816,-1.5816,-1.5809,-1.5896,-1.5798,-1.588,-1.6065,-1.5967,-1.5994,-1.6092,0.6711,0.6445,0.6182,0.6233,0.6233,0.6233,0.6233,0.6233,0.6392,0.6764,0.6818,0.6818,0.6818,0.6818,0.6658,0.6286,0.5541,0.4796,0.4208,0.3781,0.2938,0.1454,0.1403,0.0755,-0.07,-0.0923,-0.1422,-0.2312,-0.2362,-0.2804,-0.3699,-0.3708,-0.4055,-0.4685,-0.5311,-0.5927,-0.6488,-0.6999,-0.7175,-0.7175,-0.7175,-0.7147,-0.7112,-0.7161,-0.7537,-0.8116,-0.878,-0.9362,-0.9981,-1.0664,-1.0984,-1.1143,-1.1229,-1.1237,-1.129,-1.129,-1.1339,-1.1404,-1.1412,-1.149,-1.1743,-1.2339,-1.2998,-1.3616,-1.413,-1.4546,-1.4971,-1.5553,-1.5673,-1.5789,-1.5816,-1.5789,-1.5789,-1.5816,-1.5816,-1.5816,-1.5816,-1.5816,-1.5816,-1.5816,-1.5816,-1.5816,-1.5816,-1.5816,-1.5816,-1.5816,-1.5816,-1.5816,-1.5816,-1.5816,-1.5816,-1.5816,-1.5816,-1.5816,-1.5816,-1.5816,-1.5816,-1.5816,-1.5816,-1.5816,-1.5816,-1.5816,-1.5816,-1.5816,-1.5816,-1.5816,-1.5816,-1.5816,-1.5832,-1.5843,-1.5832,-1.5843,-1.5842,-1.5907,-1.5951,-1.5932,0.6764,0.6552,0.6448,0.6764,0.6818,0.6818,0.6818,0.6818,0.6818,0.6818,0.6818,0.6818,0.6818,0.6818,0.6818,0.6818,0.6552,0.6022,0.5168,0.4868,0.4084,0.27,0.2603,0.2341,0.1694,0.1634,0.0817,-0.0875,-0.1477,-0.2083,-0.2642,-0.3206,-0.3821,-0.4491,-0.5062,-0.5686,-0.6301,-0.6908,-0.7134,-0.7134,-0.7104,-0.7076,-0.7055,-0.7112,-0.7503,-0.8091,-0.8773,-0.9579,-1.0376,-1.0797,-1.1016,-1.111,-1.1192,-1.1257,-1.129,-1.129,-1.1318,-1.1372,-1.1412,-1.1457,-1.1741,-1.2636,-1.32,-1.3676,-1.4325,-1.4793,-1.5168,-1.558,-1.5772,-1.5816,-1.5816,-1.5816,-1.5816,-1.5816,-1.5816,-1.5816,-1.5816,-1.5816,-1.5816,-1.5816,-1.5816,-1.5816,-1.5816,-1.5816,-1.5816,-1.5816,-1.5816,-1.5816,-1.5816,-1.5816,-1.5816,-1.5816,-1.5816,-1.5816,-1.5816,-1.5816,-1.5816,-1.5816,-1.5816,-1.5816,-1.5816,-1.5816,-1.5816,-1.5816,-1.5816,-1.5816,-1.5816,-1.5816,-1.5816,-1.5816,-1.5816,-1.5816,-1.5832,-1.5825,-1.5853,-1.5869,0.6818,0.6818,0.6818,0.6818,0.6818,0.6818,0.6818,0.6818,0.6818,0.6818,0.6818,0.6818,0.6818,0.6818,0.6818,0.6818,0.6818,0.6339,0.5328,0.5212,0.4755,0.368,0.3547,0.352,0.3489,0.3495,0.2439,0.0325,-0.0708,-0.1366,-0.1751,-0.2758,-0.3589,-0.4286,-0.4976,-0.5603,-0.6104,-0.6819,-0.709,-0.7085,-0.7027,-0.6992,-0.6992,-0.7063,-0.7527,-0.8186,-0.8773,-0.9757,-1.0852,-1.0951,-1.1024,-1.1078,-1.1225,-1.1278,-1.129,-1.131,-1.131,-1.1331,-1.1404,-1.1425,-1.1713,-1.2996,-1.3382,-1.375,-1.4546,-1.5186,-1.5603,-1.5761,-1.5805,-1.5816,-1.5816,-1.5816,-1.5816,-1.5816,-1.5816,-1.5816,-1.5816,-1.5816,-1.5816,-1.5816,-1.5816,-1.5816,-1.5816,-1.5816,-1.5816,-1.5816,-1.5816,-1.5816,-1.5816,-1.5816,-1.5816,-1.5816,-1.5816,-1.5816,-1.5816,-1.5816,-1.5816,-1.5816,-1.5816,-1.5816,-1.5816,-1.5816,-1.5816,-1.5816,-1.5816,-1.5816,-1.5816,-1.5816,-1.5816,-1.5816,-1.5816,-1.5816,-1.5816,-1.5816,-1.5816,-1.5832,0.6818,0.6818,0.6818,0.6818,0.6818,0.6818,0.6818,0.6818,0.6818,0.6818,0.6818,0.6818,0.6818,0.6818,0.6818,0.6818,0.6818,0.6552,0.5916,0.5426,0.493,0.4311,0.3799,0.3485,0.3489,0.3482,0.286,0.1583,0.1411,0.0272,-0.1805,-0.193,-0.261,-0.3748,-0.4867,-0.5429,-0.5596,-0.6665,-0.709,-0.7085,-0.7027,-0.6967,-0.6932,-0.7049,-0.7776,-0.8719,-0.8916,-0.9794,-1.0877,-1.0898,-1.1016,-1.1151,-1.1171,-1.1225,-1.1298,-1.1384,-1.1404,-1.1404,-1.1425,-1.1425,-1.1704,-1.2912,-1.3334,-1.3786,-1.4993,-1.5439,-1.563,-1.5603,-1.5745,-1.5816,-1.5816,-1.5816,-1.5816,-1.5816,-1.5816,-1.5816,-1.5816,-1.5816,-1.5816,-1.5816,-1.5816,-1.5816,-1.5816,-1.5816,-1.5816,-1.5816,-1.5816,-1.5816,-1.5816,-1.5816,-1.5816,-1.5816,-1.5816,-1.5816,-1.5816,-1.5816,-1.5816,-1.5816,-1.5816,-1.5816,-1.5816,-1.5816,-1.5816,-1.5816,-1.5816,-1.5816,-1.5816,-1.5816,-1.5816,-1.5816,-1.5816,-1.5816,-1.5816,-1.5816,-1.5816,-1.5816,0.7293,0.703,0.6818,0.6818,0.6818,0.6818,0.6818,0.6818,0.6818,0.6818,0.6818,0.6818,0.6818,0.6818,0.6818,0.6818,0.6818,0.6552,0.6022,0.5802,0.5255,0.443,0.4134,0.3884,0.3569,0.3538,0.3241,0.2736,0.2071,0.1199,0.0109,-0.1208,-0.2093,-0.2656,-0.4145,-0.5031,-0.5358,-0.6191,-0.6714,-0.6984,-0.6924,-0.6883,-0.6867,-0.7333,-0.781,-0.8381,-0.924,-1.0128,-1.0898,-1.1004,-1.1156,-1.1229,-1.1216,-1.1257,-1.1298,-1.1339,-1.1351,-1.1351,-1.1351,-1.1578,-1.2045,-1.2997,-1.3621,-1.426,-1.5206,-1.5543,-1.5718,-1.5647,-1.5734,-1.5805,-1.5673,-1.5772,-1.5816,-1.5816,-1.5816,-1.5816,-1.5816,-1.5816,-1.5816,-1.5816,-1.5816,-1.5816,-1.5816,-1.5816,-1.5816,-1.5816,-1.5816,-1.5816,-1.5816,-1.5816,-1.5816,-1.5816,-1.5816,-1.5816,-1.5816,-1.5816,-1.5816,-1.5816,-1.5816,-1.5816,-1.5816,-1.5816,-1.5816,-1.5816,-1.5816,-1.5816,-1.5816,-1.5816,-1.5816,-1.5816,-1.5816,-1.5816,-1.5816,-1.5816,-1.5816,-1.5816]},{"header":{"parameterUnit":"m.s-1","parameterCategory":1,"la1":30.6,"la2":28.766,"lo1":-90.7593,"lo2":-88.6598,"dy":0.0162,"dx":0.0183,"nx":116,"ny":114,"refTime":"2023-04-09T12:00:00:Z","depth":0,"parameterNumber":3,"parameterNumberName":"V-component_of_WINDS"},"data":[0.0,0.0,0.0,0.0,0.0,0.0,0.0,0.0,0.0,0.0,0.0,0.0,0.0,0.0,0.0,0.0,0.0,0.0,0.0,0.0,0.0,0.0,0.0,0.0,0.0,0.0,0.0,0.0,0.0,0.0,0.0,0.0,0.0,0.0,0.0,0.0,0.0,0.0,0.0,0.0,0.0,0.0,0.0,0.0,0.0,0.0,0.0,0.0,0.0,0.0,0.0,0.0,0.0,0.0,0.0,0.0,0.0,0.0,0.0,0.0,0.0,0.0,0.0,0.0,0.0,0.0,0.0,0.0,0.0,0.0,0.0,0.0,0.0,0.0,0.0,0.0,0.0,0.0,0.0,0.0,0.0,0.0,0.0,0.0,0.0,0.0,0.0,0.0,0.0,0.0,0.0,0.0,0.0,0.0,0.0,0.0,0.0,0.0,0.0,0.0,0.0,0.0,0.0,0.0,0.0,0.0,0.0,0.0,0.0,0.0,0.0,0.0,0.0,0.0,0.0,0.0,0.0,0.0,0.0,0.0,0.0,0.0,0.0,0.0,0.0,0.0,0.0,0.0,0.0,0.0,0.0,0.0,0.0,0.0,0.0,0.0,0.0,0.0,0.0,0.0,0.0,0.0,0.0,0.0,0.0,0.0,0.0,0.0,0.0,0.0,0.0,0.0,0.0,0.0,0.0,0.0,0.0,0.0,0.0,0.0,0.0,0.0,0.0,0.0,0.0,0.0,0.0,0.0,0.0,0.0,0.0,0.0,0.0,0.0,0.0,0.0,0.0,0.0,0.0,0.0,0.0,0.0,0.0,0.0,0.0,0.0,0.0,0.0,0.0,0.0,0.0,0.0,0.0,0.0,0.0,0.0,0.0,0.0,0.0,0.0,0.0,0.0,0.0,0.0,0.0,0.0,0.0,0.0,0.0,0.0,0.0,0.0,0.0,0.0,0.0,0.0,0.0,0.0,0.0,0.0,0.0,0.0,0.0,0.0,0.0,0.0,0.0,0.0,0.0,0.0,0.0,0.0,0.0,0.0,0.0,0.0,0.0,0.0,0.0,0.0,0.0,0.0,0.0,0.0,0.0,0.0,0.0,0.0,0.0,0.0,0.0,0.0,0.0,0.0,0.0,0.0,0.0,0.0,0.0,0.0,0.0,0.0,0.0,0.0,0.0,0.0,0.0,0.0,0.0,0.0,0.0,0.0,0.0,0.0,0.0,0.0,0.0,0.0,0.0,0.0,0.0,0.0,0.0,0.0,0.0,0.0,0.0,0.0,0.0,0.0,0.0,0.0,0.0,0.0,0.0,0.0,0.0,0.0,0.0,0.0,0.0,0.0,0.0,0.0,0.0,0.0,0.0,0.0,0.0,0.0,0.0,0.0,0.0,0.0,0.0,0.0,0.0,0.0,0.0,0.0,0.0,0.0,0.0,0.0,0.0,0.0,0.0,0.0,0.0,0.0,0.0,0.0,0.0,0.0,0.0,0.0,0.0,0.0,0.0,0.0,0.0,0.0,0.0,0.0,0.0,0.0,0.0,0.0,0.0,0.0,0.0,0.0,0.0,0.0,0.0,0.0,0.0,0.0,0.0,0.0,0.0,0.0,0.0,0.0,0.0,0.0,0.0,0.0,0.0,0.0,0.0,0.0,0.0,0.0,0.0,0.0,0.0,0.0,0.0,0.0,0.0,0.0,0.0,0.0,0.0,0.0,0.0,0.0,0.0,0.0,0.0,0.0,0.0,0.0,0.0,0.0,0.0,0.0,0.0,0.0,0.0,0.0,0.0,0.0,0.0,0.0,0.0,0.0,0.0,0.0,0.0,0.0,0.0,0.0,0.0,0.0,0.0,0.0,0.0,0.0,0.0,0.0,0.0,0.0,0.0,0.0,0.0,0.0,0.0,0.0,0.0,0.0,0.0,0.0,0.0,0.0,0.0,0.0,0.0,0.0,0.0,0.0,0.0,0.0,0.0,0.0,0.0,0.0,0.0,0.0,0.0,0.0,0.0,0.0,0.0,0.0,0.0,0.0,0.0,0.0,0.0,0.0,0.0,0.0,0.0,0.0,0.0,0.0,0.0,0.0,0.0,0.0,0.0,0.0,0.0,0.0,0.0,0.0,0.0,0.0,0.0,0.0,0.0,0.0,0.0,0.0,0.0,0.0,0.0,0.0,0.0,0.0,0.0,0.0,0.0,0.0,0.0,0.0,0.0,0.0,0.0,0.0,0.0,0.0,0.0,0.0,0.0,0.0,0.0,0.0,0.0,0.0,0.0,0.0,0.0,0.0,0.0,0.0,0.0,0.0,0.0,0.0,0.0,0.0,0.0,0.0,0.0,0.0,0.0,0.0,0.0,0.0,0.0,0.0,0.0,0.0,0.0,0.0,0.0,0.0,0.0,0.0,0.0,0.0,0.0,0.0,0.0,0.0,0.0,0.0,0.0,0.0,0.0,0.0,0.0,0.0,0.0,0.0,0.0,0.0,0.0,0.0,0.0,0.0,0.0,0.0,0.0,0.0,0.0,0.0,0.0,0.0,0.0,0.0,0.0,0.0,0.0,0.0,0.0,0.0,0.0,0.0,0.0,0.0,0.0,0.0,0.0,0.0,0.0,0.0,0.0,0.0,0.0,0.0,0.0,0.0,0.0,0.0,0.0,0.0,0.0,0.0,0.0,0.0,0.0,0.0,0.0,0.0,0.0,0.0,0.0,0.0,0.0,0.0,0.0,0.0,0.0,0.0,0.0,0.0,0.0,0.0,0.0,0.0,0.0,0.0,0.0,0.0,0.0,0.0,0.0,0.0,0.0,0.0,0.0,0.0,0.0,0.0,0.0,0.0,0.0,0.0,0.0,0.0,0.0,0.0,0.0,0.0,0.0,0.0,0.0,0.0,0.0,0.0,0.0,0.0,0.0,0.0,0.0,0.0,0.0,0.0,0.0,0.0,0.0,0.0,0.0,0.0,0.0,0.0,0.0,0.0,0.0,0.0,0.0,0.0,0.0,0.0,0.0,0.0,0.0,0.0,0.0,0.0,0.0,0.0,0.0,0.0,0.0,0.0,0.0,0.0,0.0,0.0,0.0,0.0,0.0,0.0,0.0,0.0,0.0,0.0,0.0,0.0,0.0,0.0,0.0,0.0,0.0,0.0,0.0,0.0,0.0,0.0,0.0,0.0,0.0,0.0,0.0,0.0,0.0,0.0,0.0,0.0,0.0,0.0,0.0,0.0,0.0,0.0,0.0,0.0,0.0,0.0,0.0,0.0,0.0,0.0,0.0,0.0,0.0,0.0,0.0,0.0,0.0,0.0,0.0,0.0,0.0,0.0,0.0,0.0,0.0,0.0,0.0,0.0,0.0,0.0,0.0,0.0,0.0,0.0,0.0,0.0,0.0,0.0,0.0,0.0,0.0,0.0,0.0,0.0,0.0,0.0,0.0,0.0,0.0,0.0,0.0,0.0,0.0,0.0,0.0,0.0,0.0,0.0,0.0,0.0,0.0,0.0,0.0,0.0,0.0,0.0,0.0,0.0,0.0,0.0,0.0,0.0,0.0,0.0,0.0,0.0,0.0,0.0,0.0,0.0,0.0,0.0,0.0,0.0,0.0,0.0,0.0,0.0,0.0,0.0,0.0,0.0,0.0,0.0,0.0,0.0,0.0,0.0,0.0,0.0,0.0,0.0,0.0,0.0,0.0,0.0,0.0,0.0,0.0,0.0,0.0,0.0,0.0,0.0,0.0,0.0,0.0,0.0,0.0,0.0,0.0,0.0,0.0,0.0,0.0,0.0,0.0,0.0,0.0,0.0,0.0,0.0,0.0,0.0,0.0,0.0,0.0,0.0,0.0,0.0,0.0,0.0,0.0,0.0,0.0,0.0,0.0,0.0,0.0,0.0,0.0,0.0,0.0,0.0,0.0,0.0,0.0,0.0,0.0,0.0,0.0,0.0,0.0,0.0,0.0,0.0,0.0,0.0,0.0,0.0,0.0,0.0,0.0,0.0,0.0,0.0,0.0,0.0,0.0,0.0,0.0,0.0,0.0,0.0,0.0,0.0,0.0,0.0,0.0,0.0,0.0,0.0,0.0,0.0,0.0,0.0,0.0,0.0,0.0,0.0,0.0,0.0,0.0,0.0,0.0,0.0,0.0,0.0,0.0,0.0,0.0,0.0,0.0,0.0,0.0,0.0,0.0,0.0,0.0,0.0,0.0,0.0,0.0,0.0,0.0,0.0,0.0,0.0,0.0,0.0,0.0,0.0,0.0,0.0,0.0,0.0,0.0,0.0,0.0,0.0,0.0,0.0,0.0,0.0,0.0,0.0,0.0,0.0,0.0,0.0,0.0,0.0,0.0,0.0,0.0,0.0,0.0,0.0,0.0,0.0,0.0,0.0,0.0,0.0,0.0,0.0,0.0,0.0,0.0,0.0,0.0,0.0,0.0,0.0,0.0,0.0,0.0,0.0,0.0,0.0,0.0,0.0,0.0,0.0,0.0,0.0,0.0,0.0,0.0,0.0,0.0,0.0,0.0,0.0,0.0,0.0,0.0,0.0,0.0,0.0,0.0,0.0,0.0,0.0,0.0,0.0,0.0,0.0,0.0,0.0,0.0,0.0,0.0,0.0,0.0,0.0,0.0,0.0,0.0,0.0,0.0,0.0,0.0,0.0,0.0,0.0,0.0,0.0,0.0,0.0,0.0,0.0,0.0,0.0,0.0,0.0,0.0,0.0,0.0,0.0,0.0,0.0,0.0,0.0,0.0,0.0,0.0,0.0,0.0,0.0,0.0,0.0,0.0,0.0,0.0,0.0,0.0,0.0,0.0,0.0,0.0,0.0,0.0,0.0,0.0,0.0,0.0,0.0,0.0,0.0,0.0,0.0,0.0,0.0,0.0,0.0,0.0,0.0,0.0,0.0,0.0,0.0,0.0,0.0,0.0,0.0,0.0,0.0,0.0,0.0,0.0,0.0,0.0,0.0,0.0,0.0,0.0,0.0,0.0,0.0,0.0,0.0,0.0,0.0,0.0,0.0,0.0,0.0,0.0,0.0,0.0,0.0,0.0,0.0,0.0,0.0,0.0,0.0,0.0,0.0,0.0,0.0,0.0,0.0,0.0,0.0,0.0,0.0,0.0,0.0,0.0,0.0,0.0,0.0,0.0,0.0,0.0,0.0,0.0,0.0,0.0,0.0,0.0,0.0,0.0,0.0,0.0,0.0,0.0,0.0,0.0,0.0,0.0,0.0,0.0,0.0,0.0,0.0,0.0,0.0,0.0,0.0,0.0,0.0,0.0,0.0,0.0,0.0,0.0,0.0,0.0,0.0,0.0,0.0,0.0,0.0,0.0,0.0,0.0,0.0,0.0,0.0,0.0,0.0,0.0,0.0,0.0,0.0,0.0,0.0,0.0,0.0,0.0,0.0,0.0,0.0,0.0,0.0,0.0,0.0,0.0,0.0,0.0,0.0,0.0,0.0,0.0,0.0,0.0,0.0,0.0,0.0,0.0,0.0,0.0,0.0,0.0,0.0,0.0,0.0,0.0,0.0,0.0,0.0,0.0,0.0,0.0,0.0,0.0,0.0,0.0,0.0,0.0,0.0,0.0,0.0,0.0,0.0,0.0,0.0,0.0,0.0,0.0,0.0,0.0,0.0,0.0,0.0,0.0,0.0,0.0,0.0,0.0,0.0,0.0,0.0,0.0,0.0,0.0,0.0,0.0,0.0,0.0,0.0,0.0,0.0,0.0,0.0,0.0,0.0,0.0,0.0,0.0,0.0,0.0,0.0,0.0,0.0,0.0,0.0,0.0,0.0,0.0,0.0,0.0,0.0,0.0,0.0,0.0,0.0,0.0,0.0,0.0,0.0,0.0,0.0,0.0,0.0,0.0,0.0,0.0,0.0,0.0,0.0,0.0,0.0,0.0,0.0,0.0,0.0,0.0,0.0,0.0,0.0,0.0,0.0,0.0,0.0,0.0,0.0,0.0,0.0,0.0,0.0,0.0,0.0,0.0,0.0,0.0,0.0,0.0,0.0,0.0,0.0,0.0,0.0,0.0,0.0,0.0,0.0,0.0,0.0,0.0,0.0,0.0,0.0,0.0,0.0,0.0,0.0,0.0,0.0,7.5243,7.3877,0.0,0.0,0.0,0.0,0.0,0.0,0.0,0.0,0.0,0.0,0.0,0.0,0.0,0.0,0.0,0.0,0.0,0.0,0.0,0.0,0.0,0.0,0.0,5.7551,5.7945,5.8859,5.8991,5.9222,5.9707,5.9715,6.0116,6.0987,6.0597,6.0755,6.1696,6.1658,6.1658,6.1696,6.2923,6.3749,6.414,6.414,6.3278,6.1664,0.0,0.0,0.0,0.0,0.0,0.0,0.0,0.0,0.0,0.0,0.0,0.0,0.0,0.0,0.0,0.0,0.0,0.0,0.0,0.0,0.0,0.0,0.0,0.0,0.0,0.0,0.0,0.0,0.0,0.0,0.0,0.0,0.0,0.0,0.0,0.0,0.0,0.0,0.0,0.0,0.0,0.0,0.0,0.0,0.0,0.0,0.0,0.0,0.0,0.0,0.0,0.0,0.0,0.0,0.0,0.0,0.0,0.0,0.0,0.0,0.0,0.0,0.0,0.0,0.0,0.0,0.0,0.0,0.0,0.0,7.7138,7.5668,0.0,0.0,0.0,0.0,0.0,0.0,0.0,0.0,0.0,0.0,0.0,0.0,0.0,0.0,0.0,0.0,0.0,0.0,0.0,0.0,0.0,5.6667,5.7617,5.7965,5.8549,5.9599,5.9763,6.01,6.0807,6.0858,6.118,6.189,6.1933,6.2015,6.2136,6.2724,6.2804,6.2376,6.4608,6.6084,6.6819,6.6787,6.5271,6.2577,6.2611,0.0,0.0,0.0,0.0,0.0,0.0,0.0,0.0,0.0,0.0,0.0,0.0,0.0,0.0,0.0,0.0,0.0,0.0,0.0,0.0,0.0,0.0,0.0,0.0,0.0,0.0,0.0,0.0,0.0,0.0,0.0,0.0,0.0,0.0,0.0,0.0,0.0,0.0,0.0,0.0,0.0,0.0,0.0,0.0,0.0,0.0,0.0,0.0,0.0,0.0,0.0,0.0,0.0,0.0,0.0,0.0,0.0,0.0,0.0,0.0,0.0,0.0,0.0,7.939,8.0227,8.0923,8.2355,8.2316,8.0962,7.8718,7.7486,7.7022,7.643,0.0,0.0,0.0,0.0,0.0,0.0,0.0,0.0,0.0,0.0,0.0,0.0,0.0,0.0,0.0,0.0,0.0,0.0,0.0,5.7585,5.8542,5.9352,6.0557,6.2311,6.2478,6.2526,6.2655,6.2665,6.2707,6.2815,6.2833,6.3189,6.3925,6.3346,6.3668,6.5,6.6082,6.6689,6.6795,6.6796,6.6521,6.6048,6.6172,6.5384,6.3942,0.0,0.0,0.0,0.0,0.0,0.0,0.0,0.0,0.0,0.0,0.0,0.0,0.0,0.0,0.0,0.0,0.0,0.0,0.0,0.0,0.0,0.0,0.0,0.0,0.0,0.0,0.0,0.0,0.0,0.0,0.0,0.0,0.0,0.0,0.0,0.0,0.0,0.0,0.0,0.0,0.0,7.1439,7.0782,0.0,0.0,0.0,0.0,0.0,0.0,0.0,0.0,0.0,0.0,0.0,0.0,0.0,7.6905,7.7248,7.9585,8.0815,8.1021,8.2658,8.3476,8.3592,8.3824,8.4173,8.4559,8.3515,0.0,7.9763,8.0376,0.0,0.0,0.0,0.0,0.0,0.0,0.0,0.0,0.0,0.0,0.0,0.0,0.0,0.0,0.0,0.0,0.0,0.0,0.0,0.0,0.0,6.0192,6.1571,6.2892,6.342,6.3699,6.3731,6.3703,6.3705,6.3738,6.3743,6.3902,6.4293,6.527,6.6801,6.8923,6.8438,6.871,6.9616,6.959,6.9553,6.9506,6.9563,6.8135,6.5639,6.5152,0.0,0.0,0.0,0.0,0.0,0.0,0.0,0.0,0.0,0.0,0.0,0.0,0.0,0.0,0.0,0.0,0.0,0.0,0.0,0.0,0.0,0.0,0.0,0.0,0.0,0.0,0.0,0.0,0.0,0.0,0.0,0.0,0.0,0.0,0.0,0.0,0.0,0.0,0.0,7.0976,7.1678,7.1291,7.1391,7.1319,0.0,0.0,0.0,0.0,0.0,0.0,0.0,0.0,0.0,7.7627,7.8875,7.9779,8.0306,8.193,8.3034,8.3611,8.4345,8.5255,8.6261,8.6261,8.6687,8.7422,8.661,8.5875,8.5101,8.3044,8.1698,8.0905,0.0,0.0,0.0,0.0,8.0014,8.0015,0.0,0.0,0.0,0.0,0.0,0.0,0.0,0.0,0.0,0.0,0.0,0.0,5.9525,6.1073,6.2475,6.3542,6.4178,6.4453,6.4294,6.4453,6.4375,6.3982,6.4373,6.4609,6.4609,6.7028,6.9158,7.0985,7.0283,7.0533,7.1782,7.1758,7.1839,7.1986,7.1995,7.0263,6.7261,6.6661,6.6169,6.5658,0.0,0.0,0.0,0.0,0.0,0.0,0.0,0.0,0.0,0.0,0.0,0.0,0.0,0.0,0.0,0.0,0.0,0.0,0.0,0.0,0.0,0.0,0.0,0.0,0.0,0.0,0.0,0.0,0.0,0.0,0.0,0.0,0.0,0.0,0.0,0.0,0.0,7.17,7.2816,7.2623,7.3181,7.3557,0.0,0.0,0.0,0.0,0.0,0.0,7.7247,7.8177,7.9078,7.9945,8.1376,8.2424,8.3064,8.4179,8.5147,8.5889,8.6103,8.6949,8.8227,8.8227,8.8582,8.9169,8.8505,8.8582,8.8892,8.5235,8.3463,8.3148,8.3021,8.2957,8.2897,8.2593,8.2432,8.2477,0.0,0.0,0.0,0.0,0.0,0.0,0.0,0.0,0.0,0.0,0.0,5.9566,6.1288,6.2343,6.3582,6.5234,6.539,6.5078,6.4256,6.4997,6.4726,6.3122,6.4648,6.5507,6.5427,6.7941,6.9265,6.9307,7.0823,7.1633,7.1707,7.1634,7.2021,7.2755,7.2798,7.1418,6.8964,6.893,6.8008,6.647,6.56,0.0,0.0,0.0,0.0,0.0,0.0,0.0,0.0,0.0,0.0,0.0,0.0,0.0,0.0,0.0,0.0,0.0,0.0,0.0,0.0,0.0,0.0,0.0,0.0,0.0,0.0,0.0,0.0,0.0,0.0,0.0,0.0,0.0,0.0,0.0,0.0,0.0,0.0,7.6153,7.613,0.0,0.0,0.0,0.0,7.6006,7.7526,7.8801,7.9688,8.1253,8.2563,8.3418,8.4257,8.4749,8.4874,8.6578,8.7502,8.7659,8.8587,8.9047,8.9131,8.9131,8.9169,8.9208,8.9169,8.9169,8.9053,8.7183,8.6874,8.7563,8.7494,8.7415,8.7179,8.6293,8.5898,8.5863,0.0,0.0,0.0,0.0,0.0,5.6016,5.605,5.6064,5.6456,5.742,5.8895,6.0302,6.1525,6.3462,6.492,6.5504,6.6044,6.619,6.5827,6.6131,6.6064,6.5462,6.5998,6.7008,6.8486,6.9557,7.0775,7.2202,7.1859,7.2217,7.3243,7.2647,7.2792,7.3519,7.3539,7.3021,7.2171,7.1718,7.0872,6.9701,6.8312,6.7173,0.0,0.0,0.0,0.0,0.0,0.0,0.0,0.0,0.0,0.0,0.0,0.0,0.0,0.0,0.0,0.0,0.0,0.0,0.0,0.0,0.0,0.0,0.0,0.0,0.0,0.0,0.0,0.0,0.0,0.0,0.0,0.0,0.0,0.0,0.0,0.0,0.0,7.8643,7.8816,0.0,7.8779,7.896,7.9178,7.9446,8.1,8.2058,8.2405,8.4032,8.4858,8.4558,8.6422,8.7186,8.6686,8.8367,8.9301,8.9469,9.0344,9.1054,9.1638,9.1638,9.1948,9.238,9.187,9.1948,9.2303,9.0594,8.9433,8.8723,8.8572,8.8498,8.8375,8.7996,8.7831,8.7786,0.0,0.0,0.0,0.0,5.5986,5.6106,5.6478,5.6586,5.7072,5.8328,5.9818,6.1242,6.2447,6.4645,6.6015,6.5995,6.6994,6.7247,6.6317,6.6853,6.6832,6.5974,6.6411,6.7928,7.0635,7.0816,7.1882,7.3979,7.2961,7.2974,7.4034,7.3438,7.3581,7.4282,7.4282,7.4458,7.4713,7.4257,7.3432,7.2263,7.0887,6.9356,6.7881,0.0,0.0,0.0,0.0,0.0,0.0,0.0,0.0,0.0,0.0,0.0,0.0,0.0,0.0,0.0,0.0,0.0,0.0,0.0,0.0,0.0,0.0,0.0,0.0,0.0,0.0,0.0,0.0,0.0,0.0,0.0,0.0,0.0,0.0,7.6825,7.8409,8.0414,8.0885,8.1182,8.1446,8.1923,8.2346,8.2614,8.4161,8.5072,8.5072,8.6469,8.6971,8.63,8.8188,8.8974,8.8374,9.0124,9.106,9.1173,9.2069,9.2794,9.3418,9.3418,9.3688,9.416,9.365,9.3882,9.4547,9.3456,9.232,9.1202,9.0488,9.0196,9.0188,9.0455,9.0449,9.0372,0.0,0.0,0.0,5.5999,5.6008,5.6312,5.7261,5.7525,5.8259,6.0118,6.1165,6.2409,6.4138,6.5859,6.687,6.6742,6.8296,6.8193,6.5665,6.7046,6.6908,6.4431,6.5872,6.8321,7.1634,7.1684,7.2496,7.412,7.3979,7.3922,7.396,7.3944,7.438,7.5154,7.5154,7.5624,7.6403,7.6403,7.5465,7.3893,7.3094,7.1857,7.0466,0.0,0.0,0.0,0.0,0.0,0.0,0.0,0.0,0.0,0.0,0.0,0.0,0.0,0.0,0.0,0.0,0.0,0.0,0.0,0.0,0.0,0.0,0.0,0.0,0.0,0.0,0.0,0.0,0.0,0.0,0.0,0.0,0.0,7.6654,7.876,8.0653,8.1581,8.2438,8.3328,8.4218,8.4191,8.4459,8.5348,8.6814,8.7696,8.7665,8.8514,8.8938,8.8889,8.9729,9.0149,9.0017,9.1889,9.2827,9.2835,9.3847,9.4353,9.4353,9.4353,9.4353,9.4353,9.4353,9.4856,9.5623,9.5623,9.5578,9.5339,9.357,9.2821,9.2858,9.3615,9.3838,9.3595,0.0,0.0,0.0,5.5999,5.6008,5.6325,5.7338,5.7541,5.8462,6.0919,6.2069,6.3308,6.5036,6.621,6.7107,6.7666,6.8113,6.8043,6.733,6.7684,6.7618,6.6899,6.9064,7.0684,7.1556,7.2714,7.3835,7.4904,7.4214,7.4546,7.5786,7.5105,7.5237,7.6049,7.6049,7.6171,7.6403,7.6403,7.6161,7.5708,7.4801,7.349,7.2077,0.0,0.0,0.0,0.0,0.0,0.0,0.0,0.0,0.0,0.0,0.0,0.0,0.0,0.0,0.0,0.0,0.0,0.0,0.0,0.0,0.0,0.0,0.0,0.0,0.0,0.0,0.0,0.0,0.0,0.0,0.0,7.8821,8.0353,8.0332,8.1447,8.3218,8.5913,8.6416,8.7133,8.8512,8.859,8.8903,8.9753,8.9653,8.9539,8.9486,9.0395,9.0828,9.0623,9.2098,9.2894,9.2869,9.4585,9.5524,9.5679,9.7186,9.7905,9.7905,9.7905,9.7905,9.7905,9.7905,9.8021,9.8245,9.8245,9.8199,9.7943,9.5648,9.4304,9.3668,9.3883,9.3851,9.3595,0.0,0.0,0.0,5.6463,5.6549,5.6991,5.8379,5.8616,5.9498,6.1843,6.2978,6.421,6.5936,6.7226,6.8123,6.8613,6.9256,6.9188,6.8058,6.7954,6.8397,6.9437,7.0897,7.2135,7.3155,7.4097,7.4989,7.579,7.5254,7.5504,7.6449,7.5912,7.5895,7.6403,7.6426,7.6438,7.6438,7.6466,7.6494,7.6482,7.5946,7.4754,7.3344,7.3743,7.3005,7.1758,7.165,7.1362,7.0961,6.9947,0.0,0.0,0.0,0.0,0.0,0.0,0.0,0.0,0.0,0.0,0.0,0.0,0.0,0.0,0.0,0.0,0.0,0.0,0.0,0.0,0.0,0.0,0.0,0.0,8.1698,8.3765,8.4873,8.5086,8.5989,8.8273,8.8887,8.961,9.0889,9.1279,9.1663,9.2173,9.203,9.2063,9.2403,9.2958,9.3191,9.3012,9.4711,9.5453,9.5034,9.6765,9.7688,9.7821,9.881,9.929,9.929,9.929,9.9483,9.9839,9.9839,10.0303,10.0914,10.0496,10.0287,10.0107,0.0,0.0,0.0,0.0,9.5108,9.5134,0.0,0.0,5.653,5.7314,5.7439,5.8045,5.9845,6.0083,6.0811,6.2803,6.377,6.4995,6.6836,6.8359,6.9335,6.9515,7.0828,7.0648,6.8303,6.8278,6.9334,7.1587,7.1937,7.3117,7.5439,7.5507,7.5881,7.6612,7.6521,7.6466,7.6415,7.6415,7.6415,7.6415,7.6455,7.6483,7.6499,7.6586,7.6612,7.6622,7.6617,7.5707,7.447,7.5257,7.4199,7.2373,7.3094,7.2882,7.2184,7.1989,0.0,0.0,0.0,0.0,0.0,0.0,0.0,0.0,0.0,0.0,0.0,0.0,0.0,0.0,0.0,0.0,0.0,0.0,0.0,0.0,0.0,0.0,0.0,0.0,8.4391,8.6892,8.9307,8.9194,8.9048,8.9696,9.0433,9.1318,9.2365,9.3039,9.3497,9.3806,9.4177,9.4821,9.5739,9.5756,0.0,0.0,0.0,9.7633,9.6787,9.8483,9.9334,9.9342,9.953,9.9599,9.9599,9.9677,10.0187,10.0891,10.1007,10.1889,10.3282,10.2508,10.2112,10.1799,9.9898,9.864,9.7781,9.6911,9.7028,9.7403,0.0,5.7526,5.8075,5.8324,5.8337,5.8746,5.9922,6.0083,6.1047,6.3624,6.416,6.5229,6.7695,6.8242,6.8984,7.0347,7.0099,6.9632,6.8992,7.0335,7.131,7.1668,7.3675,7.496,7.5424,7.6037,7.6428,7.6612,7.6602,7.6565,7.6466,7.6466,7.6466,7.6466,7.6432,7.6472,7.6591,7.656,7.6596,7.6677,7.6632,7.6423,7.6128,7.6376,7.6182,7.5751,7.523,7.4954,7.4654,7.3246,7.325,7.3574,7.222,7.2643,0.0,0.0,0.0,0.0,0.0,0.0,0.0,0.0,0.0,0.0,0.0,0.0,0.0,0.0,0.0,0.0,0.0,0.0,0.0,8.4398,8.7083,8.9186,9.0361,9.2216,9.3193,9.2598,9.267,9.3616,9.581,9.5474,9.5969,9.8021,9.7006,9.6652,9.7557,9.758,9.7542,9.7403,9.8407,9.8863,9.8692,9.9713,10.0294,10.028,10.1108,0.0,10.1386,10.2082,10.2508,10.2701,10.3398,10.3901,10.421,10.4017,10.3504,10.2486,10.0102,9.9009,9.8803,9.8513,9.8469,9.8288,0.0,0.0,5.8616,5.9104,5.9248,5.9603,6.0586,6.077,6.1414,6.33,6.3953,6.5261,6.7929,6.8202,6.8867,7.0546,6.9868,6.9665,7.0437,7.131,7.2345,7.3542,7.4817,7.569,7.603,7.6429,7.6638,7.6657,7.6657,7.6627,7.657,7.657,7.657,7.657,7.6537,7.6607,7.6652,7.6614,7.6643,7.669,7.6662,7.6652,7.6652,7.6696,7.6738,7.6678,7.6268,7.6134,7.6011,7.5152,7.5152,7.5358,7.4533,7.4573,7.4694,0.0,0.0,0.0,0.0,0.0,0.0,0.0,0.0,0.0,0.0,0.0,0.0,0.0,0.0,7.8025,8.0112,0.0,8.4136,8.7068,8.9763,9.2032,9.3747,9.5489,9.61,9.4751,9.4979,9.6093,9.8199,9.7943,9.8175,9.9448,9.8648,9.8467,9.9365,9.9359,9.9321,9.9243,10.0094,10.0279,9.9901,10.079,10.1192,10.1317,10.2082,10.2585,10.2585,10.3398,10.4017,10.4519,10.4906,10.5293,10.568,10.5216,10.4487,10.3596,10.219,10.1088,10.0312,9.9805,9.9868,9.9977,0.0,0.0,0.0,5.9915,6.0084,6.0412,6.1235,6.1369,6.1815,6.301,6.3741,6.5209,6.7886,6.82,6.8748,7.0117,6.9827,7.013,7.1473,7.1965,7.3196,7.5413,7.5642,7.6026,7.6682,7.6682,7.6703,7.671,7.671,7.6682,7.6627,7.6627,7.6627,7.6632,7.6667,7.6691,7.671,7.6699,7.6712,7.6682,7.6682,7.6682,7.6717,7.6685,7.669,7.6682,7.6682,7.6682,7.6682,7.6682,7.6682,7.6682,7.6682,7.6242,7.5549,7.4576,7.4847,0.0,0.0,0.0,0.0,0.0,0.0,0.0,0.0,7.6118,7.6777,7.8287,7.9555,8.085,8.2523,8.4825,8.7317,8.977,9.2277,9.4712,9.7121,9.8209,9.8359,9.7276,9.7471,9.8325,9.9879,9.9827,9.9907,10.0411,10.008,10.0384,10.1398,10.12,10.1084,10.1084,10.1812,10.1812,10.1084,10.2005,10.2392,10.2392,10.3088,10.3398,10.3514,10.4287,10.5014,10.571,10.5912,10.6415,10.6887,10.6105,10.5285,10.4589,10.4399,10.3482,10.2302,10.1418,10.1508,10.1906,0.0,0.0,0.0,6.0833,6.093,6.1052,6.1268,6.1352,6.2043,6.3811,6.4126,6.5206,6.7841,6.8159,6.828,6.8476,6.9671,7.0525,7.0635,7.2756,7.4444,7.5452,7.6182,7.6605,7.6682,7.6682,7.6682,7.6717,7.6717,7.6694,7.6686,7.6686,7.6686,7.6686,7.6642,7.6633,7.6712,7.6719,7.6685,7.6682,7.6682,7.6682,7.6682,7.6717,7.6717,7.6682,7.6682,7.6682,7.6682,7.6682,7.6682,7.6682,7.6682,7.6648,7.6281,7.4735,7.4418,7.416,7.2396,7.2703,7.3695,7.4284,7.5051,7.581,0.0,7.7913,7.93,8.0158,8.221,8.4359,8.6093,8.7844,8.9887,9.2526,9.4435,9.6266,9.8087,9.9102,10.0107,10.1389,10.0384,9.9879,10.0812,10.0215,10.0605,10.2889,10.2212,10.2405,10.3993,10.329,10.2895,10.2895,10.3011,10.3011,10.2895,10.3707,10.4086,10.4086,10.421,10.4287,10.4287,10.5208,10.5594,10.571,10.6492,10.6887,10.6887,10.6105,10.5594,10.5478,10.4697,10.4689,10.5089,10.4116,10.3807,10.3588,0.0,0.0,0.0,6.0985,6.1036,6.1098,6.126,6.1309,6.1671,6.2561,6.3528,6.4772,6.6417,6.7527,6.7964,6.7499,6.9364,7.0816,7.1297,7.3711,7.545,7.6226,7.6572,7.6738,7.6682,7.6682,7.6682,7.6682,7.6682,7.6712,7.6694,7.6694,7.6694,7.6694,7.6671,7.6685,7.6687,7.6725,7.675,7.6766,7.6766,7.6766,7.6758,7.6704,7.6682,7.6726,7.6752,7.6764,0.0,7.6764,7.6764,7.676,7.6691,7.6406,7.5841,7.4674,7.5107,7.5987,7.6285,7.6265,7.6336,7.7149,7.8357,7.9478,7.9769,8.0804,8.2075,8.3376,8.4914,8.6538,8.825,8.9991,9.2004,9.4594,9.6455,9.8116,9.9838,10.0789,10.159,10.221,10.1699,10.1589,10.2404,10.2187,10.2401,10.3489,10.36,10.3914,10.4608,10.4218,10.3917,10.3901,10.3398,10.3398,10.3901,10.3784,10.3901,10.4403,10.4898,10.5208,10.5208,10.6105,10.6492,10.6492,10.6802,10.7003,10.7003,10.6608,10.6492,10.6415,10.6105,10.6105,10.6291,10.5404,10.4997,10.4894,0.0,0.0,0.0,0.0,0.0,6.107,6.1279,6.1314,6.1462,6.1884,6.3193,6.4521,6.5687,6.6964,6.7526,6.6907,6.8942,7.0601,7.1486,7.3926,7.5686,7.6475,7.6706,7.6784,7.6725,7.6721,7.6708,7.6682,7.6682,7.6682,7.6682,7.6682,7.6682,7.6682,7.6682,7.6682,7.6687,7.6754,7.6782,7.6786,7.6808,7.6816,7.6812,7.6774,7.6766,7.6778,7.6786,7.679,7.6793,7.6827,7.6876,7.6834,7.6805,7.6402,7.5833,7.499,7.5512,7.6646,7.8151,7.8431,7.8525,7.9583,8.1175,8.2491,8.2663,8.3577,8.4734,8.5974,8.73,8.8701,9.0186,9.1889,9.3939,9.6519,9.8133,9.9628,10.1314,10.2119,10.2383,10.2417,10.2089,10.2311,10.3205,10.3504,10.3803,10.4308,10.479,10.5191,10.5387,10.5122,10.4799,10.479,10.421,10.421,10.479,10.4403,10.4519,10.51,10.5796,10.6105,10.6105,10.6686,10.7003,10.7003,10.7003,10.7003,10.7003,10.7003,10.7003,10.7003,10.7003,10.7003,10.7003,10.6608,10.6399,10.6412,0.0,0.0,0.0,0.0,0.0,6.106,6.1281,6.1295,6.1638,6.2648,6.3542,6.4759,6.6467,6.678,6.6841,6.6814,6.8359,6.972,7.0571,7.3038,7.4827,7.5713,7.6492,7.6882,7.6816,7.6812,7.6774,7.6682,7.6682,7.6682,7.6682,7.6682,7.6682,7.6682,7.6682,7.6682,7.6682,7.6687,7.6687,7.6696,7.6786,7.6816,7.6827,7.6852,7.6894,7.6874,7.6816,7.6794,7.681,7.6936,7.6999,7.6999,7.6999,7.696,7.6772,7.5934,7.5148,7.4751,7.5685,7.7027,7.8602,8.0341,8.2015,8.3466,8.4315,8.5837,8.7125,8.7213,8.9251,9.1241,9.2141,9.3678,9.5689,9.8305,9.9417,10.0497,10.2207,10.2516,10.2494,10.2494,10.1709,10.1484,10.2411,10.31,10.4308,10.6011,10.5994,10.631,10.7086,10.6315,10.569,10.5719,10.5594,10.5594,10.571,10.6492,10.6887,10.6887,10.6879,10.7003,10.7003,10.7003,10.7003,10.7003,10.7003,10.7003,10.7003,10.7003,10.7003,10.7003,10.7003,10.7003,10.7119,10.7885,10.8105,10.8006,0.0,0.0,0.0,0.0,0.0,0.0,0.0,0.0,6.1667,6.2613,6.4016,0.0,0.0,0.0,0.0,0.0,6.8381,6.9724,7.0625,7.3078,7.4894,7.5724,7.6534,7.6973,7.6916,7.6913,7.6902,7.6882,7.6816,7.6777,7.6777,7.6725,7.6682,7.6682,7.6682,7.6717,7.6778,7.6791,7.7517,7.8514,7.7381,7.7628,7.854,7.735,7.6919,7.6895,0.0,7.6979,7.6839,7.6314,7.6517,7.6983,7.701,7.6636,7.6155,7.5906,7.6442,7.7275,7.8082,7.9934,8.1767,8.2316,8.4178,8.5978,8.6272,8.7692,8.8986,8.9038,8.9293,8.9775,9.0634,9.1737,9.3578,9.6743,9.8438,10.0116,10.2287,10.261,10.2292,10.1691,10.1787,10.2106,10.2411,10.2595,10.3492,10.5202,10.5799,10.6499,10.7202,10.6892,10.6703,10.6619,10.6014,10.5989,10.6608,10.6299,10.6415,10.7003,10.7003,10.7003,10.7003,10.7003,10.7003,10.7003,10.7003,10.7003,10.7003,10.7003,10.7003,10.7003,10.7003,10.7003,10.7119,10.8001,10.8603,10.9003,0.0,0.0,0.0,0.0,0.0,0.0,0.0,0.0,0.0,0.0,0.0,0.0,0.0,0.0,0.0,0.0,0.0,6.9263,7.0184,7.238,7.4023,7.4875,7.5691,7.6263,7.6541,7.6573,7.6718,7.6977,7.6882,7.6843,7.6828,7.6769,7.6766,7.6778,7.6746,7.6782,7.6823,7.6876,7.7948,7.9398,7.769,7.8052,7.9429,7.7621,7.6995,0.0,7.6732,7.6854,7.7,7.6414,7.661,7.7077,7.7069,7.6727,7.6389,7.6705,7.7747,7.9081,8.0211,8.2398,8.4392,8.4663,8.6476,8.8175,8.8193,8.9358,9.0397,9.0406,8.9754,8.9448,9.0307,9.0663,9.1875,9.5039,9.6713,9.8604,10.1408,10.1702,10.1586,10.1318,10.2003,10.2279,10.2007,10.25,10.35,10.5202,10.6095,10.6802,10.7281,10.7311,10.7195,10.7091,10.6487,10.6486,10.7003,10.6415,10.6415,10.7003,10.7003,10.7003,10.7003,10.7003,10.7003,10.7003,10.7003,10.7003,10.7003,10.7003,10.7003,10.7003,10.7003,10.7197,10.7622,10.8388,10.9316,11.0012,0.0,0.0,0.0,0.0,0.0,0.0,0.0,0.0,0.0,0.0,0.0,0.0,0.0,0.0,0.0,0.0,0.0,0.0,6.9329,7.0974,7.2358,7.3277,7.4138,7.4922,7.5615,7.5762,7.6136,7.685,7.6946,7.6962,7.6897,7.684,7.6822,7.6885,7.6823,7.6868,7.6891,7.6921,7.7914,7.9371,7.7671,7.8043,7.9413,7.7757,7.7141,7.7106,7.6247,7.6483,7.7187,7.7148,7.7187,7.7265,7.7265,7.7305,7.75,7.8313,7.9114,8.0177,8.1856,8.4188,8.6336,8.7153,8.8711,9.0036,9.0101,9.0809,9.1438,9.1367,9.0586,9.0117,9.0937,9.0469,9.0781,9.3476,9.4682,9.6499,9.9863,10.0285,10.0499,10.1284,10.2097,10.2305,10.1483,10.2883,10.4598,10.6113,10.6917,10.7313,10.7288,10.732,10.7213,10.7099,10.7091,10.7091,10.7003,10.7003,10.7119,10.7119,10.7119,10.7119,10.7119,10.7119,10.6995,10.7003,10.7003,10.7003,10.7003,10.7003,10.7003,10.7003,10.6995,10.7622,10.8388,10.9316,11.009,11.0786,0.0,0.0,0.0,0.0,0.0,0.0,0.0,0.0,0.0,0.0,0.0,0.0,0.0,0.0,0.0,0.0,0.0,0.0,6.9217,7.0416,7.1683,7.3175,7.4126,7.4681,7.488,7.5545,7.5976,7.6133,7.6712,7.6975,7.6972,7.6921,7.6889,7.6891,7.6941,7.6956,7.6958,7.6961,7.8002,7.9512,7.7756,7.8111,7.9483,7.7807,7.7183,7.7184,7.6952,7.6992,7.7109,7.6445,7.7109,7.8164,7.8164,7.8594,7.9219,8.0077,8.136,8.2752,8.3839,8.6008,8.7979,8.8213,9.0078,9.1856,9.1862,9.2573,9.3046,9.2383,9.0078,8.8203,8.8437,8.8789,9.0117,9.3359,9.621,9.8977,10.1703,10.2115,10.1916,10.1486,10.2599,10.3196,10.2301,10.4318,10.5796,10.6193,10.6383,10.6798,10.7313,10.7301,10.73,10.7305,10.7202,10.709,10.7091,10.7685,10.8001,10.8001,10.8581,10.8504,10.8001,10.8001,10.7622,10.7003,10.7003,10.7003,10.7003,10.7003,10.7003,10.7119,10.7691,10.8078,10.8504,10.9896,11.0593,11.0902,0.0,0.0,0.0,0.0,0.0,0.0,0.0,0.0,0.0,0.0,0.0,0.0,0.0,0.0,0.0,0.0,0.0,0.0,0.0,6.9793,7.0866,7.2551,7.3123,7.3603,7.3992,7.4472,7.51,7.5842,7.6286,7.6719,7.7031,7.6976,7.6963,7.7007,7.6988,7.7035,7.7055,7.7059,7.8082,0.0,0.0,7.8125,7.9492,7.7812,7.7148,7.7148,7.7187,7.7187,7.7148,7.664,7.7617,7.9023,7.9022,7.9842,8.1015,8.1836,8.3046,8.4331,8.5575,8.7798,8.9826,9.0213,9.2022,9.3397,9.2223,9.2694,9.2773,9.0781,8.8515,8.6914,8.6914,8.7617,8.9179,9.2265,9.5312,9.8357,10.1296,10.1705,10.1707,10.1886,10.3107,10.3694,10.3188,10.5113,10.641,10.6308,10.6608,10.7216,10.8002,10.7616,10.7495,10.7895,10.7816,10.7893,10.8207,10.8592,10.8813,10.8813,10.9316,10.9316,10.8813,10.8504,10.8001,10.7498,10.7197,10.7003,10.7003,10.7003,10.7003,10.7119,10.8001,10.8504,10.9007,11.0283,11.101,11.1396,0.0,0.0,0.0,0.0,0.0,0.0,0.0,0.0,0.0,0.0,6.4515,6.5401,6.6377,6.6505,0.0,0.0,0.0,0.0,0.0,0.0,7.0076,7.1809,7.1909,7.2234,7.3016,7.3319,7.4151,7.5636,7.5918,7.6434,7.7103,7.7031,7.7031,7.7109,7.7029,7.7068,7.7109,7.7107,7.7965,7.9214,7.7726,7.7996,7.9208,0.0,7.7098,7.7099,7.7026,7.7029,7.7031,7.7145,7.8397,7.9882,7.9992,8.1242,8.2847,8.3749,8.4531,8.5508,8.7184,8.9491,9.1562,9.2304,9.3866,9.4527,9.203,9.1953,9.1523,8.832,8.6875,8.6211,8.6328,8.7187,8.8711,9.1367,9.3984,9.6913,10.0299,10.0701,10.1287,10.2911,10.3819,10.4198,10.4198,10.5679,10.6602,10.6598,10.7218,10.7898,10.8599,10.7893,10.7802,10.8607,10.8594,10.892,10.9485,10.9498,10.9488,10.9488,10.9703,10.9819,10.9587,10.8813,10.8388,10.8319,10.739,10.7003,10.7003,10.7119,10.7197,10.7313,10.8194,10.9084,10.9819,11.0709,11.1521,11.2093,0.0,0.0,0.0,0.0,0.0,0.0,0.0,0.0,0.0,0.0,6.3892,6.4657,0.0,0.0,0.0,0.0,0.0,0.0,0.0,0.0,0.0,7.1826,7.1887,7.1985,7.212,7.3532,7.4439,7.4724,7.6171,7.6953,7.7112,7.7088,7.7093,7.7092,7.7101,7.7104,7.7101,7.71,7.7256,7.753,7.7216,7.7293,7.7528,7.7215,7.7098,0.0,7.6357,7.6124,7.6241,7.6896,7.8739,8.0895,8.163,8.3034,8.4754,8.6278,8.6826,8.7334,8.9055,9.0929,9.2372,9.253,9.3856,9.4636,9.2802,9.1944,9.0968,8.8897,8.7218,8.6321,8.7067,8.8474,9.0663,9.3984,9.6679,9.953,10.2995,10.3397,10.3707,10.4709,10.5612,10.5995,10.5995,10.7008,10.7589,10.7619,10.7689,10.7782,10.771,10.7582,10.7903,10.8685,10.8582,10.8697,10.8786,10.9299,10.9608,10.9608,11.1005,11.1289,11.0515,10.9703,10.8891,10.8319,10.739,10.7003,10.7119,10.7816,10.8078,10.8194,10.978,11.0515,11.0709,11.159,11.2015,11.2093,0.0,0.0,0.0,0.0,0.0,0.0,0.0,6.1814,6.2704,6.3598,6.4121,6.4938,6.6212,6.6398,6.6442,0.0,0.0,0.0,0.0,0.0,0.0,7.1175,7.1668,7.1881,7.1893,7.3152,7.4059,7.4497,0.0,7.6659,7.7087,7.7106,7.7112,7.7112,7.7118,7.7083,7.7083,7.7083,7.7083,7.7083,7.7083,7.7083,7.7083,7.7083,7.7086,0.0,7.6154,7.6157,7.6589,7.6969,7.9123,8.1983,8.3733,8.5174,8.6541,8.8259,8.8411,8.8445,9.0202,9.192,9.3444,9.435,9.5171,9.4978,9.1938,9.0924,8.9753,8.6666,8.5733,8.5735,8.6555,8.8161,9.0155,9.2733,9.6054,9.9062,10.1208,10.299,10.4209,10.4595,10.5396,10.6002,10.6506,10.6891,10.732,10.7788,10.7788,10.8096,10.8886,10.8905,10.8998,10.9397,10.8788,10.9213,11.0612,11.0291,11.0521,11.0987,11.171,11.1899,11.1396,11.0593,11.0012,10.9587,10.8697,10.831,10.831,10.8813,10.8891,10.9007,11.0283,11.0786,11.0894,11.1783,11.2093,11.2093,0.0,0.0,0.0,0.0,0.0,0.0,0.0,6.207,6.2975,6.3869,6.472,6.5509,6.6206,6.6329,6.6381,0.0,0.0,0.0,0.0,0.0,0.0,0.0,7.1401,7.1967,7.2162,0.0,0.0,7.478,7.5657,0.0,0.0,0.0,0.0,0.0,7.7094,7.7095,7.7095,7.71,7.7101,0.0,0.0,7.7101,7.7101,0.0,0.0,0.0,0.0,7.6259,7.6854,7.7035,7.9146,8.2163,8.4733,8.6257,8.7431,8.899,8.9097,8.9164,9.1272,9.2912,9.4438,9.6014,9.6252,9.5044,9.0954,8.9707,8.8379,8.4628,8.4401,8.5185,8.6196,8.765,8.9256,9.1012,9.4296,9.7304,9.9297,10.1713,10.3685,10.4705,10.528,10.5884,10.6704,10.6813,10.7086,10.771,10.8099,10.8819,10.9894,10.9983,11.0209,11.0309,10.9286,10.9897,11.2087,11.1088,11.0999,11.1878,11.1912,11.1899,11.2093,11.1018,11.0593,11.0786,10.9896,10.9509,10.9509,10.9703,10.9819,10.9896,11.07,11.1095,11.1203,11.1783,11.2093,11.2093,0.0,0.0,0.0,0.0,0.0,0.0,0.0,6.3009,6.3908,6.4759,6.561,6.6113,6.6195,6.6284,6.634,0.0,0.0,0.0,0.0,0.0,0.0,0.0,0.0,0.0,0.0,0.0,0.0,7.5675,7.6499,0.0,0.0,0.0,0.0,0.0,0.0,7.7116,7.7116,7.7095,0.0,0.0,0.0,0.0,0.0,0.0,0.0,0.0,0.0,7.5856,7.6026,7.6749,7.8265,8.0302,8.2938,8.4876,8.6414,8.7375,8.8149,8.9398,9.2678,9.4278,9.5215,9.6154,9.5803,9.4282,9.0809,8.8779,8.7098,8.5107,8.4758,8.531,8.6962,8.8059,8.9278,9.1011,9.2301,9.4998,10.0586,10.1009,10.2395,10.7009,10.6919,10.6696,10.7601,10.771,10.771,10.7788,10.9186,10.9788,10.9115,10.971,11.0504,11.1198,11.0291,11.0295,11.1311,11.0213,11.0205,11.0995,11.0983,11.128,11.2015,11.0399,11.009,11.0786,10.9896,10.9509,10.9587,11.0399,11.0709,11.0786,11.159,11.2015,11.2015,11.2093,11.2093,11.2093,0.0,0.0,0.0,0.0,0.0,0.0,6.2191,6.3115,6.4024,6.4875,6.5682,6.6185,6.6185,6.6205,6.6279,6.6331,0.0,0.0,0.0,0.0,0.0,0.0,0.0,0.0,0.0,0.0,7.4794,7.568,7.6557,0.0,0.0,0.0,0.0,0.0,0.0,7.7057,7.7057,7.7026,0.0,0.0,0.0,0.0,0.0,0.0,0.0,0.0,0.0,0.0,7.6587,7.6891,7.8148,7.9602,7.96,8.1141,8.3543,8.6511,8.7637,8.8644,9.209,9.4044,9.5449,9.6816,9.6113,9.4356,9.1428,8.9437,8.7681,8.5924,8.558,8.5938,8.7183,8.7666,8.8146,8.8851,9.0574,9.2845,9.5779,9.7656,10.0306,10.4315,10.4914,10.5687,10.7605,10.7788,10.7982,10.8489,10.9615,11.0113,10.9784,11.0104,11.0398,11.0716,10.9195,10.9081,11.0517,10.9894,10.998,11.0918,11.1408,11.1783,11.2093,11.1396,11.1289,11.159,11.1203,11.1095,11.1095,11.1396,11.159,11.159,11.2015,11.2093,11.2093,11.2093,11.2093,11.2093,0.0,0.0,0.0,0.0,0.0,6.1336,6.2186,6.311,6.4024,6.4875,6.5682,6.6185,6.6185,6.6185,6.62,6.6279,6.6317,0.0,0.0,0.0,0.0,0.0,0.0,0.0,0.0,0.0,7.4749,7.5638,7.6547,7.696,0.0,0.0,7.6963,7.697,0.0,0.0,0.0,0.0,0.0,0.0,0.0,0.0,0.0,0.0,0.0,0.0,0.0,0.0,0.0,0.0,0.0,7.8587,7.7358,7.8228,8.0521,8.4654,8.6408,8.7805,9.1486,9.3754,9.5471,9.7227,9.6178,9.4113,9.181,8.9745,8.7876,8.6392,8.6091,8.6367,8.7253,8.7621,8.771,8.7432,8.9392,9.1314,9.2455,9.4918,9.7851,10.1214,10.2402,10.3883,10.6388,10.7605,10.8411,10.9112,11.0083,11.0589,11.0316,11.0286,11.0313,11.0209,10.8615,10.8491,10.9987,10.9514,10.9709,11.0484,11.0789,11.1203,11.1706,11.1396,11.1521,11.1706,11.2015,11.2015,11.1706,11.2015,11.2093,11.2093,11.2093,11.2093,11.2093,11.2093,11.2093,11.2093,0.0,0.0,0.0,0.0,0.0,0.0,6.2274,6.3129,6.4024,6.4875,6.5682,6.6185,6.6185,6.6185,6.6185,6.6185,6.6185,0.0,0.0,0.0,0.0,0.0,0.0,0.0,0.0,0.0,7.4826,7.5713,7.6495,7.6927,7.6996,7.6933,7.6915,7.6907,0.0,0.0,0.0,0.0,0.0,0.0,0.0,0.0,7.6918,0.0,0.0,0.0,0.0,0.0,0.0,0.0,0.0,0.0,0.0,7.6922,7.7631,8.1195,8.4025,8.6951,9.1322,9.3702,9.5416,9.7171,9.5671,9.3348,9.1592,8.9228,8.7172,8.6275,8.608,8.6353,8.725,8.811,8.839,8.7545,8.8876,9.0638,9.2369,9.3353,9.5195,9.855,9.9692,10.1204,10.3797,10.7086,10.9112,10.9108,11.0589,11.1213,11.0316,11.0316,11.0312,11.0209,10.9198,10.9094,10.992,10.891,10.878,10.9593,10.87,10.92,11.0786,10.9896,11.0012,11.0902,11.1706,11.159,11.0902,11.1706,11.2093,11.2093,11.2093,11.2093,11.2093,11.2093,11.2093,11.2093,0.0,0.0,0.0,0.0,0.0,0.0,0.0,6.3129,6.4024,6.4875,6.5682,6.6185,6.6185,6.6185,6.6185,6.6185,6.6185,0.0,0.0,0.0,0.0,0.0,0.0,0.0,0.0,7.3775,7.4674,7.5567,7.6408,7.6851,7.6929,7.6908,7.6915,7.6907,7.6883,7.6894,0.0,0.0,0.0,0.0,7.6914,7.6904,7.689,0.0,0.0,0.0,0.0,0.0,0.0,0.0,0.0,0.0,0.0,0.0,0.0,7.8971,8.136,8.4086,8.7224,8.9296,9.0896,9.2066,9.172,9.083,8.9696,8.8804,8.795,8.7091,8.6948,8.7075,8.7349,8.7633,8.7917,8.8234,8.8743,8.9491,9.0678,9.4087,9.7536,10.0308,10.4614,10.709,10.6587,10.8706,10.9717,10.9117,11.0706,11.1018,10.9615,10.9498,10.9485,10.9416,10.8493,10.8099,10.8313,10.9113,10.9283,10.891,10.9717,10.9987,11.0018,10.9612,11.0012,11.0786,11.1095,11.1396,11.1706,11.2015,11.2093,11.2093,11.2093,11.2093,11.2093,11.2093,11.2093,11.2093,0.0,0.0,0.0,0.0,0.0,0.0,0.0,6.2665,6.3521,6.4411,6.5223,6.5876,6.6185,6.6185,6.634,6.665,6.6688,0.0,0.0,0.0,0.0,0.0,0.0,0.0,7.2332,7.3544,7.4479,7.5067,7.6218,7.6817,7.6894,7.6864,7.6828,7.6866,7.6828,7.6832,0.0,0.0,0.0,0.0,7.6867,7.6864,7.6809,0.0,0.0,0.0,0.0,0.0,0.0,0.0,0.0,0.0,0.0,0.0,0.0,0.0,7.9118,8.1391,8.4616,8.6769,8.8368,8.9574,8.939,8.8852,8.8654,8.8077,8.7575,8.7341,8.7314,8.7367,8.7417,8.7661,8.7943,8.8187,8.9047,9.0108,9.1258,9.5333,9.9254,10.2103,10.6692,10.8799,10.6989,10.8708,10.9716,10.9082,11.0298,11.0511,10.919,10.9108,10.8913,10.8606,10.8282,10.7987,10.751,10.878,10.9003,10.8101,10.9003,10.9415,10.9214,10.9089,10.9512,11.0402,11.0678,11.1087,0.0,11.2015,11.2093,11.2093,11.2093,11.2093,11.2093,11.2093,11.2286,11.2488,0.0,0.0,0.0,0.0,0.0,0.0,0.0,6.1848,6.2704,6.3598,6.445,6.5301,6.6108,6.6185,6.6533,6.7346,0.0,0.0,0.0,0.0,0.0,0.0,0.0,0.0,7.1589,7.3231,7.4126,7.4201,7.5876,7.6731,7.6808,7.6725,7.6747,7.6789,7.6743,7.6747,7.6789,0.0,0.0,0.0,7.6768,7.676,0.0,0.0,0.0,0.0,0.0,0.0,0.0,0.0,0.0,0.0,0.0,0.0,0.0,0.0,0.0,0.0,0.0,8.5455,8.7131,8.8767,8.8092,8.722,8.8035,8.7083,0.0,8.7021,8.7258,8.7307,8.7369,8.8,8.8281,8.7596,8.9592,9.1826,9.3563,9.7051,10.07,10.4015,10.6589,10.74,10.5607,10.759,10.9114,10.8991,10.978,10.9888,10.9112,10.8991,10.8606,10.7788,10.8598,10.859,10.7602,10.831,10.8283,10.7383,10.7396,10.7791,10.8489,10.8408,10.8904,10.9701,11.0402,11.0786,11.1018,11.1783,11.2093,11.2093,11.2093,11.2093,11.2093,11.2093,11.2604,11.3309,0.0,0.0,0.0,0.0,0.0,0.0,0.0,0.0,0.0,0.0,6.445,6.5301,6.6108,6.6185,6.6263,0.0,0.0,0.0,0.0,0.0,0.0,0.0,0.0,0.0,7.1527,7.2621,7.3211,7.3219,7.496,7.5819,7.5827,7.6424,7.6747,7.6789,7.6743,7.673,7.67,7.6752,0.0,0.0,7.6734,7.6691,0.0,0.0,0.0,0.0,7.6739,7.6739,0.0,0.0,0.0,0.0,0.0,0.0,0.0,0.0,7.706,7.7588,7.9322,0.0,8.2413,8.2802,8.363,8.438,0.0,8.5357,8.6065,8.626,8.6824,8.7312,8.732,8.7509,8.7809,8.8242,8.9429,9.1124,9.3485,9.9629,10.4681,10.6796,10.8789,10.8982,10.6485,10.8018,10.8883,10.8214,10.8883,10.8991,10.8216,10.8099,10.7982,10.7788,10.8593,10.8602,10.7695,10.8486,10.8388,10.7482,10.8712,10.8994,10.8606,10.8489,10.9314,11.0608,11.0111,11.0612,11.1783,11.2015,11.2093,11.2093,11.2093,11.2093,11.2093,11.2093,11.2604,11.3184,0.0,0.0,0.0,0.0,0.0,0.0,0.0,0.0,0.0,0.0,0.0,6.4875,6.6069,6.6185,0.0,0.0,0.0,0.0,0.0,0.0,0.0,0.0,0.0,7.1489,7.1489,7.2401,7.2914,7.2914,7.4239,7.5098,7.5526,7.5949,7.6389,7.676,7.6734,7.6488,7.6182,7.6548,7.6694,7.669,7.6667,0.0,0.0,0.0,0.0,0.0,7.6685,7.6694,0.0,7.6717,7.6682,7.6682,0.0,0.0,0.0,0.0,7.6897,7.7028,7.7566,7.8672,7.9724,8.0114,8.1205,8.2299,8.2692,8.3822,8.5027,8.5845,8.6368,8.6815,8.722,8.7336,8.7521,8.7961,9.0137,9.3324,9.7907,10.2796,10.6513,10.7809,10.9215,10.9296,10.7417,10.8102,10.8381,10.7905,10.8308,10.8291,10.7788,10.7788,10.7788,10.7788,10.8294,10.8282,10.7788,10.8493,10.8398,10.7588,10.8788,10.8912,10.8097,10.88,10.9621,11.0391,11.0314,11.09,11.2093,11.2093,11.2093,11.2093,11.2093,11.2093,11.2093,11.2093,11.2914,11.3687,0.0,0.0,0.0,0.0,0.0,0.0,0.0,0.0,0.0,0.0,0.0,0.0,0.0,0.0,0.0,0.0,0.0,0.0,0.0,0.0,0.0,0.0,7.1252,7.1387,7.1504,7.2298,7.2733,7.2733,7.3695,7.4589,7.5293,7.5565,7.6061,7.6712,7.6703,7.6315,7.5694,7.639,7.6682,7.6682,7.6632,0.0,0.0,0.0,0.0,0.0,0.0,0.0,0.0,7.666,7.6712,7.6712,7.6682,0.0,0.0,0.0,0.0,0.0,7.6975,7.7937,7.8962,7.9259,8.0075,8.0971,8.1714,8.2692,8.3822,8.5299,8.5806,8.6244,8.6977,8.7203,8.7348,8.7564,9.1512,9.6731,10.2792,10.549,10.7092,10.7519,10.8504,10.8783,10.7885,10.7888,10.7984,10.7914,10.778,10.7795,10.7808,10.7792,10.7788,10.7788,10.7788,10.7788,10.7788,10.8391,10.8297,10.7597,10.8292,10.8309,10.7688,10.9184,11.0009,11.0001,11.0701,11.1389,11.2118,11.2101,11.2093,11.2093,11.2093,11.2093,11.2093,11.2093,11.3107,11.419,0.0,0.0,0.0,0.0,0.0,0.0,0.0,0.0,0.0,0.0,0.0,0.0,0.0,0.0,0.0,0.0,0.0,0.0,0.0,0.0,0.0,7.0175,7.0399,7.0817,7.1472,7.1761,7.1882,7.1882,7.344,7.4278,7.4434,7.5871,7.6587,7.6705,7.6657,7.656,7.6443,7.655,7.6627,7.6627,7.6617,0.0,0.0,0.0,0.0,0.0,0.0,0.0,0.0,7.6419,7.6705,7.6715,7.6712,0.0,0.0,0.0,0.0,0.0,7.6904,7.9208,8.109,7.9001,7.9646,8.0854,8.0971,8.2221,8.3471,8.3744,8.4988,8.6043,8.6166,8.6799,8.7536,8.8285,9.3925,9.9066,10.1591,10.5312,10.7307,10.6001,10.7188,10.7905,10.7018,10.7617,10.7999,10.7987,10.792,10.7814,10.7805,10.7784,10.7788,10.7788,10.7788,10.7788,10.7788,10.7807,10.7713,10.7597,10.8292,10.8581,10.8504,10.9501,11.0388,11.1018,11.1009,11.1399,11.2202,11.2088,11.2093,11.2093,11.2093,11.2093,11.2093,11.2093,11.272,11.361,0.0,0.0,0.0,0.0,0.0,0.0,0.0,0.0,0.0,0.0,0.0,0.0,0.0,0.0,0.0,0.0,0.0,0.0,0.0,0.0,6.8687,7.0064,7.0238,7.0662,7.1488,7.1581,7.1851,7.2293,7.3109,7.3937,7.4819,7.6061,7.64,7.5949,7.639,7.6341,7.5948,7.6343,7.6565,7.6526,0.0,0.0,0.0,0.0,0.0,0.0,0.0,0.0,0.0,0.0,7.6308,7.6705,7.6708,0.0,0.0,0.0,0.0,0.0,7.6897,7.8129,7.9419,7.9616,8.2357,8.49,8.4468,8.568,8.6763,8.6301,8.6838,8.7373,8.7371,8.8473,9.0752,9.497,9.7133,9.9525,10.3119,10.3703,10.4205,10.5287,10.6087,10.6804,10.7318,10.7808,10.8007,10.8,10.7894,10.7896,10.7907,10.7811,10.781,10.781,10.7808,10.7814,10.7706,10.7598,10.7597,10.7597,10.8292,10.8698,10.8698,11.0096,11.0912,11.1187,11.1579,11.1886,11.2188,11.2185,11.2105,11.2093,11.2093,11.2093,11.2209,11.2604,11.2991,11.3494,0.0,0.0,0.0,0.0,0.0,0.0,0.0,0.0,0.0,0.0,0.0,0.0,0.0,0.0,0.0,0.0,0.0,0.0,0.0,6.7191,6.8001,6.9789,6.9725,7.0261,7.1507,7.1568,7.2008,7.2823,7.3031,7.4009,7.5638,7.6286,7.6204,7.5617,7.6265,7.6183,7.5596,7.6212,7.6466,7.646,0.0,0.0,0.0,0.0,0.0,0.0,0.0,0.0,0.0,0.0,0.0,0.0,0.0,0.0,0.0,7.6764,7.6809,7.689,7.6887,7.752,7.8653,8.0644,8.3986,8.6882,8.727,8.8363,8.9173,8.8935,8.9211,8.9281,8.8625,9.0309,9.369,9.9447,9.9559,10.0491,10.5114,10.3503,10.2789,10.5717,10.6003,10.6484,10.7892,10.7993,10.8005,10.8007,10.7999,10.7983,10.7918,10.7782,10.7817,10.7817,10.7788,10.7801,10.7714,10.7583,10.7591,10.7615,10.8092,10.8504,10.8814,11.0291,11.1113,11.1293,11.2094,11.228,11.2181,11.2204,11.2216,11.2093,11.2093,11.2093,11.2209,11.2991,11.33,11.3494,0.0,0.0,0.0,0.0,0.0,0.0,0.0,0.0,0.0,0.0,0.0,0.0,0.0,0.0,0.0,0.0,0.0,0.0,0.0,6.6301,6.708,6.8826,6.8181,6.9036,7.1645,7.1618,7.2025,7.2871,7.3563,7.4795,7.6496,7.6515,7.645,7.6411,7.6399,7.6376,7.6338,7.637,7.6409,7.6409,7.6403,0.0,0.0,0.0,0.0,0.0,0.0,0.0,0.0,0.0,0.0,0.0,0.0,0.0,7.6682,7.6726,7.676,7.6809,7.689,7.9286,8.1782,8.2036,8.173,8.2392,8.6329,8.7303,8.7845,8.9398,9.1014,9.1387,8.8937,9.1284,9.4308,9.642,9.9978,10.3413,10.6187,10.6382,10.6614,10.7708,10.7786,10.7913,10.8008,10.7984,10.7997,10.8004,10.8004,10.799,10.7989,10.792,10.7817,10.7817,10.7788,10.7801,10.7714,10.7583,10.7609,10.751,10.7485,10.7882,10.8698,10.9708,11.0517,11.1288,11.2115,11.2394,11.2305,11.2189,11.2216,11.2093,11.2093,11.2093,11.2209,11.2991,11.33,11.361,0.0,0.0,0.0,0.0,0.0,0.0,0.0,0.0,0.0,0.0,0.0,0.0,0.0,0.0,0.0,0.0,0.0,0.0,0.0,6.6753,6.7614,6.8887,6.917,7.0054,7.1661,7.1089,7.1711,7.3648,7.487,7.5813,7.6472,7.6444,7.6432,7.6432,7.6415,7.6403,7.6403,7.6403,7.6403,7.6403,7.6403,7.6403,0.0,0.0,0.0,0.0,0.0,0.0,0.0,0.0,7.6182,7.6657,7.6699,7.6682,7.6682,7.6682,7.6777,7.6875,7.6894,7.9068,8.1482,8.1998,8.3092,8.5178,8.9504,9.1345,9.2118,9.2195,9.3181,9.3541,9.2033,9.5046,9.8168,9.939,10.1383,10.3882,10.7083,10.6107,10.5599,10.7005,10.72,10.7204,10.7212,10.7706,10.7993,10.7997,10.8007,10.8005,10.8005,10.7982,10.7905,10.7915,10.7817,10.7687,10.7588,10.7607,10.751,10.7413,10.7389,10.8115,10.9514,10.9779,11.0796,11.2117,11.2401,11.2398,11.2313,11.2282,11.2188,11.2093,11.2093,11.2402,11.2914,11.3184,11.3997,11.5002,0.0,0.0,0.0,0.0,0.0,0.0,0.0,0.0,0.0,0.0,0.0,0.0,0.0,0.0,0.0,0.0,0.0,0.0,6.624,6.6858,6.7623,6.8562,6.9161,7.0052,7.1272,7.0645,7.152,7.4063,7.5625,7.6249,7.6011,7.6287,7.6403,7.6403,7.6403,7.6403,7.6403,7.6403,7.6403,7.6403,7.6403,7.6403,0.0,0.0,0.0,0.0,0.0,0.0,0.0,0.0,7.6138,7.6652,7.6699,7.6682,7.6682,7.6682,7.6781,7.6879,7.6894,7.8231,8.0053,8.1717,8.3677,8.6478,9.1364,9.3392,9.4308,9.4463,9.4532,9.4661,9.4929,9.7373,9.9654,10.0601,10.2086,10.4116,10.681,10.5398,10.4617,10.6107,10.6296,10.6413,10.6693,10.719,10.7712,10.7986,10.8003,10.8007,10.8007,10.8002,10.8018,10.7903,10.7802,10.7698,10.7602,10.762,10.7483,10.7416,10.7688,10.862,11.0012,11.0012,11.099,11.2589,11.2589,11.2503,11.232,11.232,11.222,11.2093,11.2093,11.2604,11.33,11.361,11.4616,11.5892,0.0,0.0,0.0,0.0,0.0,0.0,0.0,0.0,0.0,0.0,0.0,0.0,0.0,0.0,0.0,0.0,0.0,0.0,6.6303,6.6381,6.6772,6.7662,6.7712,6.8548,7.0374,7.0334,7.1546,7.3976,7.5609,7.5933,7.5115,7.5972,7.6403,7.6403,7.6403,7.6403,7.6403,7.6403,7.6403,7.6403,7.6403,7.6403,7.6403,0.0,0.0,0.0,0.0,0.0,0.0,0.0,7.6696,7.6701,7.6708,7.6682,7.6682,7.6682,7.6756,7.6801,7.6886,7.6922,7.7793,8.1324,8.2819,8.501,9.0997,9.2402,9.3132,9.5665,9.4889,9.4546,9.7192,9.7641,9.7936,9.8838,10.1891,10.4389,10.5287,10.4604,10.4405,10.5285,10.5305,10.569,10.6612,10.6711,10.7111,10.7894,10.7996,10.8004,10.8004,10.8004,10.8018,10.7903,10.7785,10.771,10.7602,10.7499,10.7515,10.7416,10.8309,10.9203,11.0012,11.0012,11.099,11.2589,11.2589,11.2503,11.232,11.232,11.222,11.2093,11.2093,11.2604,11.3416,11.4306,11.5196,11.6008,0.0,0.0,0.0,0.0,0.0,0.0,0.0,0.0,0.0,0.0,0.0,0.0,0.0,0.0,0.0,0.0,0.0,0.0,6.7191,6.6777,6.6917,6.7715,6.8416,6.9292,7.0456,7.154,7.2452,7.3101,7.411,7.4807,7.5115,7.5347,7.5817,7.6403,7.6403,7.6403,7.6403,7.6403,7.6403,7.6403,7.6403,7.6403,7.6403,0.0,0.0,0.0,0.0,0.0,0.0,0.0,0.0,0.0,7.6699,7.6682,7.6682,7.6682,7.6781,7.6879,7.6894,7.8738,8.0719,8.1126,8.4142,8.7663,9.0015,9.1509,9.3139,9.5739,9.6839,9.7034,9.6046,9.8372,10.0101,9.9158,10.0798,10.322,10.5912,10.45,10.3993,10.6107,10.5788,10.5708,10.6614,10.7297,10.7702,10.7986,10.7999,10.8005,10.8007,10.8007,10.7997,10.7905,10.7785,10.7689,10.7602,10.7499,10.7515,10.7416,10.8309,10.9203,11.0012,11.0601,11.1495,11.2589,11.2589,11.2503,11.2313,11.2188,11.2105,11.2209,11.272,11.3494,11.4306,11.5196,11.6085,11.6898,0.0,0.0,0.0,0.0,0.0,0.0,0.0,0.0,0.0,0.0,6.6959,6.7617,0.0,0.0,0.0,0.0,0.0,0.0,6.7219,6.686,6.7028,6.7836,6.8741,6.975,7.0936,7.1925,7.2388,7.2245,7.3377,7.4138,7.4646,7.4933,7.5585,7.6403,7.6403,7.6403,7.6403,7.6403,7.6403,7.6403,7.6403,7.6403,7.6403,0.0,0.0,0.0,0.0,0.0,0.0,0.0,0.0,0.0,7.6694,7.6682,7.6726,7.6743,7.7038,7.7446,7.781,7.9763,8.1928,8.3084,8.5975,8.9133,9.1366,9.2958,9.4683,9.7295,9.8113,9.8217,9.7717,9.95,10.0805,10.0095,10.111,10.2906,10.5287,10.4297,10.4017,10.5988,10.5702,10.5697,10.6614,10.7212,10.7616,10.7983,10.7995,10.8003,10.8007,10.8007,10.8,10.7892,10.7515,10.7416,10.7604,10.7194,10.7103,10.7416,10.8309,10.9203,11.0012,11.0912,11.1806,11.2583,11.2484,11.2408,11.2305,11.2208,11.2093,11.2209,11.2991,11.3803,11.4693,11.5583,11.6511,11.7207,0.0,0.0,0.0,0.0,0.0,0.0,0.0,0.0,0.0,0.0,6.7041,6.7931,0.0,0.0,0.0,0.0,0.0,0.0,0.0,6.6813,6.7153,6.7954,6.8837,7.009,7.1683,7.1729,7.1688,7.1606,7.3011,7.3777,7.3922,7.4646,7.5469,7.6403,7.6409,7.6409,7.6403,7.6409,7.6409,7.6403,7.6403,7.6403,7.6403,7.6403,0.0,0.0,0.0,0.0,0.0,0.0,0.0,0.0,7.6694,7.6682,7.6691,7.6773,7.7404,7.8306,7.9237,8.0244,8.2038,8.6155,8.8077,9.0067,9.4196,9.5804,9.7064,9.9395,9.8776,9.855,10.0802,10.0807,10.0699,10.1381,10.2201,10.3099,10.3997,10.3995,10.4408,10.5396,10.5517,10.5782,10.6688,10.681,10.7093,10.7816,10.7984,10.7918,10.7809,10.7812,10.7802,10.7598,10.6788,10.672,10.7316,10.6591,10.66,10.7299,10.8193,10.9203,11.0012,11.0912,11.1806,11.2615,11.2394,11.2289,11.2305,11.2177,11.2101,11.2286,11.3107,11.3997,11.4809,11.5699,11.6511,11.7207,0.0,0.0,0.0,0.0,0.0,0.0,0.0,0.0,0.0,0.0,0.0,0.0,0.0,0.0,0.0,0.0,0.0,0.0,0.0,6.8035,6.7795,6.7995,6.9465,7.0773,7.1758,7.1787,7.1754,7.1688,7.1974,7.273,7.3883,7.4066,7.4967,7.6403,7.6449,7.6444,7.6403,7.6449,7.6444,7.6403,7.6403,7.6403,7.6403,7.6403,7.6403,0.0,0.0,0.0,0.0,0.0,0.0,0.0,7.6694,7.6682,7.6687,7.6734,7.738,7.8298,7.9166,8.1084,8.3396,8.5708,8.9463,9.3185,9.548,9.6672,9.7312,9.7241,9.8493,9.9631,9.9537,10.0985,10.2082,10.1618,10.2189,10.3112,10.4012,10.3981,10.4595,10.6193,10.6302,10.6698,10.7586,10.7708,10.7489,10.7009,10.7598,10.7412,10.6093,10.6601,10.6592,10.5919,10.5615,10.5508,10.5488,10.6008,10.6283,10.6484,10.7999,10.9203,11.0012,11.0912,11.1806,11.2583,11.2411,11.2302,11.2313,11.2204,11.2509,11.3107,11.3997,11.4886,11.5699,11.6588,11.7005,11.7207,0.0,0.0,0.0,0.0,0.0,0.0,0.0,0.0,0.0,0.0,0.0,0.0,0.0,0.0,0.0,0.0,0.0,0.0,0.0,6.821,6.8385,6.9206,7.0881,7.2006,7.2414,7.2399,7.2416,7.238,7.2298,7.2867,7.4004,7.3979,7.4844,7.6488,7.6515,7.6515,7.6488,7.6515,7.651,7.6483,7.6455,7.6444,7.6438,7.6415,7.6403,7.6409,7.6432,0.0,0.0,0.0,0.0,0.0,0.0,0.0,7.6726,7.6752,7.7376,7.847,8.0224,8.2288,8.4773,8.8218,9.1717,9.4676,9.5995,9.7312,9.8112,9.7733,9.8711,9.973,10.0093,10.1305,10.2203,10.2086,10.2497,10.3105,10.4005,10.4004,10.461,10.6398,10.6596,10.6802,10.7297,10.7699,10.7485,10.6184,10.6894,10.6787,10.5507,10.5898,10.5891,10.5311,10.4804,10.4701,10.4987,10.5016,10.5396,10.6205,10.7105,10.8387,11.0012,11.1301,11.2194,11.2622,11.2391,11.2319,11.2313,11.2614,11.2995,11.3416,11.4693,11.5505,11.6008,11.6898,11.7207,11.7207,0.0,0.0,0.0,0.0,0.0,0.0,0.0,0.0,0.0,0.0,0.0,0.0,0.0,0.0,0.0,0.0,0.0,0.0,0.0,0.0,0.0,7.0728,7.2131,7.2869,7.2869,7.2885,7.2867,7.2854,7.2949,7.3379,7.4134,7.4204,7.511,7.6612,7.6622,7.6622,7.6612,7.6622,7.6622,7.6607,7.6521,7.6499,7.6494,7.6449,7.6432,7.6438,7.6483,7.6499,7.6554,7.6662,0.0,0.0,0.0,0.0,7.6691,7.6768,7.7411,7.8641,8.1169,8.3534,8.6434,9.1212,9.3705,9.5261,9.6307,9.7624,9.878,9.9152,9.9234,9.9705,10.119,10.1502,10.1815,10.2711,10.2804,10.298,10.3802,10.3904,10.4495,10.6014,10.629,10.6383,10.6417,10.7105,10.6892,10.5315,10.5993,10.6003,10.4996,10.5195,10.5111,10.4899,10.4109,10.401,10.46,10.39,10.4386,10.6017,10.6594,10.7992,11.0096,11.1806,11.2589,11.2615,11.2401,11.2296,11.2383,11.3007,11.3395,11.3687,11.5312,11.6008,11.6201,11.6898,11.7207,11.7207,0.0,0.0,0.0,0.0,0.0,0.0,0.0,0.0,0.0,0.0,6.927,6.9911,0.0,0.0,0.0,0.0,0.0,0.0,0.0,0.0,0.0,7.1586,7.1858,7.1973,7.1973,7.197,7.1941,7.1881,7.2649,7.3422,7.4188,7.4881,7.5726,7.6617,7.6662,7.6657,7.6617,7.6667,7.6657,7.6612,7.6602,7.6602,7.6602,7.6591,7.6553,7.6553,7.6596,7.6602,7.6612,7.6677,7.6696,0.0,0.0,0.0,7.6682,7.6691,7.7386,7.8516,8.0396,8.4352,8.8683,9.1647,9.3705,9.5417,9.7048,9.7622,9.8233,9.9818,10.0095,10.0407,10.1307,10.1502,10.1815,10.2711,10.279,10.2794,10.2911,10.3514,10.3988,10.4304,10.5009,10.55,10.5519,10.5605,10.5314,10.4298,10.5096,10.491,10.3316,10.3984,10.4017,10.3103,10.2897,10.2798,10.281,10.3317,10.4114,10.5085,10.8115,10.9702,11.0096,11.1806,11.2589,11.2583,11.238,11.2387,11.239,11.3111,11.3803,11.4499,11.5505,11.6395,11.7005,11.7207,11.7207,11.7207,0.0,0.0,0.0,0.0,0.0,0.0,0.0,0.0,0.0,0.0,0.0,7.0356,0.0,0.0,0.0,0.0,0.0,0.0,0.0,0.0,0.0,7.178,7.2284,7.2518,7.2518,7.2543,7.2519,7.2488,7.326,7.3842,7.4234,7.5577,7.6358,7.6662,7.6685,7.6681,7.6662,7.6685,7.6681,7.6657,7.6657,7.6971,7.7365,7.6812,7.6929,7.7325,7.6837,7.6662,7.6667,7.6676,7.6694,7.6699,7.6717,0.0,0.0,0.0,7.6972,7.8133,8.1863,8.5637,8.9235,9.2352,9.4056,9.5339,9.658,9.7624,9.8702,10.0013,10.029,10.0485,10.1385,10.1502,10.1815,10.2711,10.2709,10.271,10.271,10.3,10.3384,10.3914,10.4286,10.4594,10.4597,10.5007,10.4797,10.3503,10.4192,10.4205,10.2998,10.3319,10.3317,10.2781,10.2197,10.2116,10.2582,10.2401,10.3089,10.4891,10.7882,10.9514,11.0012,11.1301,11.2084,11.2622,11.2384,11.2311,11.239,11.3612,11.4302,11.4693,11.6085,11.6898,11.7207,11.7207,11.7207,11.7207,0.0,0.0,0.0,0.0,0.0,0.0,0.0,0.0,0.0,0.0,0.0,0.0,0.0,0.0,0.0,0.0,0.0,0.0,0.0,0.0,0.0,7.1838,7.2448,7.2796,7.2802,7.2774,7.2867,7.3085,7.384,7.4312,7.4573,7.6093,7.6889,7.7054,7.6816,7.6855,7.705,7.6803,7.6847,7.7054,7.7041,7.7606,7.8366,7.7372,7.7571,7.824,7.7136,7.6898,7.701,7.6808,7.6851,7.6993,7.676,7.6682,0.0,0.0,0.0,7.7965,8.2162,8.5194,8.8059,9.1785,9.3513,9.4745,9.6277,9.7624,9.881,9.9732,10.0091,10.0485,10.1385,10.1502,10.1815,10.2711,10.2709,10.271,10.271,10.261,10.2792,10.3493,10.3418,10.3417,10.3602,10.4104,10.4014,10.2904,10.3407,10.35,10.2914,10.2693,10.2694,10.2918,10.1718,10.1614,10.2616,10.2294,10.3111,10.4891,10.7688,10.9397,11.0012,11.0989,11.1882,11.2511,11.2396,11.2414,11.2693,11.4113,11.4693,11.508,11.6588,11.7207,11.7207,11.7207,11.7207,11.7207,0.0,0.0,0.0,0.0,0.0,0.0,0.0,0.0,0.0,0.0,0.0,0.0,7.0688,7.0589,7.0253,6.9395,7.0058,0.0,0.0,0.0,0.0,7.1887,7.1884,0.0,7.1972,7.1908,7.2253,7.3006,7.3858,7.4693,7.5467,7.6365,7.726,7.7998,7.7178,7.7256,7.7955,7.7093,7.7218,7.8045,7.8012,7.8572,7.9343,7.8438,7.8672,7.9214,7.7503,7.7369,7.7917,7.7061,7.7304,7.7775,7.6954,7.6682,7.6682,0.0,0.0,0.0,7.9368,8.1571,8.461,8.8932,9.1295,9.3396,9.6763,9.7583,9.7923,9.877,9.9691,10.0485,10.1385,10.1502,10.1815,10.2711,10.2709,10.271,10.271,10.261,10.2601,10.2718,10.2011,10.1893,10.2707,10.2114,10.1985,10.2709,10.29,10.2914,10.2914,10.2107,10.1992,10.2886,10.1216,10.0997,10.2617,10.3991,10.478,10.4891,10.8309,11.0019,11.009,11.1617,11.2398,11.2398,11.2313,11.2708,11.3584,11.4306,11.508,11.5892,11.682,11.7207,11.7207,11.7207,11.7207,11.7207,0.0,0.0,0.0,0.0,0.0,0.0,0.0,0.0,0.0,0.0,0.0,0.0,0.0,7.1419,7.1308,7.0996,7.1269,0.0,0.0,0.0,0.0,7.2713,7.2697,7.2693,7.2741,7.2659,7.278,7.3071,7.3882,7.4746,7.5587,7.6469,7.7025,7.7333,7.7556,7.7787,7.8034,7.7736,7.7481,7.7311,7.7988,7.9115,8.0283,7.9388,7.9942,8.0973,7.9172,7.8326,7.8038,7.7738,7.7446,7.7153,7.6808,7.6682,7.6682,7.6682,7.7339,7.843,7.983,8.1742,8.4096,8.7309,9.0697,9.3419,9.4112,9.6417,9.8355,9.8112,9.8793,9.9705,10.0603,10.1618,10.2398,10.2711,10.2709,10.271,10.271,10.261,10.2601,10.2601,10.1911,10.1713,10.2587,10.1903,10.1809,10.2709,10.2812,10.2594,10.2093,10.1792,10.1484,10.1207,10.01,9.9929,10.0905,10.2993,10.4114,10.4114,10.7494,10.91,10.921,11.0803,11.1815,11.2311,11.2188,11.2705,11.3592,11.4281,11.5118,11.6008,11.6898,11.7207,11.7207,11.7207,11.7207,11.7207,0.0,0.0,0.0,0.0,0.0,0.0,0.0,0.0,7.0702,7.1012,0.0,0.0,0.0,0.0,7.2381,7.2381,7.2381,7.2264,7.1952,7.218,7.261,7.3202,7.3501,7.3653,7.3622,7.3303,7.3425,7.396,7.4217,7.4927,7.6055,7.6624,7.7063,7.7371,7.7885,7.8279,7.8528,7.8544,7.84,7.8231,7.919,8.0462,8.1654,8.0766,8.1514,8.2774,8.0656,7.9863,7.9835,7.9538,7.9265,7.884,7.7929,7.7213,7.6743,7.6726,7.7136,7.79,7.9027,8.0659,8.2692,8.5595,8.8725,9.1376,9.2561,9.5078,9.7145,9.7166,9.8123,9.9195,9.9744,10.0993,10.2008,10.2281,10.26,10.2683,10.271,10.2698,10.2616,10.2601,10.1911,10.1706,10.2611,10.1894,10.1807,10.2696,10.2803,10.2392,10.1585,10.1282,10.0585,9.9446,9.9388,9.9558,9.9986,10.2088,10.3492,10.4114,10.6911,10.8388,10.8704,11.0295,11.129,11.1802,11.2006,11.281,11.3892,11.4388,11.5312,11.6395,11.7014,11.7207,11.7207,11.7207,11.7207,11.7207,0.0,0.0,0.0,0.0,0.0,0.0,0.0,0.0,7.0957,7.1815,0.0,0.0,0.0,0.0,0.0,7.3352,7.3352,7.2962,7.2143,7.2792,7.3298,7.3352,7.4102,7.4558,7.4542,7.372,7.407,7.5716,7.4862,7.5272,7.6907,7.6907,7.7335,7.8157,7.8192,7.8672,7.9451,7.9501,7.9971,8.0869,8.1801,8.2729,8.339,8.2609,8.3312,8.4473,8.1839,8.1972,8.3251,8.2429,8.2682,8.2852,8.0263,7.826,7.6824,7.6739,7.6721,7.6721,0.0,0.0,0.0,8.3651,8.522,8.7259,9.2279,9.3566,9.4173,9.5848,9.7643,9.8922,9.8961,9.9666,10.0485,10.1307,10.2184,10.2704,10.2713,10.2679,10.2685,10.2605,10.1894,10.1685,10.2582,10.202,10.1897,10.2714,10.2796,10.2392,10.1585,10.0696,9.9453,9.7759,9.9138,9.9947,9.9982,10.1505,10.3104,10.4891,10.66,10.7806,10.8587,11.021,11.091,11.091,11.171,11.312,11.4705,11.4612,11.5583,11.7207,11.7207,11.7207,11.7207,11.7207,11.7207,11.7207,0.0,0.0,0.0,0.0,0.0,7.1337,7.1844,7.1708,7.1838,0.0,0.0,0.0,7.405,7.417,7.4173,7.4173,7.4173,7.4056,7.3822,7.4013,7.4442,7.5071,7.5337,7.5453,7.5457,7.5187,7.5315,7.5774,7.5491,7.5893,7.6984,7.6984,7.7101,7.7374,7.8006,7.8414,7.8667,7.9283,7.9714,8.0085,8.1623,8.2775,8.3547,8.3948,8.438,8.4687,8.3959,8.3191,8.2567,8.292,8.235,8.1159,7.9127,7.8135,7.761,7.6971,7.7179,7.7658,7.7658,0.0,0.0,0.0,0.0,0.0,8.7071,9.054,9.3671,9.3585,9.5444,9.7305,9.7946,9.8768,9.9429,9.9666,10.0896,10.208,10.2596,10.2679,10.2685,10.2605,10.1894,10.1695,10.2617,10.1992,10.1904,10.27,10.2791,10.2185,10.0686,9.9254,9.8201,9.7707,9.8036,9.8767,9.9981,10.0906,10.221,10.3997,10.5618,10.6795,10.7612,10.9314,11.0321,11.0897,11.1684,11.269,11.3683,11.4315,11.5312,11.6318,11.7014,11.7207,11.7207,11.7207,11.7207,11.7207,0.0,0.0,7.1915,7.1889,7.2212,7.2452,7.2452,7.2743,7.3184,0.0,0.0,0.0,7.4954,7.5384,7.5423,7.5071,7.5032,7.4876,7.4525,7.4837,7.5268,7.5775,7.6166,7.6322,7.6322,7.5982,7.5965,7.6353,7.5927,7.6173,7.7019,7.7019,7.7172,7.7565,7.8083,7.8689,7.9417,7.9973,8.0161,8.0349,8.2499,8.3876,8.4679,8.5553,8.6071,8.6348,8.5961,8.5408,8.4872,8.5007,8.364,8.175,8.0641,7.9569,7.8591,7.805,7.8215,7.8578,7.856,7.9562,8.0693,8.1031,0.0,0.0,8.6477,8.9238,9.1944,9.3286,9.5378,9.6995,9.7114,9.8184,9.9011,9.9002,9.981,10.0887,10.1992,10.2518,10.2689,10.2614,10.2202,10.2104,10.2707,10.2309,10.2292,10.2813,10.2511,10.1712,10.0412,9.863,9.7887,9.8249,9.7761,9.8293,9.9964,10.0601,10.2013,10.411,10.5398,10.641,10.719,10.8493,10.9506,11.0283,11.1203,11.1985,11.2914,11.4113,11.5118,11.6008,11.6898,11.7207,11.7207,11.7207,11.7207,11.7207,0.0,0.0,7.1934,7.2055,7.2695,7.3254,7.3332,7.4008,7.4525,0.0,7.472,7.5071,7.5853,7.6633,7.6789,7.601,7.5932,7.5619,7.4837,7.5502,7.5932,7.5932,7.6672,7.7101,7.7101,7.6344,7.6333,7.7112,7.6314,7.6292,7.7009,7.7009,7.7477,7.8296,7.8282,7.9201,8.0782,8.0917,8.1024,8.1271,8.3955,8.5599,8.6474,8.7354,8.8074,8.8512,8.7721,8.7882,8.8318,8.7458,8.5722,8.3841,8.3405,8.1863,8.0121,7.9563,7.9617,7.9765,7.9511,8.0153,8.1081,8.1854,8.2155,0.0,8.7971,8.8638,8.9379,9.3217,9.543,9.6492,9.5924,9.7085,9.8157,9.8258,9.853,9.9343,10.1119,10.2012,10.2509,10.2596,10.2596,10.2599,10.2713,10.2782,10.28,10.2797,10.2002,10.1209,10.0295,9.8748,9.8198,9.8949,9.8027,9.8283,9.9955,10.0479,10.21,10.4784,10.5401,10.6183,10.7084,10.7997,10.881,10.9509,11.0399,11.128,11.2411,11.3803,11.5002,11.5892,11.682,11.7207,11.7207,11.7207,11.7207,11.7207,7.1634,7.176,7.2158,7.2873,7.3151,7.3504,7.4169,7.4406,7.4759,7.5463,7.6164,7.6672,7.6828,7.6984,7.7023,7.6867,7.6867,7.6789,7.6594,7.675,7.6867,7.6867,7.7023,7.7101,7.7101,7.6928,7.6917,7.7112,7.6899,7.6847,7.6999,7.6999,7.7465,7.8284,7.8289,7.888,7.9901,8.0626,8.1332,8.2189,8.4808,8.6801,8.8273,8.9094,8.9101,8.8633,8.8435,8.8002,8.7416,8.6562,8.6397,8.607,8.3222,8.3432,8.4028,8.052,8.0932,8.222,8.0741,8.1485,8.272,8.2839,8.3454,0.0,8.4459,8.5517,8.6695,8.7582,8.9159,9.0768,9.1993,9.2471,9.2951,9.3667,9.5543,9.7726,10.01,10.0607,10.0909,10.1582,10.1718,10.2005,10.2707,10.2785,10.28,10.2783,10.1993,10.119,10.0296,9.9296,9.8809,9.8933,9.794,9.8217,9.9901,9.9918,10.1602,10.4784,10.4809,10.5588,10.7084,10.7903,10.8791,10.9509,11.0399,11.1714,11.3184,11.3416,11.4113,11.5002,11.6588,11.7207,11.7207,11.7207,11.7207,11.7207,7.1883,7.1932,7.2252,7.3156,7.3625,7.4173,7.5032,7.5501,7.5969,7.6399,7.6828,7.7101,7.7101,7.7101,7.7101,7.7101,7.7101,7.7101,7.7101,7.7101,7.7101,7.7101,7.7101,7.7101,7.7101,7.7092,7.7087,7.7087,7.708,7.703,7.7059,7.7059,7.75,7.8375,7.8784,7.9496,8.0341,8.123,8.2833,8.4878,8.5768,8.7137,8.8773,9.0077,9.026,8.9899,8.9846,8.9293,8.8555,8.8584,8.832,8.7722,8.6391,8.6603,8.671,8.3627,8.3651,8.4266,8.2427,8.2565,8.3282,8.3687,8.3835,0.0,0.0,8.5266,8.5803,8.7585,8.8654,8.9512,9.0407,9.1249,9.1854,9.1849,9.3695,9.5538,9.6824,9.8862,10.0387,10.0805,10.0892,10.1098,10.1498,10.1596,10.141,10.0901,10.131,10.1006,9.9717,9.9256,9.9151,9.9495,9.8578,9.8847,10.0509,10.1186,10.2597,10.4808,10.5395,10.6208,10.7098,10.7484,10.831,10.9509,11.0012,11.1095,11.2797,11.361,11.419,11.4693,11.6008,11.682,11.7207,11.7207,11.7207,11.7207,7.193,7.1941,7.2339,7.3352,7.4056,7.4837,7.5893,7.6633,7.7101,7.7101,7.7108,7.7154,7.7314,7.732,7.74,7.7552,7.759,7.7508,7.7341,7.734,7.726,7.7101,7.7101,7.7101,7.7101,7.7101,7.7101,7.7101,7.7101,7.7094,7.7117,7.7117,7.7642,7.8678,7.9398,8.0268,8.1308,8.2346,8.4454,8.7163,8.7108,8.8007,8.9529,9.0923,9.1438,9.1332,9.1154,9.0642,9.0146,9.0575,9.0111,8.937,8.9413,8.9518,8.9155,8.6717,8.6353,8.6303,8.4157,8.3657,8.3896,8.4587,8.4384,8.4552,0.0,0.0,0.0,8.8329,8.8774,8.8732,8.9094,9.0147,9.0874,9.0506,9.1927,9.3036,9.3084,9.6377,9.8963,9.9509,9.9708,9.9872,10.0003,10.0203,9.9936,9.9087,10.0618,10.0817,9.91,9.9134,9.9411,9.9853,9.9095,9.9363,10.0817,10.241,10.3706,10.4714,10.6108,10.6802,10.7003,10.7197,10.8078,10.9509,10.9703,11.0786,11.272,11.3919,11.4616,11.5196,11.5892,11.6588,11.7207,11.7207,11.7207,11.7207,7.1986,7.1987,7.2495,7.4095,7.4447,7.5032,7.6711,7.7023,7.7101,7.7101,7.7091,7.7379,7.8085,7.8159,7.8465,7.9256,7.9335,7.9023,7.8295,7.8253,7.7897,7.714,7.7101,7.7101,7.7101,7.7101,7.7101,7.7101,7.7101,7.71,7.7098,7.7098,7.7998,7.9564,7.9651,8.0628,8.2259,8.3832,8.5205,8.6498,8.9451,9.1248,9.2179,9.2294,9.235,9.2221,9.1412,9.1086,9.0825,8.9366,9.0284,9.1562,8.8628,9.0265,9.233,8.7456,8.7649,8.8754,8.5445,8.5064,8.5611,8.5653,8.6218,8.6631,8.6062,0.0,8.5721,8.5308,0.0,8.4611,8.6166,0.0,0.0,8.7528,8.9216,9.0367,9.0406,9.2131,9.4239,9.6582,9.7532,9.8284,9.9067,9.9859,9.9947,9.9057,10.0581,10.0819,9.9099,9.9661,9.9723,9.8972,9.8735,9.9055,9.9928,10.1485,10.3086,10.4714,10.5488,10.6299,10.7003,10.7816,10.8581,10.9509,11.0322,11.1985,11.4306,11.3687,11.4809,11.6898,11.7014,11.7082,11.7207,11.7207,11.7207,11.7207,7.1987,7.1987,7.2534,7.4212,7.4486,7.5071,7.6828,7.7101,7.7101,7.7101,7.7116,7.7245,7.7562,7.8045,7.8476,7.8827,7.9291,7.945,7.9137,7.8629,7.8191,7.7885,7.7375,7.7101,7.7101,7.7101,7.7101,7.7101,7.7101,7.7101,7.7101,7.7101,7.7773,7.8998,8.0013,8.139,8.3121,8.4825,8.663,8.8476,9.0429,9.203,9.3275,9.3233,9.2873,9.2407,9.199,9.2204,9.2451,9.1214,9.1884,9.2998,9.1503,9.2028,9.2495,8.9237,8.8713,8.8646,8.6142,8.6428,8.7312,8.6759,8.7295,8.7598,8.6167,8.5535,8.5296,8.5396,0.0,0.0,0.0,0.0,0.0,0.0,8.7996,8.915,8.9183,9.0252,9.1821,9.3888,9.4489,9.548,9.7329,9.9174,9.9959,9.9062,10.0116,10.0312,9.9053,9.925,9.9419,9.9474,9.9379,9.9933,10.1196,10.2785,10.421,10.5419,10.6108,10.6608,10.7003,10.7885,10.8697,10.9509,11.0399,11.1985,11.3881,11.3997,11.5002,11.6511,11.7014,11.7207,11.7207,11.7207,11.7207,11.7207,7.2065,7.1987,7.2534,7.4212,7.4486,7.5071,7.6828,7.7101,7.7101,7.7101,7.7111,7.7198,7.7397,7.8397,7.9099,7.9328,8.032,8.0745,8.0304,7.9724,7.9179,7.8732,7.7894,7.7456,7.746,7.722,7.7101,7.7101,7.7101,7.7101,7.7101,7.7101,7.7698,7.8807,8.0092,8.1982,8.4336,8.6082,8.8279,9.0731,9.2067,9.3386,9.4434,9.4154,9.3509,9.2742,9.2742,9.3143,9.3543,9.2438,9.2837,9.3726,9.317,9.298,9.2578,9.0781,8.9996,8.9311,8.7538,8.7794,8.8402,8.7758,8.7884,8.7822,8.6544,8.5974,8.5842,8.626,8.5838,0.0,0.0,0.0,8.6095,8.6331,0.0,8.825,8.8279,8.8648,8.9558,9.1279,9.1726,9.2797,9.5114,9.7304,9.8476,9.832,9.9101,9.9292,9.8648,9.8947,9.9293,9.9608,9.9955,10.0707,10.1909,10.3806,10.5017,10.55,10.6487,10.7119,10.739,10.8194,10.9084,10.9896,11.0786,11.1985,11.3378,11.3997,11.4809,11.5583,11.6511,11.6811,11.6898,11.7082,11.7207,11.7207,7.2182,7.1987,7.2534,7.4212,7.4486,7.5071,7.6828,7.7101,7.7101,7.7101,7.7093,7.7381,7.8164,7.9673,8.1005,8.1906,8.3418,8.3672,8.2138,8.2048,8.1324,7.9645,7.8775,7.8359,7.8371,7.7539,7.7101,7.7101,7.7101,7.7101,7.7101,7.7101,7.8038,7.964,7.9732,8.2082,8.6147,8.7874,9.0076,9.2651,9.5191,9.6217,9.6123,9.526,9.4403,9.3642,9.3642,9.3689,9.3432,9.1707,9.2346,9.3524,9.1803,9.243,9.3412,9.1663,9.1705,9.1907,9.0228,8.9149,8.8527,8.8568,8.7897,8.7241,8.716,8.7805,8.8134,8.7315,8.7142,8.7131,8.717,8.6546,8.6296,0.0,8.7299,0.0,0.0,8.6742,8.6867,8.8598,8.9557,9.0779,9.2539,9.3554,9.4804,9.6445,9.7338,9.775,9.7639,9.9169,9.9608,9.869,10.0187,10.0996,10.0909,10.3398,10.4601,10.4605,10.6184,10.7382,10.831,10.9084,10.9896,11.0786,11.1706,11.2488,11.33,11.3386,11.3881,11.4693,11.5583,11.5892,11.6008,11.6898,11.7207,11.7207,7.2065,7.2456,7.3197,7.429,7.4486,7.5266,7.7609,7.7453,7.7925,8.024,8.0056,8.0652,8.3198,8.3928,8.4536,8.5383,8.5416,8.5124,8.4593,8.3534,8.269,8.2136,8.0817,7.9865,7.9281,7.8403,7.7687,7.7101,7.7101,7.7414,7.7962,7.7962,7.8897,8.0616,8.1763,8.4321,8.7927,8.9678,9.1874,9.4185,9.4429,9.5204,9.6213,9.5948,9.53,9.4499,9.4499,9.4897,9.514,9.3419,9.3624,9.4302,9.2532,9.2017,9.1943,9.131,9.0941,9.073,9.0702,9.1328,9.1596,8.9826,9.007,9.0082,8.7722,8.7861,8.8413,8.8127,8.8056,8.8066,8.8066,8.7384,8.6947,0.0,0.0,8.7182,0.0,8.5825,8.5527,8.6123,8.8432,9.0467,9.164,9.3554,9.5234,9.6406,9.6757,9.733,9.8322,9.8394,9.8684,9.9376,9.994,10.0684,10.1808,10.3709,10.4911,10.5418,10.6502,10.7506,10.831,10.9084,11.0012,11.0777,11.1706,11.2604,11.33,11.3881,11.4693,11.5505,11.6395,11.682,11.682,11.7091,11.7207,11.7207,7.2104,7.2924,7.39,7.4408,7.4993,7.6008,7.7687,7.798,7.8891,8.1475,8.1795,8.2773,8.5272,8.6058,8.6619,8.7136,8.7148,8.6865,8.6261,8.5536,8.4725,8.3852,8.2846,8.1913,8.109,7.9943,7.9068,7.8476,7.8197,7.8311,7.8858,7.8858,7.964,8.1046,8.2499,8.5374,8.9296,9.1007,9.3355,9.585,9.5201,9.5276,9.5798,9.6466,9.5959,9.4924,9.5221,9.5523,9.5635,9.451,9.4313,9.4351,9.3234,9.2528,9.2076,9.2019,9.1856,9.1817,9.2352,9.3104,9.3352,9.1625,9.1838,9.1778,8.9225,8.9313,8.9823,8.9523,8.9202,8.9085,8.9381,8.8292,8.7409,0.0,0.0,8.7087,0.0,8.5685,8.5344,8.5348,8.7303,8.9218,9.0703,9.207,9.3515,9.4959,9.535,9.6074,9.7296,9.7736,9.8498,9.9713,10.0096,10.1003,10.2585,10.4005,10.509,10.5798,10.6602,10.7614,10.8697,10.9316,11.009,11.128,11.1899,11.2393,11.2908,11.3712,11.4196,11.4594,11.6101,11.6506,11.6311,11.6996,11.7207,11.7207,7.2378,7.3393,7.4564,7.4603,7.6047,7.7179,7.7218,7.8666,8.0077,8.1093,8.2587,8.3951,8.4925,8.6437,8.7376,8.7415,8.8758,8.889,8.7307,8.8009,8.7407,8.4955,8.4867,8.456,8.3789,8.2066,8.1157,8.1067,8.0194,7.9756,7.9756,7.9756,8.0224,8.1085,8.202,8.5202,8.999,9.1747,9.4371,9.739,9.722,9.6222,9.5088,9.6675,9.6287,9.5065,9.5883,9.5676,9.5018,9.4984,9.4453,9.3791,9.3755,9.3755,9.3755,9.3759,9.4304,9.491,9.5039,9.4448,9.3825,9.3788,9.315,9.2312,9.1468,9.1918,9.2352,9.1555,9.072,9.0367,9.1113,8.9214,8.7722,0.0,0.0,0.0,8.6235,8.6165,8.6207,8.6208,8.6249,8.7226,8.9648,8.914,8.9726,9.2255,9.3267,9.4088,9.4822,9.7259,9.8969,9.9685,10.0495,10.1794,10.3403,10.4288,10.4983,10.571,10.6608,10.7885,10.9509,10.9509,11.0507,11.2093,11.2093,11.2002,11.1989,11.2907,11.2696,11.2195,11.4703,11.5186,11.4789,11.6591,11.7207,11.7207,7.304,7.433,7.5658,7.632,7.7335,7.8272,7.8936,8.0424,8.2459,8.5309,8.652,8.8225,9.0986,9.1112,9.1215,9.1878,9.1097,9.0363,9.0016,8.9578,8.9101,8.8503,8.7901,8.7243,8.6435,8.4725,8.3192,8.1978,8.1097,8.0654,8.0654,8.0654,8.1122,8.202,8.3502,8.5602,8.8163,8.9882,9.217,9.4565,9.3842,9.4038,9.485,9.5233,9.551,9.5833,9.6723,9.6914,9.6646,9.5993,9.5647,9.5383,9.4789,9.4606,9.4575,9.4605,9.4733,9.5048,9.57,9.5789,9.5453,9.4766,9.4479,9.3945,9.2445,9.2786,9.3522,9.4008,9.3895,9.3392,9.2331,9.1095,8.9659,8.8017,8.7006,8.635,8.6204,8.6207,8.6209,8.621,8.6758,8.7422,8.8086,8.8476,8.9492,9.1444,9.237,9.3689,9.5671,9.6904,9.8214,9.9665,10.038,10.1692,10.3403,10.4199,10.4884,10.571,10.7189,10.8504,10.9509,11.0206,11.1014,11.1996,11.1996,11.2211,11.2812,11.37,11.3912,11.3815,11.5706,11.642,11.6306,11.6989,11.7207,11.7207,7.3821,7.4876,7.6088,7.6945,7.9099,8.0553,8.0252,8.1328,8.3388,8.6807,8.8611,9.045,9.2783,9.3234,9.343,9.3547,9.2624,9.1732,9.1063,9.0889,9.0509,8.9846,8.9728,8.9312,8.8523,8.6793,8.5273,8.3978,8.2714,8.1917,8.1552,8.1552,8.1825,8.237,8.366,8.5401,8.7613,9.0779,9.2733,9.3707,9.4231,9.456,0.0,9.5524,9.6097,9.6589,9.7139,9.7309,9.7295,9.6813,9.6428,9.6005,9.5565,9.5417,9.5422,9.5408,9.5689,9.6117,9.6584,9.6737,9.6756,9.6644,9.6596,9.6395,9.5466,9.5585,9.6093,9.664,9.5781,9.4883,9.4726,9.2773,9.0505,8.8307,8.7257,8.6715,8.6756,8.707,8.7148,8.6755,8.7496,8.7844,8.7451,8.7847,8.8665,8.9973,9.1207,9.2435,9.3729,9.5629,9.7429,9.9054,10.0205,10.1793,10.3896,10.4697,10.5682,10.6802,10.7807,10.8891,11.009,11.0593,11.1198,11.1882,11.1882,11.2108,11.2512,11.3707,11.3985,11.38,11.5499,11.6406,11.6812,11.7021,11.7106,11.7105,7.4681,7.5385,7.6205,7.6984,8.0629,8.2952,8.16,8.2533,8.4379,8.7174,8.9758,9.158,9.2203,9.3696,9.434,9.3596,9.3519,9.29,9.143,9.2005,9.1766,9.0368,9.0947,9.1,9.0403,8.8757,8.7376,8.6288,8.4642,8.3299,8.2292,8.2292,8.237,8.2489,8.3308,8.5197,8.8032,9.2447,9.4064,9.3878,9.6066,9.6118,9.5053,9.6599,9.7199,9.7199,9.7199,9.7232,9.7318,9.7368,9.6877,9.6254,9.6263,9.6263,9.6263,9.6273,9.6817,9.7401,9.7518,9.7557,9.7792,9.8715,9.892,9.89,9.9013,9.9019,9.9009,9.9169,9.7369,9.6107,9.7288,9.4137,9.0851,8.9414,8.8593,8.8163,8.8123,8.8704,8.8854,8.7987,8.8636,0.0,8.7704,8.7465,8.7731,8.8612,9.0077,9.1022,9.1281,9.4251,9.6721,9.8395,10.008,10.2099,10.4481,10.5403,10.6595,10.831,10.8418,10.9299,11.0808,11.0906,11.1318,11.2,11.2,11.2089,11.2208,11.371,11.3801,11.3302,11.4785,11.5906,11.6697,11.6802,11.6903,11.6992,7.558,7.6281,7.6906,7.7062,8.0123,8.2879,8.3943,8.7201,8.9505,8.9374,9.1516,9.2857,9.2273,9.316,9.376,9.3604,9.3565,9.3465,9.3231,9.3313,9.3251,9.302,9.248,9.2423,9.301,9.1377,8.9425,8.7184,8.6132,8.4518,8.2292,8.2292,8.2645,8.3347,8.4206,8.6388,8.9529,9.0352,9.1826,9.373,9.4755,9.5379,9.5874,9.6832,9.7199,9.7199,9.7199,9.7204,9.7215,9.7226,9.7115,9.7004,9.709,9.71,9.711,9.7158,9.7284,9.7557,9.8214,9.8408,9.8612,9.9501,9.973,9.9768,9.9796,9.9826,10.0085,10.0693,10.0484,9.9611,9.7834,9.4532,9.2008,9.1705,9.1657,9.1586,9.1471,9.154,9.1303,9.0557,9.1053,9.0937,8.942,8.8097,8.7934,8.9476,8.9784,9.1112,9.377,9.5084,9.6792,9.9127,10.0804,10.2616,10.4481,10.5302,10.6578,10.831,10.8891,10.9707,11.0711,11.1286,11.2002,11.2713,11.2713,11.3479,11.4709,11.4978,11.5391,11.5803,11.5517,11.5786,11.6501,11.6687,11.6701,11.6792,7.6477,7.6828,7.7807,8.0082,8.2599,8.5271,8.8312,9.1294,9.27,9.1361,9.3,9.4115,9.3687,9.4816,9.544,9.4972,9.4933,9.4789,9.434,9.4286,9.429,9.4329,9.3955,9.3737,9.3716,9.2505,9.0646,8.8075,8.7185,8.5465,8.2969,8.2921,8.3113,8.3544,8.4888,8.6872,8.9316,9.0588,9.2327,9.4344,9.5563,9.6278,9.6654,9.7054,9.7199,9.7199,9.7199,9.7199,9.7199,9.7199,9.7199,9.7204,9.7232,9.7242,9.7248,9.7274,9.7284,9.7479,9.8329,9.8557,9.8878,10.0193,10.0509,10.0684,10.1184,10.1318,10.1405,10.1802,10.1504,10.0405,9.7854,9.5675,9.4078,9.3588,9.3188,9.2912,9.2759,9.3079,9.2885,9.1704,9.1848,9.143,8.9866,8.8951,8.8764,8.9585,9.0016,9.1121,9.3076,9.5196,9.7081,9.8711,10.1192,10.3189,10.4381,10.5696,10.7189,10.8891,10.9213,11.0105,11.1303,11.1587,11.2213,11.2883,11.2883,11.3283,11.3984,11.4407,11.5407,11.6495,11.611,11.6187,11.6495,11.6589,11.6611,11.6605,7.8126,7.8206,7.9461,8.3421,8.5855,8.8359,9.1744,9.4181,9.5007,9.3276,9.434,9.5216,9.5014,9.6356,9.6961,9.6253,9.6214,9.5902,9.524,9.5162,9.5162,9.5162,9.5034,9.4735,9.4228,9.3278,9.1581,8.919,8.8152,8.6367,8.3846,8.3789,8.3981,8.4385,8.6124,8.7927,8.9826,9.1985,9.3838,9.5446,9.695,9.7396,9.7238,9.7626,9.7626,9.751,9.7704,9.7743,9.7743,9.7743,9.7626,9.7471,9.7471,9.7587,9.7743,9.7743,9.7743,9.7937,9.8792,9.9019,9.9424,10.099,10.1284,10.1512,10.2288,10.2399,10.25,10.2687,10.2,10.0711,9.8495,9.7376,9.6485,9.5582,9.4898,9.4371,9.4038,9.4537,9.4444,9.2953,9.2807,9.2136,9.0524,9.0172,9.0008,8.997,9.0613,9.1517,9.2645,9.5182,9.7194,9.8419,10.1417,10.3514,10.4713,10.6415,10.8109,10.9708,10.9689,11.0485,11.2088,11.1905,11.2192,11.3111,11.3111,11.33,11.3483,11.4099,11.5187,11.6495,11.6495,11.6495,11.6495,11.6495,11.6495,11.6517,8.1508,8.1823,8.2687,8.539,8.8592,9.0931,9.1351,9.4844,9.6802,9.4997,9.5572,9.587,9.5099,9.5833,9.6366,9.6214,9.6214,9.6175,9.6097,9.6097,9.6097,9.6097,9.5321,9.5243,9.5945,9.4389,9.2684,9.089,8.9265,8.7183,8.4684,8.4696,8.5485,8.7031,8.8783,9.0896,9.3187,9.4145,9.5543,9.7119,9.803,9.7904,9.7354,9.8947,9.9063,9.8475,9.9258,9.9569,9.9569,9.9569,9.9025,9.8397,9.8397,9.8908,9.9569,9.9569,9.9569,9.9724,10.0501,10.0812,10.1006,10.1905,10.2212,10.2317,10.2311,10.2417,10.2595,10.3283,10.2805,10.1911,10.0796,9.998,9.9164,9.827,9.8126,9.7806,9.6954,9.6816,9.6466,9.546,9.5364,9.4615,9.2791,9.2088,9.1686,9.15,9.1676,9.28,9.513,9.5543,9.6785,9.9112,10.0999,10.3204,10.5594,10.7305,10.9012,11.0509,11.0409,11.1192,11.2798,11.1904,11.2389,11.3879,11.3879,11.4802,11.6099,11.5407,11.5676,11.6495,11.6495,11.6495,11.6495,11.6495,11.6495,11.6495,8.3671,8.4218,8.5742,8.9373,9.0735,9.2329,9.5443,9.648,9.6849,9.6638,9.6883,9.6934,9.6608,9.6863,9.7077,9.7025,9.7004,9.6989,9.6989,9.6989,9.6989,9.6989,9.6639,9.6366,9.6214,9.5551,9.4108,9.1876,9.0731,8.8853,8.6366,8.5814,8.6483,8.8148,8.983,9.1944,9.4332,9.4647,9.5744,9.7302,9.8148,9.8281,9.8092,9.9335,9.9569,9.9335,9.9685,9.9802,9.9802,9.9802,9.9569,9.9297,9.9297,9.953,9.9802,9.9802,9.9802,10.0112,10.1394,10.1783,10.2094,10.3492,10.351,10.3288,10.3692,10.351,10.3405,10.4197,10.3686,10.2715,10.1317,10.0695,10.04,9.9965,9.988,9.9757,9.9312,9.8781,9.7935,9.6611,9.5532,9.4182,9.2464,9.2038,9.2044,9.238,9.2076,9.249,9.397,9.5925,9.7457,9.8555,10.1687,10.4115,10.571,10.7382,10.9119,11.0607,11.1085,11.1789,11.2922,11.2999,11.3407,11.3984,11.3984,11.4714,11.5676,11.4907,11.5291,11.6495,11.6495,11.6495,11.6495,11.6495,11.6495,11.6495,8.656,8.7223,8.8901,9.2994,9.322,9.4109,9.8007,9.7566,9.7089,9.7987,9.8038,9.7895,9.7614,9.7595,9.7616,9.7607,9.7574,9.7514,9.7514,9.7503,9.7496,9.7496,9.7496,9.7223,9.66,9.6327,9.53,9.3515,9.2178,9.0617,8.8802,8.796,8.8456,9.0111,9.1493,9.3231,9.5174,9.5686,9.6413,9.7315,9.8675,9.8941,9.863,9.999,10.0384,10.019,10.0384,10.0501,10.0501,10.0501,10.0501,10.0501,10.019,10.0307,10.0501,10.0501,10.0501,10.0812,10.2282,10.2709,10.2981,10.4502,10.4386,10.4114,10.4813,10.4386,10.4191,10.4813,10.458,10.3803,10.2094,10.1783,10.1598,10.1,10.0904,10.0716,10.038,9.9623,9.863,9.7477,9.581,9.4266,9.3005,9.2643,9.2795,9.3545,9.2893,9.2908,9.4039,9.6321,9.7828,9.8408,10.2011,10.4686,10.6105,10.7807,10.9489,11.1296,11.1886,11.2705,11.3601,11.3901,11.4099,11.4407,11.3791,11.4407,11.561,11.4714,11.5215,11.6495,11.6495,11.6495,11.6495,11.6495,11.6495,11.6495,9.0728,9.1232,9.2319,9.5767,9.6347,9.666,9.7558,9.7714,9.7987,9.8883,9.8961,9.8641,9.768,9.76,9.759,9.7603,9.761,9.7588,9.7588,9.7557,9.7496,9.7496,9.7496,9.7496,9.7496,9.6639,9.6175,9.6136,9.3548,9.2284,9.2201,9.1369,9.1844,9.3464,9.436,9.5165,9.5994,9.7704,9.7976,9.7432,9.9957,9.9996,9.8786,10.1311,10.1705,10.1084,10.201,10.2282,10.2282,10.2282,10.2282,10.2088,10.1317,10.1589,10.2282,10.2282,10.2282,10.2515,10.3298,10.3609,10.3803,10.4697,10.4891,10.4891,10.4891,10.4891,10.4891,10.4891,10.559,10.5584,10.392,10.3609,10.2987,10.1317,10.1006,10.0695,9.9912,9.9058,9.8405,9.8127,9.6715,9.5655,9.5307,9.4597,9.4466,9.5236,9.4447,9.4758,9.6553,9.6746,9.7558,9.9141,10.1811,10.4403,10.7003,10.8581,11.0691,11.3005,11.3005,11.3821,11.5187,11.4407,11.4484,11.5187,11.3483,11.4099,11.6418,11.561,11.5803,11.6495,11.6495,11.6495,11.6495,11.6495,11.6495,11.6495,9.3592,9.437,9.5108,9.6191,9.6894,9.7362,9.7675,9.7714,9.8026,9.8883,9.9,9.8881,9.8602,9.8509,9.8263,9.7668,9.7603,9.7616,9.7591,9.7578,9.7564,9.75,9.7496,9.7496,9.7496,9.7223,9.6795,9.6214,9.4835,9.3543,9.2427,9.2687,9.333,9.4438,9.5261,9.604,9.681,9.7393,9.7432,9.7354,9.9374,9.9879,9.953,10.0889,10.1589,10.1816,10.1511,10.1783,10.2282,10.2282,10.2282,10.2282,10.201,10.2088,10.2399,10.2987,10.322,10.3492,10.5007,10.5396,10.559,10.6406,10.6212,10.5901,10.6484,10.66,10.6406,10.5901,10.6017,10.5778,10.4697,10.4502,10.4114,10.2987,10.3298,10.3092,10.1613,10.1212,10.0321,9.8459,9.7748,9.6905,9.5571,9.5748,9.6042,9.6251,9.5478,9.5471,9.6495,9.7137,9.829,9.9983,10.2596,10.5197,10.7885,10.89,11.058,11.3005,11.3504,11.4288,11.5291,11.4984,11.4714,11.4291,11.3214,11.3791,11.561,11.4791,11.5215,11.6495,11.6495,11.6495,11.6495,11.6495,11.6495,11.6495,9.541,9.6035,9.6502,9.6816,9.7323,9.7714,9.7714,9.7987,9.8377,9.8922,9.9273,9.9351,9.9039,9.8951,9.8591,9.7694,9.7593,9.7603,9.761,9.7597,9.7574,9.75,9.7496,9.7496,9.7496,9.7496,9.7223,9.6678,9.6147,9.5384,9.4352,9.4758,9.524,9.5771,9.6244,9.6732,9.7199,9.7548,9.7704,9.782,9.9219,9.9996,10.0307,10.0501,10.1317,10.2204,10.1317,10.1589,10.2282,10.2282,10.2282,10.2282,10.2282,10.2515,10.2904,10.3415,10.3803,10.4386,10.5778,10.6097,10.6292,10.7107,10.6912,10.6599,10.7104,10.7181,10.7118,10.6705,10.6596,10.6304,10.55,10.5396,10.5085,10.4191,10.4484,10.4415,10.2895,10.2093,10.1078,9.9415,9.8591,9.7877,9.7023,9.7681,9.8192,9.8137,9.7921,9.7958,9.8374,9.8364,9.9302,10.1421,10.361,10.6086,10.8697,10.9183,11.0591,11.3005,11.4088,11.4791,11.5291,11.5291,11.4791,11.3984,11.3791,11.4291,11.5291,11.4984,11.561,11.6495,11.6495,11.6517,11.66,11.66,11.6583,11.6577,9.6308,9.6502,9.6738,9.7558,9.7714,9.7714,9.7714,9.8377,9.8961,9.9078,9.9783,10.0017,9.9273,9.9117,9.8729,9.787,9.7696,9.7593,9.7603,9.7649,9.7617,9.75,9.7613,9.7652,9.7574,9.7652,9.7691,9.7691,9.7611,9.7566,9.7566,9.7463,9.7437,9.7479,9.7348,9.7282,9.7354,9.8087,9.8397,9.8475,9.9413,10.019,10.0812,10.0112,10.0889,10.2204,10.1317,10.1589,10.2282,10.2282,10.2282,10.2399,10.2399,10.2981,10.3803,10.3686,10.4308,10.5202,10.6017,10.611,10.6194,10.7001,10.7006,10.6879,10.6879,10.6879,10.7005,10.7105,10.7188,10.7005,10.6401,10.631,10.6005,10.5118,10.49,10.4583,10.3613,10.2002,10.0887,10.0701,9.9415,9.8799,9.9413,10.0194,10.0687,10.0811,10.1315,10.1688,10.1795,10.0479,10.0806,10.3013,10.4904,10.6987,10.9509,10.9484,11.0698,11.3014,11.4515,11.5187,11.5099,11.5187,11.4791,11.3984,11.4907,11.5291,11.5407,11.6099,11.6418,11.6495,11.6495,11.66,11.6697,11.6697,11.6694,11.6786,9.7206,9.7401,9.744,9.7675,9.7714,9.7714,9.7714,9.787,9.8494,9.9822,10.0212,10.0485,10.0915,10.0407,9.9627,9.8766,9.8059,9.765,9.7603,9.8216,9.8267,9.7539,9.8782,9.9172,9.8509,9.9133,9.9483,9.9483,9.9436,9.9423,9.9452,9.9322,9.9279,9.925,9.8572,9.8247,9.8164,9.7704,9.751,9.7626,9.918,9.9918,10.0112,10.0617,10.1394,10.2204,10.1317,10.1589,10.2282,10.2282,10.2709,10.3298,10.3298,10.4308,10.5512,10.4813,10.5202,10.6095,10.6911,10.7003,10.6885,10.7079,10.7006,10.6879,10.6879,10.6879,10.691,10.6799,10.6991,10.7111,10.6902,10.6917,10.6796,10.5903,10.5689,10.5116,10.3586,10.3015,10.2204,10.0813,10.1417,10.1796,10.1309,10.2105,10.2786,10.3404,10.2499,10.2414,10.3681,10.3993,10.4084,10.4009,10.6412,10.831,10.9509,11.0001,11.1095,11.2789,11.3813,11.3984,11.3291,11.3984,11.4214,11.3984,11.4214,11.4984,11.6187,11.5803,11.5907,11.6495,11.6495,11.66,11.6697,11.6697,11.6694,11.6786,9.76,9.7714,9.7714,9.7714,9.7714,9.7714,9.7714,9.8026,9.8494,9.9041,9.9822,10.0212,9.9783,9.9744,9.9353,9.8494,9.7987,9.7661,9.7583,9.8438,9.8492,9.7603,9.8808,9.9112,9.8236,9.9055,9.9912,10.0691,10.0184,10.0184,10.0688,10.0094,9.9896,9.9853,9.8982,9.8575,9.8436,9.7587,9.7432,9.7898,9.883,9.9646,10.0384,10.0384,10.12,10.2204,10.1317,10.1589,10.2282,10.2282,10.2909,10.3609,10.3609,10.4813,10.6089,10.559,10.6095,10.6794,10.7299,10.7313,10.7181,10.7114,10.6887,10.6783,10.67,10.659,10.6593,10.6506,10.6697,10.6912,10.6982,10.7081,10.6994,10.6095,10.5884,10.5315,10.3489,10.291,10.2407,10.1897,10.2315,10.2895,10.3591,10.4403,10.4984,10.5014,10.4906,10.4906,10.5014,10.6484,10.7009,10.6194,10.7899,10.9415,11.061,11.0912,11.1796,11.329,11.3813,11.3984,11.3907,11.4791,11.4714,11.3984,11.4791,11.5495,11.5907,11.5918,11.611,11.6495,11.6589,11.6676,11.6781,11.6794,11.6913,11.7001,9.7682,9.7714,9.7714,9.7714,9.7714,9.7714,9.7714,9.8338,9.8572,9.7987,9.9197,9.9588,9.8221,9.8651,9.8688,9.7948,9.7792,9.7665,9.7602,9.8656,9.8829,9.7825,9.88,9.8981,9.812,9.8821,9.999,10.1588,10.0699,10.0699,10.1584,10.0686,10.0295,10.0295,9.9381,9.894,9.8853,9.7965,9.8042,9.8736,9.8853,9.9674,10.0801,10.0413,10.099,10.2117,10.1384,10.1689,10.23,10.23,10.2993,10.3803,10.3803,10.5007,10.64,10.64,10.6911,10.7416,10.7416,10.7313,10.7198,10.7005,10.6783,10.6689,10.6517,10.628,10.622,10.6207,10.6391,10.6608,10.6796,10.6983,10.6909,10.5986,10.5611,10.49,10.3506,10.2516,10.2315,10.3282,10.2817,10.3398,10.5719,10.6608,10.6802,10.6291,10.7498,10.7807,10.6484,10.8495,10.9393,10.8697,10.9509,11.0511,11.1891,11.1722,11.2305,11.3692,11.3807,11.4214,11.4907,11.5918,11.5484,11.4291,11.5792,11.6099,11.5484,11.6187,11.6495,11.6506,11.6616,11.6694,11.6796,11.6982,11.7077,11.7207,9.7682,9.7714,9.7714,9.7714,9.7714,9.7714,9.7714,9.7792,9.8104,9.8727,9.9039,9.9392,9.9861,9.9353,9.8961,9.8805,9.8104,9.7665,9.7602,9.9788,10.0389,9.8683,10.0785,10.1706,10.0808,10.0886,10.151,10.2406,10.158,10.158,10.2402,10.2314,10.2209,10.2093,10.119,10.0811,10.0689,9.9833,9.9561,9.9756,10.0495,10.0495,10.0184,10.1618,10.1808,10.1419,10.2085,10.2288,10.24,10.24,10.3416,10.4697,10.4697,10.5901,10.7183,10.7183,10.7299,10.7416,10.7416,10.7313,10.7198,10.7005,10.6783,10.6689,10.6517,10.628,10.6183,10.6005,10.6308,10.6582,10.6497,10.6813,10.6789,10.5983,10.4598,10.3499,10.3305,10.2516,10.2508,10.4017,10.4705,10.5603,10.6686,10.6887,10.7498,10.8813,10.8504,10.8813,10.9888,11.0399,11.0515,11.0399,11.1203,11.1787,11.1891,11.1722,11.1689,11.1997,11.2614,11.2983,11.3214,11.4791,11.5291,11.5187,11.611,11.6418,11.6303,11.6418,11.6495,11.6506,11.6616,11.6694,11.6796,11.6982,11.7077,11.7207,9.7709,9.7689,9.7714,9.7714,9.7714,9.7714,9.7714,9.7714,9.7831,9.826,9.8727,9.8961,9.8924,9.8963,9.8805,9.8338,9.8377,9.8178,9.77,9.9652,10.03,9.8893,10.0904,10.1805,10.1393,10.1393,10.1782,10.2601,10.2211,10.2211,10.2597,10.2616,10.2595,10.2608,10.1699,10.1204,10.1103,10.0286,9.9624,9.9313,10.0714,10.0714,10.0086,10.1803,10.222,10.1904,10.23,10.2389,10.2289,10.2289,10.3205,10.4191,10.4191,10.5396,10.6794,10.6794,10.7105,10.7416,10.7416,10.7411,10.7307,10.7199,10.7099,10.6915,10.6591,10.6497,10.6297,10.5889,10.6312,10.6603,10.62,10.6705,10.6718,10.5691,10.4603,10.3707,10.3282,10.2895,10.3011,10.4287,10.5603,10.6918,10.8194,10.8813,10.9393,11.009,10.9896,11.0012,11.0786,11.0786,11.1018,11.1512,11.1817,11.1993,11.1993,11.1799,11.1885,11.2386,11.3094,11.3692,11.4099,11.5407,11.5907,11.5995,11.6408,11.6589,11.6506,11.6588,11.6599,11.6594,11.6712,11.6815,11.6914,11.7001,11.7077,11.7207,9.7689,9.7709,9.7689,9.7689,9.7692,9.769,9.7715,9.7685,9.7689,9.7715,9.8299,9.8455,9.7753,9.8299,9.8416,9.7753,9.8299,9.8416,9.7753,9.9158,9.9656,9.8929,10.0495,10.15,10.1705,10.151,10.1782,10.2601,10.2406,10.2406,10.2601,10.2601,10.2581,10.2586,10.189,10.16,10.1486,10.0785,10.0085,9.9656,10.1005,10.101,10.0391,10.189,10.2298,10.2215,10.2284,10.2289,10.2305,10.2305,10.2921,10.3609,10.3609,10.4813,10.6205,10.6205,10.6794,10.7416,10.7416,10.7416,10.7416,10.7416,10.7307,10.709,10.6783,10.659,10.6517,10.6104,10.6385,10.6613,10.66,10.6921,10.6804,10.58,10.5211,10.4587,10.3583,10.3784,10.4403,10.5216,10.6686,10.8194,10.9703,11.0399,11.0786,11.0786,11.1018,11.1087,11.1087,11.1087,11.1396,11.2093,11.2014,11.2005,11.2093,11.1913,11.2195,11.3005,11.3813,11.4596,11.5413,11.6215,11.66,11.6617,11.6697,11.6714,11.6589,11.6704,11.6812,11.6712,11.6786,11.6914,11.6982,11.701,11.7105,11.7207,9.7695,9.7689,9.7717,9.7717,9.7645,9.7643,9.7684,9.7634,9.7642,9.7682,9.7753,9.7753,9.7714,9.7753,9.7753,9.7714,9.7753,9.7753,9.7714,9.8572,9.9029,9.8927,10.0514,10.171,10.2484,10.1782,10.1782,10.2601,10.1899,10.1899,10.2601,10.2601,10.2597,10.2593,10.2515,10.2515,10.2511,10.2394,10.2394,10.2312,10.2387,10.2006,10.1416,10.2305,10.2093,10.1509,10.2283,10.2494,10.2406,10.2406,10.2917,10.3609,10.3609,10.4813,10.6205,10.6205,10.6794,10.7416,10.7416,10.7416,10.7416,10.7416,10.7307,10.7113,10.6904,10.6688,10.6709,10.7088,10.6709,10.671,10.8101,10.7894,10.7315,10.6593,10.6485,10.5892,10.4487,10.568,10.6995,10.7885,10.8813,10.9703,11.0593,11.0786,11.0786,11.0786,11.1512,11.2015,11.2015,11.2015,11.2015,11.2093,11.2014,11.2005,11.2093,11.1913,11.2195,11.3005,11.3883,11.471,11.5415,11.6406,11.6704,11.6697,11.6802,11.6792,11.6697,11.6812,11.6786,11.6786,11.6885,11.7011,11.6991,11.7085,11.7198,11.7207,9.7641,9.7656,9.7648,9.7648,9.7637,9.7668,9.7637,9.7608,9.7611,9.764,9.7638,9.7669,9.7717,9.7714,9.7714,9.7714,9.7714,9.7714,9.7714,9.8026,9.8875,10.0412,10.1585,10.2286,10.2716,10.2301,10.2289,10.2601,10.2289,10.2289,10.2601,10.2601,10.2601,10.2601,10.2601,10.2601,10.2601,10.2601,10.2289,10.1895,10.2386,10.2117,10.1506,10.2318,10.2395,10.2095,10.2411,10.2389,10.2317,10.2317,10.25,10.2904,10.3415,10.4386,10.559,10.66,10.7183,10.7416,10.7416,10.7416,10.7416,10.7416,10.7689,10.7992,10.7787,10.8109,10.8399,10.8075,10.8198,10.8309,10.8296,10.8498,10.8318,10.7411,10.6892,10.6308,10.5299,10.6183,10.7119,10.7506,10.92,11.0399,11.0786,11.128,11.159,11.159,11.1899,11.2093,11.2093,11.2093,11.2093,11.2093,11.2105,11.198,11.2093,11.1984,11.2384,11.3101,11.3989,11.4781,11.5607,11.638,11.6804,11.6812,11.6913,11.6595,11.609,11.6799,11.6711,11.619,11.6808,11.7097,11.7105,11.7086,11.7114,11.7207,9.7598,9.76,9.7617,9.7617,9.7649,9.7643,9.7612,9.7616,9.7617,9.7617,9.7617,9.7616,9.7642,9.7678,9.7674,9.7662,9.766,9.7693,9.7715,9.7948,9.8875,10.0607,10.1211,10.1615,10.1896,10.2093,10.2191,10.2191,10.2503,10.262,10.262,10.262,10.262,10.2616,10.2605,10.2601,10.2601,10.2601,10.2289,10.1818,10.239,10.2316,10.1818,10.2396,10.259,10.2513,10.2498,10.24,10.2311,10.2288,10.2515,10.2787,10.3415,10.4386,10.559,10.6989,10.7416,10.7416,10.7416,10.761,10.7804,10.7804,10.822,10.8585,10.871,10.919,10.9493,10.9185,10.9099,10.9011,10.9217,10.9205,10.8983,10.8595,10.8309,10.7891,10.7001,10.7885,10.8504,10.8194,11.0012,11.1203,11.1203,11.1706,11.2093,11.2093,11.2093,11.2093,11.2093,11.2093,11.2093,11.2093,11.2093,11.2093,11.2093,11.2093,11.2513,11.3196,11.3812,11.4509,11.5292,11.5785,11.6094,11.6113,11.6209,11.5891,11.5312,11.61,11.6079,11.5792,11.6101,11.6602,11.7198,11.6777,11.6912,11.7207,9.7606,9.7604,9.7614,9.7609,9.7608,9.7611,9.7615,9.7615,9.7602,9.7602,9.7602,9.7602,9.7602,9.7602,9.7612,9.7614,9.7613,9.7643,9.768,9.8494,9.8953,9.8888,9.8927,9.9344,10.0211,10.0999,10.1412,10.1412,10.2309,10.2698,10.2698,10.2698,10.2698,10.2695,10.2616,10.2601,10.2601,10.2601,10.2601,10.2597,10.2591,10.2599,10.2593,10.2591,10.2612,10.2603,10.2513,10.2503,10.2406,10.2305,10.2909,10.3609,10.3609,10.4813,10.6406,10.7183,10.7416,10.7416,10.7416,10.7999,10.8698,10.8698,10.8686,10.8806,10.9582,10.9694,10.9791,11.04,10.9108,10.8579,11.0997,10.9983,10.9286,11.0314,11.1192,11.1181,10.9716,11.1018,11.1783,11.0894,11.159,11.2093,11.2093,11.2093,11.2093,11.2093,11.2093,11.2093,11.2093,11.2093,11.2093,11.2093,11.2093,11.2093,11.2093,11.2093,11.2513,11.3205,11.3295,11.3798,11.4519,11.461,11.4601,11.4519,11.4619,11.4601,11.448,11.4619,11.5118,11.5815,11.4886,11.5699,11.7091,11.6201,11.6395,11.7207,9.7613,9.7593,9.7598,9.76,9.7588,9.7598,9.7581,9.7604,9.7593,9.7593,9.7593,9.7609,9.76,9.7602,9.7606,9.7612,9.7613,9.7616,9.7616,9.7926,9.8074,9.8055,9.9775,10.0797,10.1102,10.1894,10.2305,10.2305,10.2617,10.2695,10.2695,10.2695,10.2683,10.2698,10.2685,10.2588,10.2601,10.2601,10.2601,10.2597,10.2585,10.2589,10.2597,10.2585,10.2599,10.2603,10.2513,10.2503,10.2406,10.2305,10.2909,10.3803,10.5001,10.6212,10.7105,10.7299,10.7416,10.7494,10.8115,10.8504,10.8698,10.8698,10.9618,11.0514,11.059,11.1011,11.1417,11.1403,11.1112,11.0987,11.1288,11.1119,11.0815,11.0488,11.069,11.0486,10.96,11.0515,11.1095,11.0786,11.159,11.2093,11.2093,11.2093,11.2093,11.2093,11.2093,11.2093,11.2093,11.2093,11.2093,11.2093,11.2093,11.2093,11.2093,11.2093,11.2509,11.3304,11.3408,11.3794,11.4619,11.4607,11.4598,11.4619,11.4607,11.4288,11.3807,11.4413,11.4383,11.4113,11.4499,11.4886,11.5389,11.5815,11.6085,11.6395,9.7578,9.7541,9.7585,9.7597,9.7597,9.7607,9.7607,9.76,9.759,9.7556,9.7553,9.7572,9.7542,9.7546,9.7556,9.7617,9.7595,9.7606,9.7612,9.7655,9.7656,9.769,9.951,10.0305,9.9999,10.079,10.1203,10.1203,10.1908,10.1986,10.1713,10.2103,10.2011,10.1705,10.2003,10.221,10.2094,10.2484,10.2601,10.2601,10.2601,10.2601,10.2601,10.2601,10.2612,10.2603,10.2513,10.2503,10.2406,10.2305,10.3104,10.4386,10.6095,10.6989,10.7416,10.7416,10.7416,10.761,10.8504,10.9009,10.9197,10.921,10.9888,11.0789,11.1397,11.1608,11.171,11.1805,11.1704,11.1606,11.1713,11.15,11.1305,11.1198,11.1112,11.1003,11.0614,11.1018,11.128,11.128,11.1783,11.2093,11.2093,11.2093,11.2093,11.2093,11.2093,11.2093,11.2093,11.2093,11.2093,11.2093,11.2093,11.2093,11.2093,11.2093,11.2286,11.2797,11.2914,11.3107,11.361,11.361,11.361,11.361,11.361,11.33,11.2914,11.3416,11.3494,11.33,11.3494,11.3997,11.4616,11.4809,11.5118,11.5505,9.7503,9.75,9.7532,9.7577,9.759,9.759,9.759,9.759,9.7564,9.7511,9.7496,9.7496,9.7496,9.7496,9.7539,9.7585,9.7609,9.7599,9.7608,9.7609,9.7652,9.7812,9.8593,9.8629,9.7843,9.8602,9.9057,9.9131,10.0694,10.1004,10.0297,10.1119,10.1104,10.0493,10.1198,10.1511,10.1591,10.2289,10.2601,10.2601,10.2601,10.2601,10.2484,10.2601,10.2612,10.2486,10.2513,10.2503,10.2406,10.2383,10.3609,10.5279,10.6794,10.7299,10.7416,10.7416,10.7494,10.7688,10.8504,10.9319,11.0,10.9895,10.9819,11.0188,11.1692,11.1413,11.0988,11.1792,11.1396,11.1203,11.2015,11.1521,11.1203,11.2015,11.2093,11.2093,11.2093,11.2093,11.2093,11.2093,11.2093,11.2093,11.2093,11.2093,11.2093,11.2093,11.2093,11.2093,11.2093,11.2093,11.2093,11.2093,11.2093,11.2093,11.2093,11.2093,11.2093,11.2093,11.2093,11.2093,11.2093,11.2093,11.2093,11.2093,11.2093,11.2093,11.2093,11.2093,11.2488,11.3107,11.2411,11.2991,11.4306,11.361,11.3803,11.4499,9.7503,9.7521,9.7578,9.7535,9.7535,9.7535,9.7535,9.7535,9.7525,9.75,9.7496,9.7496,9.7496,9.7496,9.7507,9.7532,9.7577,9.7616,9.7604,9.7583,9.7924,9.87,9.8896,9.8903,9.8708,9.9566,10.0302,10.0911,10.0714,10.0781,10.1182,10.1416,10.1794,10.2197,10.2401,10.2407,10.2412,10.2495,10.2601,10.2601,10.2601,10.2211,10.1705,10.2406,10.2183,10.1708,10.228,10.2503,10.2484,10.3082,10.4502,10.6017,10.6283,10.6911,10.7416,10.7416,10.7882,10.8504,10.8581,10.9319,11.0,10.9895,10.9819,10.9902,11.0112,11.0492,11.0908,11.1104,11.1521,11.1899,11.2093,11.1899,11.1899,11.2093,11.2093,11.2093,11.2093,11.2093,11.2093,11.2093,11.2093,11.2093,11.2093,11.2093,11.2093,11.2093,11.2093,11.2093,11.2093,11.2093,11.2093,11.2093,11.2093,11.2093,11.2093,11.2093,11.2093,11.2093,11.2093,11.2093,11.2093,11.2093,11.2093,11.2093,11.2093,11.2093,11.2093,11.2093,11.2209,11.2286,11.2209,11.2286,11.272,11.3184,11.3494,11.3812,9.75,9.7514,9.756,9.75,9.7496,9.7496,9.7496,9.7496,9.7496,9.7496,9.7496,9.7496,9.7496,9.7496,9.7496,9.7496,9.7514,9.7588,9.7597,9.8004,9.847,9.8986,9.9419,9.9816,10.0181,9.9869,9.9879,10.0308,10.0301,10.0486,10.0903,10.1316,10.149,10.158,10.1905,10.2107,10.211,10.1993,10.2016,10.2016,10.1588,10.1198,10.0886,10.1705,10.1716,10.1396,10.2202,10.2404,10.2484,10.3815,10.4813,10.5707,10.6484,10.7105,10.7416,10.7416,10.7688,10.8193,10.8581,10.9009,10.9411,10.9311,10.948,10.9894,11.0205,11.0498,11.0999,11.1297,11.1783,11.2093,11.2093,11.2093,11.2093,11.2093,11.2093,11.2093,11.2093,11.2093,11.2093,11.2093,11.2093,11.2093,11.2093,11.2093,11.2093,11.2093,11.2093,11.2093,11.2093,11.2093,11.2093,11.2093,11.2093,11.2093,11.2093,11.2093,11.2093,11.2093,11.2093,11.2093,11.2093,11.2093,11.2093,11.2093,11.2093,11.2093,11.2093,11.2093,11.2093,11.2093,11.2093,11.2093,11.2209,11.2604,11.2797,11.2914,9.7496,9.7496,9.7496,9.7496,9.7496,9.7496,9.7496,9.7496,9.7496,9.7496,9.7496,9.7496,9.7496,9.7496,9.7496,9.7496,9.7496,9.7528,9.7589,9.8417,9.8987,9.9189,10.0015,10.0798,10.1502,10.0095,9.9345,9.9218,9.9802,10.0186,10.0297,10.1095,10.1186,10.069,10.1284,10.1603,10.1613,10.149,10.1393,10.1315,10.0497,9.999,9.999,10.1003,10.1283,10.1193,10.2202,10.2505,10.2709,10.4191,10.4891,10.5396,10.6794,10.7299,10.7416,10.761,10.761,10.7804,10.8504,10.8698,10.8589,10.8285,10.8986,11.0003,11.0492,11.0682,11.1018,11.1706,11.2015,11.2093,11.2093,11.2093,11.2093,11.2093,11.2093,11.2093,11.2093,11.2093,11.2093,11.2093,11.2093,11.2093,11.2093,11.2093,11.2093,11.2093,11.2093,11.2093,11.2093,11.2093,11.2093,11.2093,11.2093,11.2093,11.2093,11.2093,11.2093,11.2093,11.2093,11.2093,11.2093,11.2093,11.2093,11.2093,11.2093,11.2093,11.2093,11.2093,11.2093,11.2093,11.2093,11.2093,11.2093,11.2093,11.2093,11.2209,9.7496,9.7496,9.7496,9.7496,9.7496,9.7496,9.7496,9.7496,9.7496,9.7496,9.7496,9.7496,9.7496,9.7496,9.7496,9.7496,9.7496,9.7514,9.7594,9.8405,9.9252,9.9985,10.0905,10.1385,10.1502,10.1307,10.0819,10.0104,9.9482,9.957,10.0296,10.1114,10.1802,10.2509,10.2501,10.2512,10.2503,10.1696,10.1393,10.1315,10.0497,9.9639,9.9133,10.0808,10.0912,10.0286,10.1915,10.2894,10.3492,10.3686,10.4813,10.6095,10.6289,10.6794,10.7494,10.8309,10.8504,10.8504,10.8698,10.8698,10.8511,10.7587,10.8598,10.9802,10.9722,11.0292,11.0777,11.1018,11.159,11.2093,11.2093,11.2093,11.2093,11.2093,11.2093,11.2093,11.2093,11.2093,11.2093,11.2093,11.2093,11.2093,11.2093,11.2093,11.2093,11.2093,11.2093,11.2093,11.2093,11.2093,11.2093,11.2093,11.2093,11.2093,11.2093,11.2093,11.2093,11.2093,11.2093,11.2093,11.2093,11.2093,11.2093,11.2093,11.2093,11.2093,11.2093,11.2093,11.2093,11.2093,11.2093,11.2093,11.2093,11.2093,11.2093,11.2093,9.7422,9.7481,9.7496,9.7496,9.7496,9.7496,9.7496,9.7496,9.7496,9.7496,9.7496,9.7496,9.7496,9.7496,9.7496,9.7496,9.7496,9.7514,9.7588,9.8384,9.9236,10.0214,10.1009,10.1683,10.2203,10.1305,10.069,10.0314,9.99,9.9914,10.0312,10.0696,10.0994,10.141,10.1282,10.1281,10.1186,10.0317,9.9931,9.9873,9.9016,9.8431,9.8197,9.9417,9.9929,10.0197,10.2396,10.3411,10.3686,10.4697,10.5584,10.6283,10.6717,10.7105,10.7494,10.7882,10.7999,10.7999,10.7999,10.7896,10.7806,10.7301,10.8484,10.9702,10.9496,11.0593,11.1396,11.0894,11.1512,11.2015,11.1521,11.1783,11.2093,11.2093,11.2093,11.2093,11.2093,11.2093,11.2093,11.2093,11.2093,11.2093,11.2093,11.2093,11.2093,11.2093,11.2093,11.2093,11.2093,11.2093,11.2093,11.2093,11.2093,11.2093,11.2093,11.2093,11.2093,11.2093,11.2093,11.2093,11.2093,11.2093,11.2093,11.2093,11.2093,11.2093,11.2093,11.2093,11.2093,11.2093,11.2093,11.2093,11.2093,11.2093,11.2093,11.2093]}]]